[[{"header":{"parameterUnit":"m.s-1","parameterCategory":1,"la1":31.0,"la2":29.5877,"lo1":-88.7671,"lo2":-86.6584,"dy":0.0162,"dx":0.0185,"nx":115,"ny":88,"refTime":"2025-12-10T12:00:00:Z","depth":0,"parameterNumber":2,"parameterNumberName":"U-component_of_WINDS"},"data":[0.0,0.0,0.0,0.0,0.0,0.0,0.0,0.0,0.0,0.0,0.0,0.0,0.0,0.0,0.0,0.0,0.0,0.0,0.0,0.0,0.0,0.0,0.0,0.0,0.0,0.0,0.0,0.0,0.0,0.0,0.0,0.0,0.0,0.0,0.0,0.0,0.0,0.0,0.0,0.0,0.0,0.0,0.0,0.0,0.0,0.0,0.0,0.0,0.0,0.0,0.0,0.0,0.0,0.0,0.0,0.0,0.0,0.0,0.0,0.0,0.0,0.0,0.0,0.0,0.0,0.0,0.0,0.0,0.0,0.0,0.0,0.0,0.0,0.0,0.0,0.0,0.0,0.0,0.0,0.0,0.0,0.0,0.0,0.0,0.0,0.0,0.0,0.0,0.0,0.0,0.0,0.0,0.0,0.0,0.0,0.0,0.0,0.0,0.0,0.0,0.0,0.0,0.0,0.0,0.0,0.0,0.0,0.0,0.0,0.0,0.0,0.0,0.0,0.0,0.0,0.0,0.0,0.0,0.0,0.0,0.0,0.0,0.0,0.0,0.0,0.0,0.0,0.0,0.0,0.0,0.0,0.0,0.0,0.0,0.0,0.0,0.0,0.0,0.0,0.0,0.0,0.0,0.0,0.0,0.0,0.0,0.0,0.0,0.0,0.0,0.0,0.0,0.0,0.0,0.0,0.0,0.0,0.0,0.0,0.0,0.0,0.0,0.0,0.0,0.0,0.0,0.0,0.0,0.0,0.0,0.0,0.0,0.0,0.0,0.0,0.0,0.0,0.0,0.0,0.0,0.0,0.0,0.0,0.0,0.0,0.0,0.0,0.0,0.0,0.0,0.0,0.0,0.0,0.0,0.0,0.0,0.0,0.0,0.0,0.0,0.0,0.0,0.0,0.0,0.0,0.0,0.0,0.0,0.0,0.0,0.0,0.0,0.0,0.0,0.0,0.0,0.0,0.0,0.0,0.0,0.0,0.0,0.0,0.0,0.0,0.0,0.0,0.0,0.0,0.0,0.0,0.0,0.0,0.0,0.0,0.0,0.0,0.0,0.0,0.0,0.0,0.0,0.0,0.0,0.0,0.0,0.0,0.0,0.0,0.0,0.0,0.0,0.0,0.0,0.0,0.0,0.0,0.0,0.0,0.0,0.0,0.0,0.0,0.0,0.0,0.0,0.0,0.0,0.0,0.0,0.0,0.0,0.0,0.0,0.0,0.0,0.0,0.0,0.0,0.0,0.0,0.0,0.0,0.0,0.0,0.0,0.0,0.0,0.0,0.0,0.0,0.0,0.0,0.0,0.0,0.0,0.0,0.0,0.0,0.0,0.0,0.0,0.0,0.0,0.0,0.0,0.0,0.0,0.0,0.0,0.0,0.0,0.0,0.0,0.0,0.0,0.0,0.0,0.0,0.0,0.0,0.0,0.0,0.0,0.0,0.0,0.0,0.0,0.0,0.0,0.0,0.0,0.0,0.0,0.0,0.0,0.0,0.0,0.0,0.0,0.0,0.0,0.0,0.0,0.0,0.0,0.0,0.0,0.0,0.0,0.0,0.0,0.0,0.0,0.0,0.0,0.0,0.0,0.0,0.0,0.0,0.0,0.0,0.0,0.0,0.0,0.0,0.0,0.0,0.0,0.0,0.0,0.0,0.0,0.0,0.0,0.0,0.0,0.0,0.0,0.0,0.0,0.0,0.0,0.0,0.0,0.0,0.0,0.0,0.0,0.0,0.0,0.0,0.0,0.0,0.0,0.0,0.0,0.0,0.0,0.0,0.0,0.0,0.0,0.0,0.0,0.0,0.0,0.0,0.0,0.0,0.0,0.0,0.0,0.0,0.0,0.0,0.0,0.0,0.0,0.0,0.0,0.0,0.0,0.0,0.0,0.0,0.0,0.0,0.0,0.0,0.0,0.0,0.0,0.0,0.0,0.0,0.0,0.0,0.0,0.0,0.0,0.0,0.0,0.0,0.0,0.0,0.0,0.0,0.0,0.0,0.0,0.0,0.0,0.0,0.0,0.0,0.0,0.0,0.0,0.0,0.0,0.0,0.0,0.0,0.0,0.0,0.0,0.0,0.0,0.0,0.0,0.0,0.0,0.0,0.0,0.0,0.0,0.0,0.0,0.0,0.0,0.0,0.0,0.0,0.0,0.0,0.0,0.0,0.0,0.0,0.0,0.0,0.0,0.0,0.0,0.0,0.0,0.0,0.0,0.0,0.0,0.0,0.0,0.0,0.0,0.0,0.0,0.0,0.0,0.0,0.0,0.0,0.0,0.0,0.0,0.0,0.0,0.0,0.0,0.0,0.0,0.0,0.0,0.0,0.0,0.0,0.0,0.0,0.0,0.0,0.0,0.0,0.0,0.0,0.0,0.0,0.0,0.0,0.0,0.0,0.0,0.0,0.0,0.0,0.0,0.0,0.0,0.0,0.0,0.0,0.0,0.0,0.0,0.0,0.0,0.0,0.0,0.0,0.0,0.0,0.0,0.0,0.0,0.0,0.0,0.0,0.0,0.0,0.0,0.0,0.0,0.0,0.0,0.0,0.0,0.0,0.0,0.0,0.0,0.0,0.0,0.0,0.0,0.0,0.0,0.0,0.0,0.0,0.0,0.0,0.0,0.0,0.0,0.0,0.0,0.0,0.0,0.0,0.0,0.0,0.0,0.0,0.0,0.0,0.0,0.0,0.0,0.0,0.0,0.0,0.0,0.0,0.0,0.0,0.0,0.0,0.0,0.0,0.0,0.0,0.0,0.0,0.0,0.0,0.0,0.0,0.0,0.0,0.0,0.0,0.0,0.0,0.0,0.0,0.0,0.0,0.0,0.0,0.0,0.0,0.0,0.0,0.0,0.0,0.0,0.0,0.0,0.0,0.0,0.0,0.0,0.0,0.0,0.0,0.0,0.0,0.0,0.0,0.0,0.0,0.0,0.0,0.0,0.0,0.0,0.0,0.0,0.0,0.0,0.0,0.0,0.0,0.0,0.0,0.0,0.0,0.0,0.0,0.0,0.0,0.0,0.0,0.0,0.0,0.0,0.0,0.0,0.0,0.0,0.0,0.0,0.0,0.0,0.0,0.0,0.0,0.0,0.0,0.0,0.0,0.0,0.0,0.0,0.0,0.0,0.0,0.0,0.0,0.0,0.0,0.0,0.0,0.0,0.0,0.0,0.0,0.0,0.0,0.0,0.0,0.0,0.0,0.0,0.0,0.0,0.0,0.0,0.0,0.0,0.0,0.0,0.0,0.0,0.0,0.0,0.0,0.0,0.0,0.0,0.0,0.0,0.0,0.0,0.0,0.0,0.0,0.0,0.0,0.0,0.0,0.0,0.0,0.0,0.0,0.0,0.0,0.0,0.0,0.0,0.0,0.0,0.0,0.0,0.0,0.0,0.0,0.0,0.0,0.0,0.0,0.0,0.0,0.0,0.0,0.0,0.0,0.0,0.0,0.0,0.0,0.0,0.0,0.0,0.0,0.0,0.0,0.0,0.0,0.0,0.0,0.0,0.0,0.0,0.0,0.0,0.0,0.0,0.0,0.0,0.0,0.0,0.0,0.0,0.0,0.0,0.0,0.0,0.0,0.0,0.0,0.0,0.0,0.0,0.0,0.0,0.0,0.0,0.0,0.0,0.0,0.0,0.0,0.0,0.0,0.0,0.0,0.0,0.0,0.0,0.0,0.0,0.0,0.0,0.0,0.0,0.0,0.0,0.0,0.0,0.0,0.0,0.0,0.0,0.0,0.0,0.0,0.0,0.0,0.0,0.0,0.0,0.0,0.0,0.0,0.0,0.0,0.0,0.0,0.0,0.0,0.0,0.0,0.0,0.0,0.0,0.0,0.0,0.0,0.0,0.0,0.0,0.0,0.0,0.0,0.0,0.0,0.0,0.0,0.0,0.0,0.0,0.0,0.0,0.0,0.0,0.0,0.0,0.0,0.0,0.0,0.0,0.0,0.0,0.0,0.0,0.0,0.0,0.0,0.0,0.0,0.0,0.0,0.0,0.0,0.0,0.0,0.0,0.0,0.0,0.0,0.0,0.0,0.0,0.0,0.0,0.0,0.0,0.0,0.0,0.0,0.0,0.0,0.0,0.0,0.0,0.0,0.0,0.0,0.0,0.0,0.0,0.0,0.0,0.0,0.0,0.0,0.0,0.0,0.0,0.0,0.0,0.0,0.0,0.0,0.0,0.0,0.0,0.0,0.0,0.0,0.0,0.0,0.0,0.0,0.0,0.0,0.0,0.0,0.0,0.0,0.0,0.0,0.0,0.0,0.0,-1.1172,0.0,0.0,0.0,0.0,0.0,0.0,0.0,0.0,0.0,0.0,0.0,0.0,0.0,0.0,0.0,0.0,0.0,0.0,0.0,0.0,0.0,0.0,0.0,0.0,0.0,0.0,0.0,0.0,0.0,0.0,0.0,0.0,0.0,0.0,0.0,0.0,0.0,0.0,0.0,0.0,0.0,0.0,0.0,0.0,0.0,0.0,0.0,0.0,0.0,0.0,0.0,0.0,0.0,0.0,0.0,0.0,0.0,0.0,0.0,0.0,0.0,0.0,0.0,0.0,0.0,0.0,0.0,0.0,0.0,0.0,0.0,0.0,0.0,0.0,0.0,0.0,0.0,0.0,0.0,0.0,0.0,0.0,0.0,0.0,0.0,0.0,0.0,0.0,0.0,0.0,0.0,0.0,0.0,0.0,0.0,0.0,0.0,0.0,0.0,0.0,0.0,0.0,0.0,0.0,0.0,0.0,0.0,0.0,0.0,0.0,-1.1332,-1.1547,-1.166,-1.1608,-1.1427,0.0,0.0,0.0,0.0,0.0,0.0,0.0,0.0,0.0,0.0,0.0,0.0,0.0,0.0,0.0,0.0,0.0,0.0,0.0,0.0,0.0,0.0,0.0,0.0,0.0,0.0,0.0,0.0,0.0,0.0,0.0,0.0,0.0,0.0,0.0,0.0,0.0,0.0,0.0,0.0,0.0,0.0,0.0,0.0,0.0,0.0,0.0,0.0,0.0,0.0,0.0,0.0,0.0,0.0,0.0,0.0,0.0,0.0,0.0,0.0,0.0,0.0,0.0,0.0,0.0,0.0,0.0,0.0,0.0,0.0,0.0,0.0,0.0,0.0,0.0,0.0,0.0,0.0,0.0,0.0,0.0,0.0,0.0,0.0,0.0,0.0,0.0,0.0,0.0,0.0,0.0,0.0,0.0,0.0,0.0,0.0,0.0,0.0,0.0,0.0,0.0,0.0,0.0,0.0,0.0,0.0,0.0,0.0,0.0,0.0,0.0,0.0,-1.1791,-1.1754,-1.1615,0.0,0.0,0.0,0.0,0.0,0.0,0.0,0.0,0.0,0.0,0.0,0.0,0.0,0.0,0.0,0.0,0.0,0.0,0.0,0.0,0.0,0.0,0.0,0.0,0.0,0.0,0.0,0.0,0.0,0.0,0.0,0.0,0.0,0.0,0.0,0.0,0.0,0.0,0.0,0.0,0.0,0.0,0.0,0.0,0.0,0.0,0.0,0.0,0.0,0.0,0.0,0.0,0.0,0.0,0.0,0.0,0.0,0.0,0.0,0.0,0.0,0.0,0.0,0.0,0.0,0.0,0.0,0.0,0.0,0.0,0.0,0.0,0.0,0.0,0.0,0.0,0.0,0.0,0.0,0.0,0.0,0.0,0.0,0.0,0.0,0.0,0.0,0.0,0.0,0.0,0.0,0.0,0.0,0.0,0.0,0.0,0.0,0.0,0.0,0.0,0.0,0.0,0.0,0.0,0.0,0.0,0.0,0.0,0.0,0.0,-1.1685,-1.1809,-1.1958,0.0,-1.1477,0.0,0.0,0.0,0.0,0.0,0.0,0.0,0.0,0.0,0.0,0.0,0.0,0.0,0.0,0.0,0.0,0.0,0.0,0.0,0.0,0.0,0.0,0.0,0.0,0.0,0.0,0.0,0.0,0.0,0.0,0.0,0.0,0.0,0.0,0.0,0.0,0.0,0.0,0.0,0.0,0.0,0.0,0.0,0.0,0.0,0.0,0.0,0.0,0.0,0.0,0.0,0.0,0.0,0.0,0.0,0.0,0.0,0.0,0.0,0.0,0.0,0.0,0.0,0.0,0.0,0.0,0.0,0.0,0.0,0.0,0.0,0.0,0.0,0.0,0.0,0.0,0.0,0.0,0.0,0.0,0.0,0.0,0.0,0.0,0.0,0.0,0.0,0.0,0.0,0.0,0.0,0.0,0.0,0.0,0.0,0.0,0.0,0.0,0.0,0.0,0.0,0.0,0.0,0.0,0.0,0.0,0.0,0.0,0.0,0.0,-1.1747,-1.1809,-1.1856,-1.1837,0.0,0.0,0.0,0.0,0.0,0.0,0.0,0.0,0.0,0.0,0.0,0.0,0.0,0.0,0.0,0.0,0.0,0.0,0.0,0.0,0.0,0.0,0.0,0.0,0.0,0.0,0.0,0.0,0.0,0.0,0.0,0.0,0.0,0.0,0.0,0.0,0.0,0.0,0.0,0.0,0.0,0.0,0.0,0.0,0.0,0.0,0.0,0.0,0.0,0.0,0.0,0.0,0.0,0.0,0.0,0.0,0.0,0.0,0.0,0.0,0.0,0.0,0.0,0.0,0.0,0.0,0.0,0.0,0.0,0.0,0.0,0.0,0.0,0.0,0.0,0.0,0.0,0.0,0.0,0.0,0.0,0.0,0.0,0.0,0.0,0.0,0.0,0.0,0.0,0.0,0.0,0.0,0.0,0.0,0.0,0.0,0.0,0.0,0.0,0.0,0.0,0.0,0.0,0.0,0.0,0.0,0.0,0.0,0.0,0.0,-1.156,0.0,-1.1836,-1.2041,-1.2022,-1.1773,0.0,0.0,0.0,0.0,0.0,0.0,0.0,0.0,0.0,0.0,0.0,0.0,0.0,0.0,0.0,0.0,0.0,0.0,0.0,0.0,0.0,0.0,0.0,0.0,0.0,0.0,0.0,0.0,0.0,0.0,0.0,0.0,0.0,0.0,0.0,0.0,0.0,0.0,0.0,0.0,0.0,0.0,0.0,0.0,0.0,0.0,0.0,0.0,0.0,0.0,0.0,0.0,0.0,0.0,0.0,0.0,0.0,0.0,0.0,0.0,0.0,0.0,0.0,0.0,0.0,0.0,0.0,0.0,0.0,0.0,0.0,0.0,0.0,0.0,0.0,0.0,0.0,0.0,0.0,0.0,0.0,0.0,0.0,0.0,0.0,0.0,0.0,0.0,0.0,0.0,0.0,0.0,0.0,0.0,0.0,0.0,0.0,0.0,0.0,0.0,0.0,0.0,0.0,0.0,0.0,0.0,0.0,0.0,0.0,-1.1553,-1.1867,-1.2016,-1.2775,-1.2516,0.0,0.0,0.0,0.0,0.0,0.0,0.0,0.0,0.0,0.0,0.0,0.0,0.0,0.0,0.0,0.0,0.0,0.0,0.0,0.0,0.0,0.0,0.0,0.0,0.0,0.0,0.0,0.0,0.0,0.0,0.0,0.0,0.0,0.0,0.0,0.0,0.0,0.0,0.0,0.0,0.0,0.0,0.0,0.0,0.0,0.0,0.0,0.0,0.0,0.0,0.0,0.0,0.0,0.0,0.0,0.0,0.0,0.0,0.0,0.0,0.0,0.0,0.0,0.0,0.0,0.0,0.0,0.0,0.0,0.0,0.0,0.0,0.0,0.0,0.0,0.0,0.0,0.0,0.0,0.0,0.0,0.0,0.0,0.0,0.0,0.0,0.0,0.0,0.0,0.0,0.0,0.0,0.0,0.0,0.0,0.0,0.0,0.0,0.0,0.0,0.0,0.0,0.0,0.0,0.0,0.0,0.0,0.0,0.0,-1.1129,-1.1778,-1.2274,-1.2633,-1.2609,-1.2307,0.0,0.0,0.0,0.0,0.0,0.0,0.0,0.0,0.0,0.0,0.0,0.0,0.0,0.0,0.0,0.0,0.0,0.0,0.0,0.0,0.0,0.0,0.0,0.0,0.0,0.0,0.0,0.0,0.0,0.0,0.0,0.0,0.0,0.0,0.0,0.0,0.0,0.0,0.0,0.0,0.0,0.0,0.0,0.0,0.0,0.0,0.0,0.0,0.0,0.0,0.0,0.0,0.0,0.0,0.0,0.0,0.0,0.0,0.0,0.0,0.0,0.0,0.0,0.0,0.0,0.0,0.0,0.0,0.0,0.0,0.0,0.0,0.0,0.0,0.0,0.0,0.0,0.0,0.0,0.0,0.0,0.0,0.0,0.0,0.0,0.0,0.0,0.0,0.0,0.0,0.0,0.0,0.0,0.0,0.0,0.0,0.0,0.0,0.0,0.0,0.0,0.0,0.0,0.0,0.0,0.0,0.0,0.0,0.0,-1.1341,0.0,-1.2379,0.0,-1.2554,-1.2342,0.0,0.0,0.0,0.0,0.0,0.0,0.0,0.0,0.0,0.0,0.0,0.0,0.0,0.0,0.0,0.0,0.0,0.0,0.0,0.0,0.0,0.0,0.0,0.0,0.0,0.0,0.0,0.0,0.0,0.0,0.0,0.0,0.0,0.0,0.0,0.0,0.0,0.0,0.0,0.0,0.0,0.0,0.0,0.0,0.0,0.0,0.0,0.0,0.0,0.0,0.0,0.0,0.0,0.0,0.0,0.0,0.0,0.0,0.0,0.0,0.0,0.0,0.0,0.0,0.0,0.0,0.0,0.0,0.0,0.0,0.0,0.0,0.0,0.0,0.0,0.0,0.0,0.0,0.0,0.0,0.0,0.0,0.0,0.0,0.0,0.0,0.0,0.0,0.0,0.0,0.0,0.0,0.0,0.0,0.0,0.0,0.0,0.0,0.0,0.0,0.0,0.0,0.0,0.0,0.0,0.0,0.0,0.0,-1.131,-1.1778,-1.2143,-1.2137,-1.1781,-1.2737,-1.2583,0.0,0.0,0.0,0.0,0.0,0.0,0.0,0.0,0.0,0.0,0.0,0.0,0.0,0.0,0.0,0.0,0.0,0.0,0.0,0.0,0.0,0.0,0.0,0.0,0.0,0.0,0.0,0.0,0.0,0.0,0.0,0.0,0.0,0.0,0.0,0.0,0.0,0.0,0.0,0.0,0.0,0.0,0.0,0.0,0.0,0.0,0.0,0.0,0.0,0.0,0.0,0.0,0.0,0.0,0.0,0.0,0.0,0.0,0.0,0.0,0.0,0.0,0.0,0.0,0.0,0.0,0.0,0.0,0.0,0.0,0.0,0.0,0.0,0.0,0.0,0.0,0.0,0.0,0.0,0.0,0.0,0.0,0.0,0.0,0.0,0.0,0.0,0.0,0.0,0.0,0.0,0.0,0.0,0.0,0.0,0.0,0.0,0.0,0.0,0.0,0.0,0.0,0.0,0.0,0.0,0.0,0.0,0.0,0.0,-1.1965,-1.212,-1.2296,-1.2592,-1.2803,-1.2726,0.0,0.0,0.0,0.0,0.0,0.0,0.0,0.0,0.0,0.0,0.0,0.0,0.0,0.0,0.0,0.0,0.0,0.0,0.0,0.0,0.0,0.0,0.0,0.0,0.0,0.0,0.0,0.0,0.0,0.0,0.0,0.0,0.0,0.0,0.0,0.0,0.0,0.0,0.0,0.0,0.0,0.0,0.0,0.0,0.0,0.0,0.0,0.0,0.0,0.0,0.0,0.0,0.0,0.0,0.0,0.0,0.0,0.0,0.0,0.0,0.0,0.0,0.0,0.0,0.0,0.0,0.0,0.0,0.0,0.0,0.0,0.0,0.0,0.0,0.0,0.0,0.0,0.0,0.0,0.0,0.0,0.0,0.0,0.0,0.0,0.0,0.0,0.0,0.0,0.0,0.0,0.0,0.0,0.0,0.0,0.0,0.0,0.0,0.0,0.0,0.0,0.0,0.0,0.0,0.0,0.0,0.0,0.0,0.0,-1.1086,-1.1618,-1.1997,-1.223,-1.2564,-1.2618,-1.2366,0.0,0.0,0.0,0.0,0.0,0.0,0.0,0.0,0.0,0.0,0.0,0.0,0.0,0.0,0.0,0.0,0.0,0.0,0.0,0.0,0.0,0.0,0.0,0.0,0.0,0.0,0.0,0.0,0.0,0.0,0.0,0.0,0.0,0.0,0.0,0.0,0.0,0.0,0.0,0.0,0.0,0.0,0.0,0.0,0.0,0.0,0.0,0.0,0.0,0.0,0.0,0.0,0.0,0.0,0.0,0.0,0.0,0.0,0.0,0.0,0.0,0.0,0.0,0.0,0.0,0.0,0.0,0.0,0.0,0.0,0.0,0.0,0.0,0.0,0.0,0.0,0.0,0.0,0.0,0.0,0.0,0.0,0.0,0.0,0.0,0.0,0.0,0.0,0.0,0.0,0.0,0.0,0.0,0.0,0.0,0.0,0.0,0.0,0.0,0.0,0.0,0.0,0.0,0.0,0.0,0.0,0.0,0.0,-0.9339,-1.0726,-1.1284,-1.1077,-1.2169,-1.2368,0.0,0.0,0.0,0.0,0.0,0.0,0.0,0.0,0.0,0.0,0.0,0.0,0.0,0.0,0.0,0.0,0.0,0.0,0.0,0.0,0.0,0.0,0.0,0.0,0.0,0.0,0.0,0.0,0.0,0.0,0.0,0.0,0.0,0.0,0.0,0.0,0.0,0.0,0.0,0.0,0.0,0.0,0.0,0.0,0.0,0.0,0.0,0.0,0.0,0.0,0.0,0.0,0.0,0.0,0.0,0.0,0.0,0.0,0.0,0.0,0.0,0.0,0.0,0.0,0.0,0.0,0.0,0.0,0.0,0.0,0.0,0.0,0.0,0.0,0.0,0.0,0.0,0.0,0.0,0.0,0.0,0.0,0.0,0.0,0.0,0.0,0.0,0.0,0.0,0.0,0.0,0.0,0.0,0.0,0.0,0.0,0.0,0.0,0.0,0.0,0.0,0.0,0.0,0.0,0.0,0.0,0.0,0.0,0.0,-0.8893,-0.9204,-0.9943,-1.113,-1.2043,-1.2554,0.0,0.0,0.0,0.0,0.0,0.0,0.0,0.0,0.0,0.0,0.0,0.0,0.0,0.0,0.0,0.0,0.0,0.0,0.0,0.0,0.0,0.0,0.0,0.0,0.0,0.0,0.0,0.0,0.0,0.0,0.0,0.0,0.0,0.0,0.0,0.0,0.0,0.0,0.0,0.0,0.0,0.0,0.0,0.0,0.0,0.0,0.0,0.0,0.0,0.0,0.0,0.0,0.0,0.0,0.0,0.0,0.0,0.0,0.0,0.0,0.0,0.0,0.0,0.0,0.0,0.0,0.0,0.0,0.0,0.0,0.0,0.0,0.0,0.0,0.0,0.0,0.0,0.0,0.0,0.0,0.0,0.0,0.0,0.0,0.0,0.0,0.0,0.0,0.0,0.0,0.0,0.0,0.0,0.0,0.0,0.0,0.0,0.0,0.0,0.0,0.0,0.0,0.0,0.0,0.0,0.0,0.0,0.0,-0.8414,-0.771,-0.7684,-0.8418,-0.9996,-1.1178,-1.2023,0.0,0.0,0.0,0.0,0.0,0.0,0.0,0.0,0.0,0.0,0.0,0.0,0.0,0.0,0.0,0.0,0.0,0.0,0.0,0.0,0.0,0.0,0.0,0.0,0.0,0.0,0.0,0.0,0.0,0.0,0.0,0.0,0.0,0.0,0.0,0.0,0.0,0.0,0.0,0.0,0.0,0.0,0.0,0.0,0.0,0.0,0.0,0.0,0.0,0.0,0.0,0.0,0.0,0.0,0.0,0.0,0.0,0.0,0.0,0.0,0.0,0.0,0.0,0.0,0.0,0.0,0.0,0.0,0.0,0.0,0.0,0.0,0.0,0.0,0.0,0.0,0.0,0.0,0.0,0.0,0.0,0.0,0.0,0.0,0.0,0.0,0.0,0.0,0.0,0.0,0.0,0.0,0.0,0.0,0.0,0.0,0.0,0.0,0.0,0.0,0.0,0.0,0.0,0.0,0.0,0.0,0.0,0.0,-0.7319,-0.6215,-0.629,-0.6959,-0.8266,-0.9946,-1.1112,0.0,0.0,0.0,0.0,0.0,0.0,0.0,0.0,0.0,0.0,0.0,0.0,0.0,0.0,0.0,0.0,0.0,0.0,0.0,0.0,0.0,0.0,0.0,0.0,0.0,0.0,0.0,0.0,0.0,0.0,0.0,0.0,0.0,0.0,0.0,0.0,0.0,0.0,0.0,0.0,0.0,0.0,0.0,0.0,0.0,0.0,0.0,0.0,0.0,0.0,0.0,0.0,0.0,0.0,0.0,0.0,0.0,0.0,0.0,0.0,0.0,0.0,0.0,0.0,0.0,0.0,0.0,0.0,0.0,0.0,0.0,0.0,0.0,0.0,0.0,0.0,0.0,0.0,0.0,0.0,0.0,0.0,0.0,0.0,0.0,0.0,0.0,0.0,0.0,0.0,0.0,0.0,0.0,0.0,0.0,0.0,0.0,0.0,0.0,0.0,0.0,0.0,0.0,0.0,0.0,0.0,0.0,0.0,-0.6501,-0.5562,-0.5775,-0.6404,-0.7422,-0.9047,-1.0546,0.0,0.0,0.0,0.0,0.0,0.0,0.0,0.0,0.0,0.0,0.0,0.0,0.0,0.0,0.0,0.0,0.0,0.0,0.0,0.0,0.0,0.0,0.0,0.0,0.0,0.0,0.0,0.0,0.0,0.0,0.0,0.0,0.0,0.0,0.0,0.0,0.0,0.0,0.0,0.0,0.0,0.0,0.0,0.0,0.0,0.0,0.0,0.0,-2.1726,0.0,0.0,0.0,0.0,0.0,0.0,0.0,0.0,0.0,0.0,0.0,0.0,0.0,0.0,0.0,0.0,0.0,0.0,0.0,0.0,0.0,0.0,0.0,0.0,0.0,0.0,0.0,0.0,0.0,0.0,0.0,0.0,0.0,0.0,0.0,0.0,0.0,0.0,0.0,0.0,0.0,0.0,0.0,0.0,0.0,0.0,0.0,0.0,0.0,0.0,0.0,0.0,0.0,0.0,0.0,0.0,0.0,0.0,0.0,-0.6105,-0.525,-0.5288,-0.589,-0.7076,-0.8178,-0.9669,0.0,0.0,0.0,0.0,0.0,0.0,0.0,0.0,0.0,0.0,0.0,0.0,0.0,0.0,0.0,0.0,0.0,0.0,0.0,0.0,0.0,0.0,0.0,0.0,0.0,0.0,0.0,0.0,0.0,0.0,0.0,0.0,0.0,0.0,0.0,0.0,0.0,0.0,0.0,0.0,0.0,0.0,0.0,0.0,0.0,0.0,0.0,0.0,0.0,0.0,0.0,0.0,0.0,0.0,0.0,0.0,0.0,0.0,0.0,0.0,0.0,0.0,0.0,0.0,0.0,0.0,0.0,0.0,0.0,0.0,0.0,0.0,0.0,0.0,0.0,0.0,0.0,0.0,0.0,0.0,0.0,0.0,0.0,0.0,0.0,0.0,0.0,0.0,0.0,0.0,0.0,0.0,0.0,0.0,0.0,0.0,0.0,0.0,0.0,0.0,0.0,0.0,0.0,0.0,0.0,0.0,0.0,-0.6159,-0.5748,-0.5019,-0.4805,-0.5417,-0.687,-0.7484,-0.8858,-1.1149,0.0,0.0,0.0,0.0,0.0,0.0,0.0,0.0,0.0,0.0,0.0,0.0,0.0,0.0,0.0,0.0,0.0,0.0,0.0,0.0,0.0,0.0,0.0,0.0,0.0,0.0,0.0,0.0,0.0,0.0,0.0,0.0,0.0,0.0,0.0,0.0,0.0,0.0,-2.0873,-2.2128,0.0,0.0,0.0,0.0,0.0,0.0,0.0,0.0,-2.3273,0.0,0.0,0.0,0.0,0.0,0.0,0.0,0.0,0.0,0.0,0.0,0.0,0.0,0.0,0.0,0.0,0.0,0.0,0.0,0.0,0.0,0.0,0.0,0.0,0.0,0.0,0.0,0.0,0.0,0.0,0.0,0.0,0.0,0.0,0.0,0.0,0.0,0.0,0.0,0.0,0.0,0.0,0.0,0.0,0.0,0.0,0.0,0.0,0.0,0.0,0.0,0.0,0.0,0.0,0.0,0.0,-0.5162,-0.4982,-0.4772,-0.4506,-0.4439,-0.5079,-0.6509,-0.7282,-0.8819,-1.1257,0.0,0.0,0.0,0.0,0.0,0.0,0.0,0.0,0.0,0.0,0.0,0.0,0.0,0.0,0.0,0.0,0.0,0.0,0.0,0.0,0.0,0.0,0.0,0.0,0.0,0.0,0.0,0.0,0.0,0.0,0.0,0.0,0.0,0.0,0.0,0.0,0.0,0.0,0.0,-2.1132,-2.1196,0.0,0.0,0.0,0.0,0.0,0.0,0.0,0.0,-2.2823,0.0,0.0,0.0,0.0,0.0,0.0,0.0,0.0,0.0,0.0,0.0,0.0,0.0,0.0,0.0,0.0,0.0,0.0,0.0,0.0,0.0,0.0,0.0,0.0,0.0,0.0,0.0,0.0,0.0,0.0,0.0,0.0,0.0,0.0,0.0,0.0,0.0,0.0,0.0,0.0,0.0,0.0,0.0,0.0,0.0,0.0,0.0,0.0,0.0,0.0,0.0,0.0,0.0,0.0,0.0,-0.4773,-0.4502,-0.4371,-0.4299,-0.4248,-0.4901,-0.6401,-0.7133,-0.8858,0.0,0.0,0.0,0.0,0.0,0.0,0.0,0.0,0.0,0.0,0.0,0.0,0.0,0.0,0.0,0.0,0.0,0.0,0.0,0.0,0.0,0.0,0.0,0.0,0.0,0.0,0.0,0.0,0.0,0.0,0.0,0.0,0.0,0.0,0.0,0.0,0.0,0.0,0.0,0.0,-2.1485,-2.1477,-2.1155,0.0,0.0,0.0,0.0,0.0,0.0,-2.2417,-2.2704,0.0,0.0,0.0,0.0,0.0,0.0,0.0,0.0,0.0,0.0,0.0,0.0,0.0,0.0,0.0,0.0,0.0,0.0,0.0,0.0,0.0,0.0,0.0,0.0,0.0,0.0,0.0,0.0,0.0,0.0,0.0,0.0,0.0,0.0,0.0,0.0,0.0,0.0,0.0,0.0,0.0,0.0,0.0,0.0,0.0,0.0,0.0,0.0,0.0,0.0,0.0,0.0,0.0,0.0,0.0,-0.4585,-0.4224,-0.4098,-0.4147,-0.4017,-0.4732,-0.628,-0.7054,-0.8934,0.0,0.0,0.0,0.0,0.0,0.0,0.0,0.0,0.0,0.0,0.0,0.0,0.0,0.0,0.0,0.0,0.0,0.0,0.0,0.0,0.0,0.0,0.0,0.0,0.0,0.0,0.0,0.0,0.0,0.0,0.0,0.0,0.0,0.0,0.0,0.0,0.0,0.0,0.0,0.0,0.0,-2.2104,-2.1521,-2.062,0.0,0.0,0.0,0.0,-2.1716,-2.2362,0.0,0.0,0.0,0.0,0.0,0.0,0.0,0.0,0.0,0.0,0.0,0.0,0.0,0.0,0.0,0.0,0.0,0.0,0.0,0.0,0.0,0.0,0.0,0.0,0.0,0.0,0.0,0.0,0.0,0.0,0.0,0.0,0.0,0.0,0.0,0.0,0.0,0.0,0.0,0.0,0.0,0.0,0.0,0.0,0.0,0.0,0.0,0.0,0.0,0.0,0.0,0.0,0.0,0.0,0.0,0.0,-0.4457,-0.3888,-0.3706,-0.3998,-0.3689,-0.4317,-0.6077,-0.7064,-0.887,0.0,0.0,0.0,0.0,0.0,0.0,0.0,0.0,0.0,0.0,0.0,0.0,0.0,0.0,0.0,0.0,0.0,0.0,0.0,0.0,0.0,0.0,0.0,0.0,0.0,0.0,0.0,0.0,0.0,0.0,0.0,0.0,0.0,0.0,0.0,0.0,0.0,0.0,0.0,0.0,0.0,-2.2422,-2.2282,-2.1204,-2.0465,0.0,0.0,-2.1148,-2.1043,-2.1465,0.0,0.0,0.0,0.0,0.0,0.0,0.0,0.0,0.0,0.0,0.0,0.0,0.0,0.0,0.0,0.0,0.0,0.0,0.0,0.0,0.0,0.0,0.0,0.0,0.0,0.0,0.0,0.0,0.0,0.0,0.0,0.0,0.0,0.0,0.0,0.0,0.0,0.0,0.0,0.0,0.0,0.0,0.0,0.0,0.0,0.0,0.0,0.0,0.0,0.0,0.0,0.0,0.0,0.0,0.0,-0.4537,-0.408,-0.3657,-0.3551,-0.378,-0.3685,-0.4334,-0.5785,-0.6862,-0.858,0.0,0.0,0.0,0.0,0.0,0.0,0.0,0.0,0.0,0.0,0.0,0.0,0.0,0.0,0.0,0.0,0.0,0.0,0.0,0.0,0.0,0.0,0.0,0.0,0.0,0.0,0.0,0.0,0.0,0.0,0.0,0.0,0.0,0.0,0.0,0.0,0.0,0.0,0.0,0.0,0.0,0.0,-2.1388,-2.0537,0.0,0.0,0.0,-2.1212,-2.1381,0.0,0.0,0.0,0.0,0.0,0.0,0.0,0.0,0.0,0.0,0.0,0.0,0.0,0.0,0.0,0.0,0.0,0.0,0.0,0.0,0.0,0.0,0.0,0.0,0.0,0.0,0.0,0.0,0.0,0.0,0.0,0.0,0.0,0.0,0.0,0.0,0.0,0.0,0.0,0.0,0.0,0.0,0.0,0.0,0.0,0.0,0.0,0.0,0.0,0.0,0.0,0.0,0.0,0.0,0.0,0.0,0.0,-0.369,-0.3438,-0.336,-0.3476,-0.3591,-0.4239,-0.5442,-0.6418,0.0,0.0,0.0,0.0,0.0,0.0,0.0,0.0,0.0,0.0,0.0,0.0,0.0,0.0,0.0,0.0,0.0,0.0,0.0,0.0,0.0,0.0,0.0,0.0,0.0,0.0,0.0,-1.4004,0.0,0.0,0.0,0.0,0.0,0.0,0.0,0.0,0.0,0.0,0.0,0.0,0.0,0.0,-2.0615,-2.0472,-1.9948,-1.9787,0.0,0.0,-2.0939,-2.1185,-2.0838,-2.0376,0.0,0.0,0.0,0.0,0.0,0.0,0.0,0.0,0.0,0.0,0.0,0.0,0.0,0.0,0.0,0.0,0.0,0.0,0.0,0.0,0.0,0.0,0.0,0.0,0.0,0.0,0.0,0.0,0.0,0.0,0.0,0.0,0.0,0.0,0.0,0.0,0.0,0.0,0.0,0.0,0.0,0.0,0.0,0.0,0.0,0.0,0.0,0.0,0.0,0.0,0.0,0.0,0.0,0.0,0.0,-0.3367,-0.3144,-0.3086,-0.3121,-0.3203,-0.385,-0.5078,-0.5688,-0.7131,0.0,0.0,0.0,0.0,0.0,0.0,0.0,0.0,0.0,0.0,0.0,0.0,0.0,0.0,0.0,0.0,0.0,0.0,0.0,0.0,0.0,0.0,0.0,0.0,0.0,0.0,0.0,0.0,0.0,0.0,0.0,0.0,0.0,0.0,0.0,0.0,0.0,0.0,0.0,0.0,0.0,-2.0666,-2.0118,-1.9889,-1.967,0.0,0.0,-1.9998,-1.9791,-1.9719,-1.9666,-1.9645,0.0,0.0,0.0,0.0,0.0,0.0,0.0,0.0,0.0,0.0,0.0,0.0,0.0,0.0,0.0,0.0,0.0,0.0,0.0,0.0,0.0,0.0,0.0,0.0,0.0,0.0,0.0,0.0,0.0,0.0,0.0,0.0,0.0,0.0,0.0,0.0,0.0,0.0,0.0,0.0,0.0,0.0,0.0,0.0,0.0,0.0,0.0,0.0,0.0,0.0,0.0,0.0,0.0,-0.3995,-0.4045,-0.3636,-0.3575,-0.3825,-0.3654,-0.4086,-0.5128,-0.6037,-0.7195,0.0,0.0,0.0,0.0,0.0,0.0,0.0,0.0,0.0,0.0,0.0,0.0,0.0,0.0,0.0,0.0,0.0,0.0,0.0,0.0,0.0,0.0,0.0,0.0,0.0,0.0,0.0,0.0,-1.4826,-1.526,-1.5531,0.0,0.0,0.0,0.0,0.0,0.0,0.0,0.0,0.0,0.0,-1.9436,-1.95,-1.9462,0.0,0.0,-1.9712,-1.9991,-1.9918,-1.9674,-1.9455,-1.9424,-1.8994,0.0,0.0,0.0,0.0,0.0,0.0,0.0,0.0,0.0,0.0,0.0,0.0,0.0,0.0,0.0,0.0,0.0,0.0,0.0,0.0,0.0,0.0,0.0,0.0,0.0,0.0,0.0,0.0,0.0,0.0,0.0,0.0,0.0,0.0,0.0,0.0,0.0,0.0,0.0,0.0,0.0,0.0,0.0,0.0,0.0,0.0,0.0,0.0,0.0,0.0,0.0,0.0,-0.3704,-0.4013,-0.3603,-0.3566,-0.3854,-0.3829,-0.4218,-0.5094,-0.5908,-0.6751,0.0,0.0,0.0,0.0,0.0,0.0,0.0,0.0,0.0,0.0,0.0,0.0,0.0,0.0,0.0,0.0,0.0,0.0,0.0,0.0,0.0,0.0,0.0,0.0,0.0,0.0,0.0,0.0,-1.5142,-1.5243,-1.5413,0.0,0.0,0.0,0.0,0.0,0.0,0.0,0.0,0.0,0.0,-1.7995,-1.8468,-1.8507,-1.8566,-1.8805,-1.9097,-1.9327,-1.9374,-1.9147,-1.8942,-1.8833,0.0,0.0,0.0,0.0,0.0,0.0,0.0,0.0,0.0,0.0,0.0,0.0,0.0,0.0,0.0,0.0,0.0,0.0,0.0,0.0,0.0,0.0,0.0,0.0,0.0,0.0,0.0,0.0,0.0,0.0,-0.9798,0.0,0.0,0.0,0.0,0.0,0.0,0.0,0.0,0.0,0.0,0.0,0.0,0.0,0.0,0.0,0.0,0.0,0.0,0.0,0.0,0.0,0.0,-0.3387,-0.2968,-0.2851,-0.2801,-0.2986,-0.3514,-0.4153,-0.4862,-0.5073,-0.5614,-0.6664,0.0,0.0,0.0,0.0,0.0,0.0,0.0,0.0,0.0,0.0,0.0,0.0,0.0,0.0,0.0,0.0,0.0,0.0,0.0,0.0,0.0,0.0,0.0,0.0,0.0,0.0,-1.5795,-1.5185,-1.4479,0.0,0.0,0.0,0.0,0.0,0.0,0.0,0.0,0.0,0.0,-1.6273,-1.6496,-1.6921,-1.6953,-1.7149,-1.7513,-1.7657,-1.7749,-1.78,-1.7934,-1.7944,0.0,0.0,0.0,0.0,0.0,0.0,0.0,0.0,0.0,0.0,0.0,0.0,0.0,0.0,0.0,0.0,0.0,0.0,0.0,0.0,0.0,0.0,0.0,0.0,0.0,0.0,0.0,-0.9796,-0.9745,0.0,0.0,0.0,0.0,0.0,0.0,0.0,0.0,0.0,0.0,0.0,-0.6544,-0.5887,0.0,0.0,0.0,0.0,0.0,0.0,0.0,0.0,0.0,0.0,0.0,0.0,-0.3804,-0.3936,-0.348,-0.336,-0.363,-0.3907,-0.4325,-0.4901,-0.5117,-0.6163,-0.8133,0.0,0.0,0.0,0.0,0.0,0.0,0.0,0.0,0.0,0.0,0.0,0.0,0.0,0.0,0.0,0.0,0.0,0.0,0.0,0.0,0.0,0.0,0.0,0.0,0.0,-1.4876,0.0,0.0,0.0,0.0,0.0,0.0,0.0,0.0,0.0,0.0,0.0,-1.6163,-1.6188,-1.6186,-1.631,-1.6725,-1.6878,-1.693,0.0,0.0,0.0,0.0,0.0,0.0,0.0,0.0,0.0,0.0,0.0,0.0,0.0,0.0,-1.5898,-1.5521,-1.4736,-1.3999,-1.3656,0.0,0.0,0.0,0.0,0.0,0.0,0.0,0.0,0.0,0.0,0.0,0.0,0.0,0.0,-0.9756,0.0,-0.9531,0.0,0.0,0.0,0.0,0.0,0.0,0.0,0.0,-0.6408,-0.5932,-0.5775,-0.5422,-0.517,0.0,-0.5008,-0.4746,0.0,0.0,0.0,0.0,0.0,0.0,0.0,0.0,-0.3553,-0.3538,-0.3348,-0.3367,-0.3635,-0.4128,-0.455,-0.4901,-0.5058,-0.6109,-0.808,-0.8364,-0.9155,0.0,0.0,0.0,0.0,0.0,0.0,0.0,0.0,0.0,0.0,0.0,0.0,0.0,0.0,0.0,0.0,0.0,0.0,0.0,0.0,0.0,0.0,0.0,-1.4323,0.0,0.0,0.0,0.0,0.0,0.0,0.0,0.0,0.0,-1.4662,-1.4804,-1.4861,-1.4944,-1.4866,-1.5003,-1.5488,0.0,0.0,0.0,0.0,0.0,0.0,0.0,-1.6369,-1.6401,-1.616,-1.5929,-1.5896,-1.5885,-1.5603,-1.4819,0.0,0.0,-1.5156,-1.4547,-1.3908,-1.3575,-1.3624,-1.3551,-1.2835,-1.2903,-1.3024,0.0,0.0,0.0,0.0,0.0,0.0,0.0,0.0,-1.0056,-0.9854,0.0,-0.9554,0.0,0.0,0.0,0.0,0.0,-0.6471,0.0,0.0,-0.5273,-0.4979,-0.4973,-0.4935,-0.4876,-0.4777,-0.4794,-0.4422,-0.3625,-0.346,0.0,0.0,0.0,0.0,0.0,0.0,-0.258,-0.1883,-0.2431,-0.2775,-0.2912,-0.4049,-0.4712,-0.4873,-0.4901,-0.5445,-0.6561,-0.7181,-0.8033,-0.9152,-1.019,0.0,0.0,0.0,0.0,0.0,0.0,0.0,0.0,0.0,0.0,0.0,0.0,0.0,0.0,0.0,0.0,0.0,0.0,0.0,0.0,-1.444,0.0,0.0,0.0,0.0,0.0,0.0,0.0,0.0,0.0,0.0,-1.2815,-1.2657,-1.2473,-1.2643,0.0,0.0,0.0,0.0,-1.3468,-1.4603,-1.4996,-1.504,-1.4882,-1.5005,-1.4871,-1.4148,0.0,0.0,-1.3803,-1.4261,-1.4563,-1.4399,-1.4055,-1.426,-1.5243,-1.4947,-1.4446,-1.377,-1.3553,-1.3108,-1.2206,-1.2048,-1.1987,-0.9067,0.0,0.0,0.0,0.0,-0.9929,-0.9985,-1.0193,-1.0002,-0.975,-0.931,-0.8729,0.0,0.0,0.0,0.0,0.0,0.0,-0.5609,-0.5444,-0.4848,-0.4543,-0.4543,-0.3917,-0.3626,-0.3563,-0.2953,-0.2501,-0.2277,-0.1794,-0.2149,-0.3234,0.0,0.0,0.0,0.0,-0.1892,-0.167,-0.1755,-0.2001,-0.2408,-0.3292,-0.407,-0.4743,-0.4739,-0.534,-0.6561,-0.6772,-0.7572,-0.9126,-0.9491,0.0,0.0,0.0,0.0,0.0,0.0,0.0,0.0,0.0,0.0,0.0,0.0,0.0,0.0,0.0,0.0,0.0,0.0,0.0,-1.295,-1.28,-1.2451,0.0,0.0,0.0,0.0,0.0,0.0,0.0,0.0,0.0,-1.1583,-1.2291,-1.2734,0.0,0.0,-1.2798,-1.2952,-1.2899,-1.2807,-1.2729,-1.3104,0.0,-1.3214,-1.3488,-1.3696,-1.3664,-1.352,-1.3302,-1.2859,-1.2808,-1.2719,-1.2297,-1.2156,-1.2219,-1.2516,-1.2965,-1.3184,-1.3054,-1.2964,-1.2709,-1.2152,-1.1981,-1.1905,-0.7688,-0.8817,-0.8736,-0.8694,-0.8685,-0.8652,-0.877,-0.8917,-0.8836,-0.8616,-0.8266,-0.7764,-0.7278,-0.6828,-0.6264,0.0,0.0,0.0,-0.5043,-0.4822,-0.4508,-0.4384,-0.4345,-0.3522,-0.3132,-0.3051,-0.2198,-0.1608,-0.1265,-0.0906,-0.0962,-0.1514,0.0,0.0,-0.2145,-0.172,-0.1347,-0.1069,-0.1301,-0.1651,-0.2199,-0.3147,-0.3935,-0.4467,-0.4494,-0.512,-0.6372,-0.6399,-0.7047,-0.8514,-0.8791,-0.9021,0.0,0.0,0.0,0.0,0.0,0.0,0.0,0.0,0.0,0.0,0.0,-1.2907,0.0,0.0,0.0,0.0,-1.2122,-1.2337,-1.2236,-1.2109,0.0,0.0,0.0,0.0,0.0,0.0,0.0,-1.1323,-1.0785,-1.0437,-1.0627,-1.1261,-1.1696,-1.1663,-1.1543,-1.1526,-1.1585,0.0,-1.1444,-1.137,-1.1735,-1.2004,-1.1944,-1.2221,-1.2372,-1.2311,-1.2204,-1.2094,-1.1884,-1.1703,-1.1534,-1.1369,-1.1284,-1.1284,-1.1284,-1.1776,-1.2182,-1.2283,-1.2383,-1.2281,-1.1957,-1.1774,-1.1616,-0.629,-0.6962,-0.7035,-0.6971,-0.6876,-0.7057,-0.7027,-0.6815,-0.7085,-0.6988,-0.6731,-0.6689,-0.6533,-0.6217,-0.5504,0.0,-0.4881,-0.4532,-0.4268,-0.4077,-0.4263,-0.4331,-0.4295,-0.3428,-0.2997,-0.2919,-0.21,-0.1285,-0.0468,-0.0467,-0.0193,0.0303,-0.0541,-0.1053,-0.1186,-0.1192,-0.0863,-0.0194,-0.091,-0.158,-0.2169,-0.3349,-0.4049,-0.4193,-0.4193,-0.4794,-0.61,-0.605,-0.6512,-0.7616,-0.8103,-0.8348,-0.8342,0.0,0.0,0.0,0.0,0.0,0.0,0.0,0.0,0.0,0.0,0.0,0.0,0.0,0.0,0.0,-1.1194,0.0,-1.1989,-1.2018,0.0,0.0,0.0,-1.015,-0.9934,-0.9849,-0.9827,-0.982,0.0,0.0,-0.9803,-0.983,-0.9921,-1.0117,-0.9696,-0.9491,-0.9725,-0.9622,-0.9664,-1.0415,-1.0716,-1.0858,-1.0926,-1.111,-1.1159,-1.076,-1.0475,-1.0642,-1.0848,-1.0828,-1.0936,-1.1067,-1.1175,-1.1164,-1.1181,-1.1192,-1.1278,-1.1541,-1.1786,-1.1889,-1.1615,-1.1423,-1.1174,-0.4908,-0.4862,-0.4956,-0.5799,-0.7107,-0.6939,-0.6841,-0.6804,-0.6848,-0.669,-0.6314,-0.5844,-0.5214,-0.4424,-0.423,-0.4115,-0.4078,-0.3986,-0.3919,-0.3876,-0.3844,-0.381,-0.373,-0.2728,-0.2035,-0.1591,-0.0629,0.0187,0.0724,0.0637,0.0604,0.0737,0.037,0.0,-0.0281,-0.0307,-0.0233,-0.0065,-0.0224,-0.0901,-0.2024,-0.3237,-0.3907,-0.4021,-0.4049,-0.4625,-0.5828,-0.5855,-0.6376,-0.7461,-0.7655,-0.7708,-0.7729,-0.8123,0.0,0.0,0.0,0.0,0.0,0.0,0.0,0.0,0.0,-1.1565,-1.0434,0.0,-1.135,0.0,-1.0395,-1.0791,-1.1202,-1.1133,0.0,0.0,-1.0343,-1.0176,-0.9935,-0.9877,-0.9664,-0.9041,-0.9392,-0.9506,-0.9046,-0.9244,-0.9426,-0.9436,-0.9504,-0.9509,-0.9383,-0.9237,-0.917,-0.9272,-0.9419,-0.9544,-0.9838,-1.0184,-1.0482,-1.0516,-1.0368,-1.0278,-1.0371,-1.0236,-1.0138,-1.0237,-1.0248,-1.0248,-1.0253,-1.0395,-1.0543,-1.0659,-1.1088,-1.1346,-1.0971,-1.0796,-1.0644,-0.4126,-0.3964,-0.4053,-0.4706,-0.5686,-0.553,-0.5458,-0.5458,-0.5458,-0.5345,-0.5121,-0.4768,-0.4343,-0.3802,-0.3802,-0.3802,-0.3802,-0.3802,-0.3781,-0.3699,-0.3648,-0.357,-0.3495,-0.227,-0.149,-0.1163,0.0146,0.0886,0.1171,0.1083,0.0984,0.0902,0.0794,0.0589,0.029,0.0245,0.0203,0.0132,-0.0227,-0.0907,-0.1911,-0.2822,-0.354,-0.3971,-0.3999,-0.4475,-0.5539,-0.5714,-0.6256,-0.7233,-0.7436,-0.7549,-0.7633,-0.7852,-0.8126,0.0,0.0,0.0,0.0,0.0,0.0,0.0,0.0,0.0,0.0,0.0,-1.0632,-0.991,-1.0191,-1.0478,-1.0688,-1.0705,-1.0539,-1.0033,-1.0061,-0.9876,-0.9229,-0.9283,-0.9041,-0.8275,-0.8466,-0.8542,-0.8232,-0.8369,-0.8411,-0.8313,-0.8643,-0.8888,-0.8912,-0.8953,-0.8942,-0.8717,-0.8826,-0.9036,-0.9281,-0.9643,-0.9983,-1.02,-1.0143,-1.0067,-1.0067,-0.9997,-0.9884,-0.9884,-0.9884,-0.9884,-0.9889,-1.0024,-1.0049,-0.9717,-0.9873,-1.0058,-0.9959,-0.9635,-0.9213,-0.3802,-0.3802,-0.3802,-0.3802,-0.3802,-0.3802,-0.3802,-0.3802,-0.3802,-0.3802,-0.3802,-0.3802,-0.3802,-0.3802,-0.3802,-0.3802,-0.3802,-0.3802,-0.3681,-0.3453,-0.3432,-0.3352,-0.3149,-0.1815,-0.1123,-0.0981,0.0401,0.1145,0.1173,0.1208,0.1109,0.0941,0.0958,0.0871,0.068,0.0688,0.0557,0.0337,-0.0458,-0.1161,-0.1787,-0.2366,-0.31,-0.3925,-0.3986,-0.4358,-0.5196,-0.5502,-0.6078,-0.6897,-0.723,-0.7504,-0.7677,-0.7706,-0.7884,0.0,-0.8257,0.0,0.0,0.0,0.0,0.0,0.0,0.0,0.0,-0.9636,-0.9598,-0.9786,-1.0101,-1.0224,-1.0109,-1.0387,-1.0204,-0.9464,-0.9537,-0.9225,-0.8259,-0.8318,-0.8161,-0.7345,-0.7306,-0.7345,-0.7272,-0.731,-0.7285,-0.715,-0.7556,-0.7928,-0.8206,-0.8596,-0.8851,-0.8592,-0.8809,-0.9053,-0.9246,-0.9468,-0.9689,-0.9863,-0.9922,-0.9884,-0.9922,-0.9884,-0.9884,-0.9884,-0.9884,-0.9884,-0.9884,-0.9809,-0.9511,-0.8908,-0.8574,-0.8505,-0.8751,-0.8396,-0.7729,-0.3802,-0.3802,-0.3802,-0.3802,-0.3802,-0.3802,-0.3802,-0.3802,-0.3802,-0.3802,-0.3802,-0.3802,-0.3802,-0.3802,-0.3802,-0.3802,-0.3802,-0.3802,-0.3402,-0.2685,-0.2652,-0.2254,-0.1571,-0.1079,-0.0606,-0.0146,0.0328,0.0775,0.1173,0.1187,0.1203,0.1216,0.1189,0.1136,0.1098,0.0,0.0,0.0,-0.0261,-0.0992,-0.1706,-0.2314,-0.3045,-0.387,-0.3815,0.0,-0.4837,-0.4958,-0.5476,-0.6538,-0.6773,0.0,0.0,0.0,0.0,0.0,0.0,0.0,0.0,0.0,0.0,0.0,-0.9057,-0.9131,-0.9236,-0.9156,-0.9166,-0.9244,-0.9101,-0.902,-0.9015,-0.9049,-0.8836,-0.823,-0.8181,-0.791,-0.7183,-0.713,-0.6846,-0.6083,-0.6388,-0.6503,-0.6083,-0.6391,-0.6634,-0.6566,-0.6863,-0.6948,-0.6827,-0.7981,-0.8877,-0.9053,-0.8984,-0.9182,-0.947,-0.9487,-0.9573,-0.9857,-0.9884,-0.9868,-0.9857,-0.9873,-0.9879,-0.9873,-0.9884,-0.9884,-0.9846,-0.9387,-0.8856,-0.8699,-0.7587,-0.6903,-0.7624,-0.7671,-0.7543,-0.3215,0.0,-0.3176,-0.3176,0.0,-0.3137,-0.3137,-0.3176,-0.3647,-0.3686,-0.3452,-0.3255,-0.3176,-0.3136,-0.3176,-0.3057,-0.2862,-0.2782,-0.2336,-0.1652,-0.1555,-0.1236,-0.0726,-0.0349,-0.0035,0.021,0.063,0.0924,0.1129,0.1151,0.1167,0.125,0.1234,0.1197,0.1173,0.1174,0.1028,0.0687,0.02,-0.0392,-0.1029,-0.1616,-0.2328,-0.3174,-0.34,0.0,0.0,0.0,0.0,0.0,0.0,0.0,0.0,0.0,0.0,-0.7144,-0.7149,-0.752,-0.8332,-0.8402,-0.8391,-0.8408,-0.8201,-0.8231,-0.8534,-0.8749,-0.8798,-0.8773,-0.8731,-0.8585,-0.828,-0.8241,-0.8008,-0.7387,-0.731,-0.7042,-0.6349,-0.6192,-0.5886,-0.5196,-0.5273,-0.5348,-0.504,-0.5234,-0.544,-0.5492,-0.5819,-0.6027,-0.6079,-0.7134,-0.8018,-0.8085,-0.7971,-0.8057,-0.8478,-0.8649,-0.8913,-0.9321,-0.9494,-0.9567,-0.9567,-0.9669,-0.975,-0.9723,-0.9498,-0.9306,-0.9112,-0.8499,-0.7821,-0.7238,-0.6507,-0.5851,-0.6002,-0.6121,-0.624,-0.2588,-0.2746,-0.2549,-0.251,-0.251,-0.251,-0.251,-0.2549,0.0,0.0,0.0,-0.2628,-0.2431,-0.2352,-0.2352,-0.2078,-0.1685,-0.1488,-0.1124,-0.0569,-0.0442,-0.0252,0.0,0.0481,0.0645,0.058,0.1126,0.1311,0.1199,0.1164,0.1212,0.1273,0.1239,0.1179,0.1202,0.1204,0.1106,0.0954,0.0688,0.0234,-0.0487,-0.0941,-0.1654,-0.2657,-0.3049,-0.3444,-0.3787,-0.4225,-0.4567,-0.4785,-0.5196,-0.5572,-0.5785,-0.5829,-0.6056,-0.652,-0.6571,-0.6859,-0.7508,-0.7521,-0.7534,-0.7565,-0.7269,-0.7257,-0.765,-0.8128,-0.8288,-0.7943,-0.8152,-0.8093,-0.7472,-0.7395,-0.7122,-0.65,-0.6423,-0.6115,-0.5428,-0.5273,-0.5002,-0.4423,-0.4345,-0.4307,-0.4307,-0.4345,-0.4307,-0.438,-0.4779,-0.5125,-0.5383,-0.632,-0.711,-0.7015,-0.701,-0.6979,-0.7276,-0.7608,-0.7916,-0.8433,-0.8659,-0.8801,-0.8872,-0.8995,-0.9133,-0.9042,-0.8703,-0.8329,-0.8114,-0.7464,-0.6661,-0.5777,-0.547,-0.5198,-0.4616,-0.4662,-0.4937,-0.251,-0.2549,-0.251,-0.251,-0.251,-0.251,-0.251,-0.251,-0.2627,-0.2628,-0.2588,-0.251,-0.2195,-0.1724,-0.1724,-0.1371,-0.0783,-0.0744,-0.0313,0.0389,0.0371,0.0735,0.1494,0.1534,0.1517,0.1513,0.1586,0.1625,0.1595,0.1449,0.1453,0.1566,0.1348,0.1205,0.1172,0.1173,0.1205,0.1159,0.0953,0.0241,-0.0969,-0.1069,-0.1837,-0.3274,-0.3241,-0.3411,-0.3792,-0.3861,-0.4172,-0.468,-0.4846,-0.5088,-0.5457,-0.5496,-0.5499,-0.5357,-0.5337,-0.5469,-0.5757,-0.577,-0.5823,-0.5895,-0.5889,-0.6005,-0.6409,-0.7019,-0.7,-0.6133,-0.658,-0.6633,-0.6009,-0.5931,-0.5702,-0.5124,-0.5007,-0.4737,-0.419,-0.4112,-0.4073,-0.3958,-0.3878,-0.3919,-0.3919,-0.3919,-0.3917,-0.3904,-0.4101,-0.4176,-0.4562,-0.5784,-0.6706,-0.6825,-0.6951,-0.6966,-0.6834,-0.7064,-0.7117,-0.7097,-0.725,-0.7466,-0.7597,-0.7521,-0.7488,-0.7533,-0.7359,-0.7107,-0.6992,-0.6384,-0.5812,-0.5428,-0.5004,-0.4538,-0.4345,-0.4426,-0.4465,-0.1924,-0.2002,-0.1884,-0.1845,-0.1845,-0.1845,-0.1649,-0.1334,-0.1294,-0.1647,-0.2079,-0.1569,-0.1138,-0.0863,-0.0549,-0.0118,0.0431,0.0549,0.0901,0.1445,0.1491,0.1687,0.2031,0.2006,0.1897,0.1816,0.1817,0.1746,0.1641,0.1537,0.1572,0.1643,0.1523,0.1463,0.1464,0.1376,0.1312,0.1312,0.1101,0.0696,0.0103,-0.0474,-0.121,-0.2185,-0.2691,-0.3162,-0.3573,-0.3624,-0.3753,-0.3988,-0.4005,-0.4129,-0.4293,-0.4327,-0.448,-0.4803,-0.482,-0.5024,-0.5489,-0.5495,-0.5369,-0.5157,-0.5085,-0.5043,-0.4885,-0.5777,-0.6121,-0.5661,-0.5896,-0.5822,-0.5201,-0.5124,-0.4851,-0.4268,-0.4192,-0.4114,-0.3882,-0.3802,-0.3802,-0.3802,-0.3802,-0.3802,-0.3802,-0.3802,-0.3777,-0.3693,-0.3653,-0.3653,-0.3717,-0.4429,-0.5098,-0.5192,-0.532,-0.5456,-0.5576,-0.5754,-0.5924,-0.6132,-0.6319,-0.648,-0.6636,-0.657,-0.6667,-0.6764,-0.6443,-0.615,-0.5996,-0.5348,-0.4849,-0.4616,-0.4384,-0.4075,-0.4073,-0.4075,-0.4151,-0.0943,-0.11,-0.0943,-0.0864,-0.0864,-0.0864,-0.0589,-0.0118,-0.0079,-0.0549,-0.1176,-0.0471,0.0,0.0196,0.0628,0.1099,0.1571,0.1726,0.1959,0.2225,0.2278,0.2297,0.2285,0.2211,0.2119,0.1987,0.1963,0.1861,0.1751,0.1692,0.1658,0.1619,0.1684,0.1702,0.1667,0.1534,0.1445,0.1444,0.1274,0.1086,0.091,0.0102,-0.0605,-0.1245,-0.2126,-0.2811,-0.3267,-0.3401,-0.3416,-0.3401,-0.3379,-0.3387,-0.3428,-0.343,-0.3716,-0.4281,-0.4402,-0.4642,-0.511,-0.5196,-0.5004,-0.4543,-0.4504,-0.4311,-0.3958,-0.4654,-0.5198,-0.5198,-0.5315,-0.516,-0.4621,-0.4506,-0.4309,-0.388,-0.3802,-0.3841,-0.3802,-0.3802,-0.3802,-0.3802,-0.3802,-0.3802,-0.38,-0.3783,-0.3693,-0.3597,-0.3477,-0.3437,-0.342,-0.3455,-0.3573,-0.3739,-0.3865,-0.4122,-0.4376,-0.4557,-0.4803,-0.5253,-0.5383,-0.5509,-0.5607,-0.5788,-0.5904,-0.5793,-0.5516,-0.5148,-0.496,-0.4499,-0.4077,-0.3958,-0.388,-0.3849,-0.3876,-0.3866,-0.3922,0.0393,0.0393,0.0393,0.0432,0.0393,0.0393,0.0432,0.0511,0.0511,0.0471,0.0392,0.0471,0.0863,0.1372,0.145,0.1803,0.2314,0.2392,0.2431,0.2458,0.2352,0.2299,0.2291,0.2214,0.2188,0.2165,0.2177,0.2142,0.2101,0.2004,0.1828,0.1652,0.1786,0.1794,0.1627,0.1667,0.1655,0.1689,0.1474,0.1051,0.042,0.0273,-0.0336,-0.1547,-0.1821,-0.2329,-0.2978,-0.3145,-0.3289,-0.3385,-0.3287,-0.3283,-0.346,-0.3487,-0.3528,-0.3697,-0.3778,-0.3912,-0.3958,-0.3995,-0.3958,-0.3882,-0.388,-0.3882,-0.3802,-0.3919,-0.3997,-0.4114,-0.4504,-0.4504,-0.3997,-0.3919,-0.3919,-0.3841,-0.3802,-0.3802,-0.3802,-0.3802,-0.3802,-0.3802,-0.3802,-0.3802,-0.3795,-0.3697,-0.3614,-0.3548,-0.3503,-0.3471,-0.3503,-0.3443,-0.3455,-0.3551,-0.3706,-0.3862,-0.393,-0.397,-0.4104,-0.409,-0.4098,-0.4294,-0.4485,-0.4365,-0.4135,-0.4686,-0.4329,-0.4148,-0.4073,-0.3841,-0.3884,-0.3824,-0.3828,-0.3795,-0.3869,-0.3938,-0.3975,0.0629,0.0629,0.0629,0.0629,0.0629,0.0629,0.0825,0.1176,0.1216,0.1372,0.1726,0.1727,0.1686,0.1645,0.1959,0.2273,0.251,0.251,0.251,0.2503,0.2385,0.2348,0.2338,0.2301,0.2262,0.2262,0.2252,0.2249,0.227,0.2215,0.2142,0.2051,0.2119,0.2068,0.197,0.1917,0.1859,0.1786,0.162,0.1378,0.1115,0.058,0.0,-0.064,-0.1367,-0.2032,-0.2551,-0.2971,-0.3276,-0.3365,-0.3328,-0.3234,-0.3093,-0.3107,-0.3094,-0.2982,-0.3018,-0.3018,-0.302,-0.302,-0.3096,-0.3176,-0.3333,-0.345,-0.3604,-0.3724,-0.3802,-0.3841,-0.4036,-0.4036,-0.3841,-0.3802,-0.3802,-0.3802,-0.3802,-0.3802,-0.3802,-0.3802,-0.3802,-0.3802,-0.3802,-0.3802,-0.3789,-0.3683,-0.3616,-0.3571,-0.3538,-0.3505,-0.3499,-0.3467,-0.3487,-0.3546,-0.3648,-0.3692,-0.3655,-0.3679,-0.3702,-0.371,-0.3711,-0.3785,-0.3896,-0.3885,-0.3841,-0.3921,-0.3849,-0.3808,-0.388,-0.3808,-0.3812,-0.3857,-0.3899,-0.3938,-0.3973,-0.3968,-0.3989,0.1139,0.1139,0.1139,0.1099,0.1139,0.1139,0.1412,0.1843,0.1842,0.2078,0.247,0.251,0.2273,0.1959,0.2313,0.251,0.251,0.251,0.251,0.2503,0.2447,0.242,0.2377,0.2324,0.2297,0.23,0.2314,0.232,0.2319,0.2304,0.2297,0.2297,0.2297,0.2277,0.2238,0.2127,0.2056,0.2016,0.1795,0.1752,0.1674,0.1065,0.0542,0.0168,-0.0686,-0.142,-0.2008,-0.2611,-0.3039,-0.3293,-0.3326,-0.3163,-0.2802,-0.2836,-0.2771,-0.2551,-0.2485,-0.251,-0.251,-0.251,-0.2549,-0.2707,-0.2863,-0.3022,-0.3214,-0.3411,-0.3528,-0.3606,-0.3684,-0.3724,-0.3802,-0.3802,-0.3802,-0.3802,-0.3802,-0.3802,-0.3802,-0.3802,-0.3802,-0.3802,-0.3802,-0.3789,-0.3726,-0.3687,-0.3658,-0.3584,-0.3573,-0.355,-0.356,-0.356,-0.3565,-0.3648,-0.3663,-0.364,-0.3585,-0.3622,-0.3605,-0.3634,-0.3671,-0.3732,-0.3791,-0.38,-0.3802,-0.3882,-0.382,-0.3845,-0.3866,-0.3864,-0.389,-0.3928,-0.4006,-0.4065,-0.4073,-0.4047,-0.4067,0.2431,0.2392,0.2392,0.2315,0.2392,0.2354,0.2393,0.2392,0.2431,0.247,0.251,0.251,0.247,0.2431,0.247,0.251,0.251,0.251,0.251,0.2504,0.245,0.2421,0.2378,0.2326,0.2303,0.2318,0.2359,0.2378,0.2377,0.2328,0.2297,0.2303,0.2308,0.2301,0.2295,0.2295,0.2295,0.2247,0.2093,0.1996,0.1965,0.1751,0.1348,0.0847,0.0371,-0.0338,-0.1249,-0.1922,-0.2461,-0.2963,-0.308,-0.3006,-0.273,-0.2803,-0.2683,-0.2488,-0.2468,-0.2472,-0.2431,-0.2353,-0.2392,-0.2431,-0.2352,-0.247,-0.243,-0.2627,-0.2787,-0.3066,-0.3185,-0.3418,-0.3622,-0.3694,-0.3804,-0.3802,-0.3802,-0.3802,-0.3802,-0.3802,-0.3802,-0.3802,-0.3802,-0.3777,-0.3661,-0.3746,-0.3703,-0.3661,-0.3626,-0.3644,-0.3736,-0.3667,-0.3667,-0.3756,-0.3787,-0.3791,-0.3787,-0.3748,-0.376,-0.3775,-0.3767,-0.3787,-0.3795,-0.3802,-0.3806,-0.3828,-0.385,-0.3889,-0.3908,-0.3944,-0.3995,-0.4055,-0.411,-0.4155,-0.4165,-0.4236,-0.4249,0.251,0.251,0.251,0.251,0.251,0.251,0.251,0.251,0.251,0.251,0.251,0.251,0.251,0.251,0.251,0.251,0.251,0.251,0.251,0.2508,0.2488,0.2478,0.2437,0.2417,0.2409,0.2413,0.2429,0.2477,0.2476,0.2455,0.241,0.2409,0.2447,0.2391,0.2359,0.2352,0.2336,0.23,0.224,0.2195,0.2195,0.2123,0.1969,0.1736,0.108,0.0448,-0.0069,-0.0621,-0.1241,-0.1928,-0.1959,-0.2026,-0.205,-0.1914,-0.1782,-0.1719,-0.1728,-0.157,-0.1177,-0.1099,-0.0981,-0.0744,-0.0822,-0.098,-0.1096,-0.1293,-0.1459,-0.1677,-0.1764,-0.1933,-0.2314,-0.3115,-0.3802,-0.3802,-0.3804,-0.3732,-0.3802,-0.3802,-0.3802,-0.3802,-0.3802,-0.3785,-0.3689,-0.3781,-0.3787,-0.3722,-0.3714,-0.3767,-0.3785,-0.3769,-0.3762,-0.3789,-0.3802,-0.3802,-0.3802,-0.38,-0.38,-0.38,-0.38,-0.38,-0.3806,-0.3861,-0.388,-0.3867,-0.3928,-0.3987,-0.401,-0.4059,-0.4112,-0.4136,-0.4193,-0.4226,-0.4255,-0.4281,-0.4293,0.251,0.251,0.251,0.251,0.251,0.251,0.251,0.251,0.251,0.251,0.251,0.251,0.2588,0.2668,0.2628,0.2628,0.2668,0.2549,0.251,0.251,0.251,0.251,0.251,0.251,0.251,0.2508,0.251,0.2519,0.2535,0.2519,0.252,0.2538,0.2522,0.2491,0.2415,0.241,0.2428,0.2358,0.2336,0.2327,0.2326,0.2326,0.2326,0.2247,0.1704,0.118,0.0852,0.0355,-0.0213,-0.0887,-0.1008,-0.1132,-0.133,-0.1323,-0.1158,-0.1019,-0.0982,-0.0707,-0.0118,0.0,0.0078,0.0353,0.0316,0.0159,0.004,-0.016,-0.0323,-0.0491,-0.0616,-0.0745,-0.1206,-0.2123,-0.2846,-0.2926,-0.2965,-0.2965,-0.2964,-0.2947,-0.2925,-0.2904,-0.286,-0.3017,-0.3253,-0.3331,-0.3448,-0.3645,-0.3763,-0.3802,-0.3802,-0.3802,-0.3802,-0.3802,-0.3802,-0.3802,-0.3804,-0.3806,-0.3808,-0.381,-0.3816,-0.3816,-0.3851,-0.3871,-0.3924,-0.3952,-0.4004,-0.4069,-0.4126,-0.4173,-0.4197,-0.421,-0.4236,-0.4271,-0.4285,-0.4291,-0.4297,0.2549,0.2588,0.251,0.2588,0.2627,0.2627,0.2549,0.2627,0.2588,0.2668,0.2666,0.2588,0.2824,0.3023,0.2951,0.295,0.3031,0.2843,0.2638,0.255,0.2549,0.2549,0.251,0.251,0.2515,0.252,0.2516,0.2548,0.2598,0.2557,0.2553,0.2579,0.2542,0.2515,0.2508,0.2501,0.2504,0.2486,0.2444,0.2382,0.242,0.242,0.2383,0.2421,0.2301,0.1979,0.1353,0.0983,0.0545,0.0,-0.0219,-0.0516,-0.0719,-0.0969,-0.0904,-0.0394,-0.0276,0.0,0.0512,0.0632,0.0633,0.0833,0.0763,0.0853,0.0854,0.0702,0.0543,0.0378,0.0168,-0.0126,-0.0464,-0.0716,-0.1006,-0.1216,-0.1501,-0.15,-0.1415,-0.1275,-0.1249,-0.1466,-0.1541,-0.1611,-0.2082,-0.2491,-0.2814,-0.3286,-0.3638,-0.3801,-0.3849,-0.3849,-0.382,-0.3822,-0.3849,-0.3874,-0.3841,-0.381,-0.3814,-0.3818,-0.3828,-0.3839,-0.3865,-0.3926,-0.3995,-0.4034,-0.411,-0.4173,-0.4206,-0.4249,-0.4257,-0.4271,-0.4295,-0.4253,-0.4297,-0.4297,-0.4297,0.3409,0.3372,0.3372,0.3411,0.3372,0.3409,0.3411,0.3411,0.3372,0.3411,0.337,0.3411,0.345,0.3545,0.3548,0.3576,0.3662,0.3585,0.3275,0.284,0.2866,0.2829,0.271,0.2552,0.2533,0.2574,0.2616,0.2644,0.2657,0.2643,0.2628,0.2601,0.2583,0.2511,0.2518,0.251,0.251,0.2507,0.2492,0.2482,0.2482,0.2481,0.2482,0.2482,0.2481,0.2357,0.2147,0.196,0.1607,0.1047,0.0987,0.0731,0.0272,0.0119,0.0201,0.0362,0.0449,0.07,0.1276,0.1399,0.1562,0.1896,0.2031,0.2079,0.208,0.2012,0.1865,0.1714,0.1677,0.1513,0.1315,0.1275,0.0564,-0.1012,-0.1177,-0.1052,-0.101,-0.1086,-0.1203,-0.1237,-0.1234,-0.1316,-0.1521,-0.185,-0.2376,-0.2826,-0.336,-0.3732,-0.3901,-0.3889,-0.3909,-0.395,-0.395,-0.3842,-0.3784,-0.3772,-0.3774,-0.3841,-0.3831,-0.3881,-0.3938,-0.3995,-0.4061,-0.3998,-0.4071,-0.407,-0.4105,-0.4074,-0.3894,-0.4074,-0.403,-0.4074,-0.4253,-0.4119,-0.3849,0.3802,0.3802,0.3802,0.3802,0.3802,0.3802,0.3802,0.3802,0.3802,0.3802,0.3806,0.3839,0.3972,0.4071,0.411,0.411,0.4203,0.438,0.4092,0.343,0.3343,0.3222,0.302,0.2698,0.2595,0.2634,0.2674,0.2704,0.2725,0.2703,0.2683,0.2669,0.2646,0.2619,0.2576,0.2555,0.2545,0.2541,0.2522,0.251,0.251,0.251,0.251,0.251,0.251,0.251,0.2508,0.2434,0.2261,0.1922,0.1712,0.1416,0.1034,0.0846,0.0815,0.1029,0.1165,0.1428,0.1977,0.2056,0.2229,0.2611,0.2713,0.2725,0.273,0.2741,0.2694,0.2633,0.2552,0.2523,0.2325,0.2288,0.1549,0.0303,0.0172,0.0043,0.0043,0.0,0.0085,0.0168,0.0126,-0.0084,-0.042,-0.1051,-0.168,-0.2184,-0.2982,-0.3653,-0.3781,-0.3775,-0.3785,-0.3659,-0.3514,-0.3505,-0.3686,-0.373,-0.3771,-0.3833,-0.389,-0.3954,-0.4036,-0.4087,-0.4103,-0.3629,-0.351,-0.3067,-0.3042,-0.2908,-0.2818,-0.3176,-0.3357,-0.2998,-0.2728,-0.2907,-0.2818,0.3882,0.3882,0.388,0.3919,0.3958,0.3921,0.3966,0.3932,0.3973,0.3981,0.4003,0.4074,0.4272,0.4577,0.458,0.4583,0.4755,0.4989,0.487,0.4429,0.413,0.3787,0.3338,0.2928,0.2731,0.2696,0.271,0.2781,0.2827,0.2744,0.2728,0.2802,0.2718,0.2692,0.2668,0.2631,0.2606,0.26,0.2556,0.2533,0.2533,0.2529,0.2529,0.2531,0.2534,0.2535,0.2537,0.2533,0.2523,0.2438,0.1969,0.1752,0.162,0.114,0.124,0.1768,0.177,0.2076,0.2538,0.2637,0.2635,0.2726,0.2806,0.2789,0.2793,0.2826,0.2853,0.2862,0.2865,0.278,0.2603,0.2515,0.2329,0.2242,0.1826,0.1813,0.2009,0.1915,0.173,0.1832,0.2028,0.1859,0.1061,0.0255,-0.0509,-0.1271,-0.2206,-0.2804,-0.306,-0.2984,-0.3215,-0.3009,-0.2604,-0.2566,-0.2536,-0.2579,-0.258,-0.2664,-0.2942,-0.3287,-0.3517,-0.3597,-0.346,-0.3016,-0.268,-0.2236,-0.2013,-0.2013,-0.1923,-0.2013,-0.1834,-0.1342,-0.1476,-0.1834,-0.2013,0.4704,0.4662,0.4662,0.4665,0.4701,0.4704,0.4752,0.4813,0.4821,0.4824,0.4936,0.5018,0.4992,0.517,0.5194,0.5245,0.5304,0.5458,0.5506,0.5329,0.5107,0.4362,0.3562,0.312,0.2928,0.2806,0.2796,0.2878,0.2892,0.2826,0.2809,0.2825,0.277,0.2737,0.2695,0.2679,0.2669,0.2669,0.2654,0.264,0.2639,0.2639,0.2644,0.2644,0.2642,0.264,0.2643,0.2644,0.2621,0.258,0.2457,0.2361,0.2371,0.2239,0.2221,0.237,0.2535,0.2603,0.2779,0.2866,0.2867,0.287,0.2875,0.285,0.2895,0.2908,0.292,0.292,0.292,0.2875,0.2785,0.2785,0.2739,0.2694,0.2424,0.2238,0.2182,0.2181,0.2175,0.2164,0.2203,0.2067,0.1801,0.123,0.0527,0.0,-0.0745,-0.1445,-0.1746,-0.1746,-0.1785,-0.1535,-0.1235,-0.1278,-0.1279,-0.1323,-0.1323,-0.1326,-0.1627,-0.2096,-0.2319,-0.2457,-0.2214,-0.1788,-0.1653,-0.1297,-0.1431,-0.1522,-0.1297,-0.0761,-0.0984,-0.085,-0.1163,-0.1477,-0.1432,0.5018,0.5021,0.5069,0.5089,0.5094,0.5143,0.5203,0.5254,0.5306,0.5301,0.5413,0.5428,0.5445,0.5458,0.5526,0.5583,0.5594,0.5656,0.5683,0.5641,0.5455,0.4766,0.3915,0.3505,0.3213,0.2998,0.29,0.2915,0.2918,0.292,0.2897,0.2874,0.282,0.2803,0.2819,0.2741,0.273,0.2726,0.271,0.2694,0.2694,0.2694,0.2692,0.2692,0.2694,0.2694,0.2692,0.2692,0.2674,0.2646,0.2642,0.2668,0.2725,0.2762,0.2794,0.2818,0.29,0.2873,0.292,0.292,0.292,0.2918,0.292,0.292,0.2918,0.292,0.292,0.292,0.292,0.292,0.292,0.292,0.292,0.283,0.2649,0.2515,0.247,0.2512,0.2513,0.247,0.247,0.247,0.247,0.184,0.1345,0.0894,0.0134,-0.0357,-0.0624,-0.0447,-0.0358,-0.0268,-0.0134,-0.0178,-0.0356,-0.04,-0.0444,-0.0446,-0.0267,-0.0755,-0.1198,-0.133,-0.1069,-0.0806,-0.0626,-0.0447,-0.0358,-0.0224,0.0269,0.0448,-0.0045,-0.0224,-0.0269,-0.0627,-0.0627,0.5018,0.499,0.5137,0.5186,0.52,0.5355,0.536,0.5427,0.5388,0.5401,0.5445,0.5483,0.5524,0.5532,0.5623,0.5683,0.5683,0.5683,0.5819,0.5819,0.5727,0.5299,0.4802,0.3918,0.3616,0.3395,0.3094,0.3186,0.332,0.3232,0.3053,0.3087,0.3044,0.2915,0.2889,0.2813,0.2794,0.2785,0.2753,0.2734,0.2733,0.2733,0.2736,0.2734,0.2734,0.2732,0.2728,0.2722,0.2718,0.2713,0.2706,0.2776,0.2827,0.2838,0.286,0.29,0.2915,0.292,0.292,0.292,0.292,0.292,0.292,0.292,0.292,0.292,0.292,0.292,0.292,0.292,0.292,0.292,0.292,0.2875,0.2875,0.2875,0.292,0.292,0.292,0.292,0.292,0.292,0.2739,0.2379,0.184,0.1793,0.121,0.094,0.0761,0.0806,0.0716,0.0537,0.0672,0.0852,0.0627,0.0447,0.0402,0.0402,0.0805,0.058,-0.0045,-0.0179,0.0,0.0224,0.0537,0.0941,0.1389,0.166,0.1749,0.1524,0.0941,0.1165,0.1436,0.0807,0.0582,0.5018,0.5026,0.514,0.5186,0.5205,0.5358,0.5426,0.5467,0.5467,0.5559,0.564,0.5637,0.5645,0.5645,0.5675,0.5688,0.5733,0.5777,0.5997,0.6564,0.6561,0.6561,0.6027,0.483,0.4117,0.4072,0.3496,0.3807,0.452,0.3942,0.3631,0.3853,0.3318,0.3051,0.2913,0.2858,0.2899,0.2897,0.2881,0.2826,0.2823,0.2823,0.2824,0.2824,0.2827,0.2875,0.2878,0.2879,0.2879,0.2868,0.2794,0.2834,0.2879,0.2893,0.2902,0.2913,0.292,0.292,0.292,0.292,0.292,0.292,0.292,0.292,0.292,0.292,0.292,0.292,0.292,0.2921,0.2926,0.2922,0.2928,0.2931,0.2926,0.2922,0.292,0.292,0.292,0.292,0.292,0.292,0.292,0.2785,0.256,0.2515,0.2379,0.2243,0.2108,0.1973,0.1749,0.1479,0.1614,0.1795,0.1705,0.1524,0.1389,0.1299,0.1613,0.1792,0.1165,0.0986,0.1165,0.148,0.1794,0.2155,0.2334,0.22,0.2019,0.193,0.1795,0.1705,0.157,0.148,0.1391,0.5048,0.5108,0.5262,0.5306,0.5371,0.5485,0.5578,0.5586,0.5591,0.5629,0.5677,0.5688,0.5688,0.5688,0.5688,0.5688,0.5822,0.6083,0.6609,0.7132,0.7265,0.7221,0.6959,0.5938,0.5228,0.4917,0.4607,0.483,0.4872,0.4607,0.4166,0.421,0.3539,0.3094,0.2918,0.292,0.2917,0.2917,0.292,0.292,0.292,0.292,0.292,0.292,0.292,0.292,0.2915,0.2917,0.2918,0.2911,0.2889,0.2882,0.291,0.292,0.292,0.292,0.292,0.292,0.292,0.292,0.292,0.292,0.292,0.292,0.292,0.292,0.292,0.292,0.2877,0.2882,0.2957,0.2994,0.299,0.2964,0.2958,0.2949,0.2926,0.292,0.292,0.292,0.292,0.292,0.292,0.292,0.2875,0.2694,0.2694,0.2558,0.2603,0.2513,0.2603,0.2513,0.2649,0.2739,0.2739,0.2604,0.2469,0.2378,0.2378,0.2469,0.2199,0.2243,0.2379,0.2424,0.2334,0.2515,0.2604,0.2469,0.2244,0.2109,0.193,0.1705,0.1525,0.1436,0.1391,0.5083,0.5238,0.5358,0.5439,0.5518,0.5629,0.5677,0.5683,0.5688,0.568,0.5688,0.5688,0.5688,0.5688,0.5688,0.5733,0.6038,0.6476,0.7085,0.7921,0.7965,0.7881,0.7577,0.7224,0.6602,0.5542,0.5494,0.5539,0.5539,0.4961,0.4743,0.4433,0.363,0.3184,0.2963,0.292,0.292,0.292,0.292,0.292,0.292,0.292,0.292,0.292,0.292,0.292,0.292,0.292,0.292,0.292,0.292,0.292,0.292,0.292,0.292,0.292,0.292,0.292,0.292,0.292,0.292,0.292,0.292,0.292,0.292,0.2933,0.2942,0.2944,0.2907,0.2978,0.3016,0.305,0.3057,0.3029,0.3012,0.298,0.2944,0.2926,0.292,0.292,0.292,0.292,0.292,0.292,0.292,0.292,0.292,0.292,0.292,0.292,0.292,0.292,0.292,0.292,0.292,0.2917,0.2872,0.2857,0.286,0.2808,0.2808,0.2753,0.2661,0.2645,0.2649,0.2784,0.2739,0.256,0.2379,0.2244,0.1974,0.1705,0.157,0.1436,0.1391,0.5083,0.5197,0.5358,0.5439,0.5516,0.5637,0.5688,0.5688,0.5688,0.5688,0.5688,0.5733,0.5777,0.5733,0.5735,0.6038,0.665,0.7041,0.7614,0.8536,0.8715,0.8632,0.8684,0.8508,0.8021,0.7177,0.6602,0.6694,0.6966,0.6302,0.5366,0.5144,0.4121,0.3365,0.3008,0.292,0.292,0.292,0.292,0.292,0.292,0.292,0.292,0.292,0.292,0.292,0.292,0.292,0.292,0.292,0.292,0.292,0.292,0.292,0.292,0.292,0.292,0.292,0.292,0.292,0.292,0.292,0.2925,0.2879,0.2887,0.2964,0.2987,0.3005,0.3033,0.3069,0.308,0.3099,0.3094,0.3072,0.3039,0.3001,0.2978,0.2958,0.2926,0.2921,0.2921,0.292,0.292,0.292,0.292,0.292,0.292,0.292,0.292,0.292,0.292,0.292,0.292,0.292,0.292,0.2915,0.2864,0.2832,0.2823,0.2804,0.28,0.279,0.28,0.2748,0.2773,0.2825,0.278,0.2642,0.2423,0.224,0.1973,0.1704,0.157,0.1391,0.1395,0.5553,0.5644,0.5485,0.5439,0.5516,0.5637,0.5688,0.5688,0.5688,0.5688,0.5822,0.6038,0.6038,0.5997,0.6567,0.718,0.7702,0.7921,0.8496,0.9288,0.9331,0.9248,0.9305,0.9174,0.8732,0.8116,0.7628,0.7448,0.7848,0.6653,0.5852,0.5366,0.4297,0.3365,0.3008,0.292,0.292,0.292,0.292,0.292,0.292,0.292,0.292,0.292,0.292,0.292,0.292,0.292,0.292,0.292,0.292,0.292,0.292,0.292,0.292,0.292,0.292,0.292,0.292,0.292,0.292,0.2877,0.2943,0.2962,0.2978,0.3014,0.3051,0.3068,0.3059,0.3095,0.3095,0.3097,0.3129,0.3099,0.3068,0.3027,0.299,0.2994,0.2969,0.2888,0.2921,0.292,0.292,0.292,0.292,0.292,0.292,0.292,0.292,0.292,0.292,0.292,0.292,0.292,0.292,0.2917,0.2902,0.2868,0.2803,0.274,0.2743,0.2749,0.2796,0.2813,0.2878,0.2831,0.279,0.2643,0.2442,0.2235,0.1958,0.1732,0.152,0.1392,0.1398,0.6182,0.625,0.577,0.5605,0.5688,0.5681,0.5819,0.5908,0.5949,0.6083,0.6216,0.6697,0.6697,0.6523,0.7224,0.8141,0.889,0.8846,0.9244,0.9728,0.9646,0.9471,0.9257,0.9043,0.8784,0.852,0.812,0.8072,0.7536,0.6738,0.6074,0.523,0.4164,0.3363,0.3008,0.292,0.292,0.292,0.292,0.292,0.292,0.292,0.292,0.292,0.292,0.292,0.292,0.292,0.292,0.292,0.292,0.292,0.292,0.292,0.292,0.292,0.292,0.292,0.292,0.292,0.292,0.2921,0.2974,0.2996,0.3023,0.3061,0.3122,0.3138,0.3124,0.3109,0.3109,0.3109,0.3136,0.3106,0.3126,0.309,0.2995,0.2973,0.3004,0.2971,0.2936,0.292,0.292,0.292,0.292,0.292,0.292,0.292,0.292,0.292,0.292,0.292,0.292,0.292,0.292,0.292,0.2897,0.2864,0.2718,0.2619,0.2673,0.2687,0.2679,0.2624,0.2648,0.2583,0.2615,0.2628,0.2407,0.2151,0.19,0.1728,0.1534,0.1452,0.1454,0.6844,0.6842,0.6381,0.6273,0.6322,0.5934,0.6124,0.665,0.6647,0.7044,0.7394,0.7614,0.7658,0.7661,0.7658,0.8273,0.8759,0.9065,0.9331,0.9864,0.9689,0.9432,0.9262,0.9038,0.8648,0.8344,0.7893,0.7625,0.7136,0.6561,0.5805,0.4828,0.4074,0.3365,0.2964,0.292,0.292,0.292,0.292,0.292,0.292,0.292,0.292,0.292,0.292,0.292,0.292,0.292,0.292,0.292,0.292,0.292,0.292,0.292,0.292,0.292,0.292,0.292,0.2925,0.2929,0.2938,0.295,0.299,0.3001,0.3008,0.3074,0.3147,0.3207,0.3164,0.316,0.3157,0.3161,0.316,0.313,0.3136,0.3119,0.3085,0.3023,0.3004,0.2996,0.2958,0.2933,0.2921,0.2921,0.292,0.292,0.292,0.292,0.292,0.292,0.292,0.292,0.292,0.292,0.283,0.2875,0.2816,0.278,0.2642,0.2502,0.2512,0.2473,0.2263,0.2227,0.2294,0.2409,0.2488,0.2436,0.2297,0.2079,0.1798,0.1632,0.1517,0.1471,0.1465,0.7752,0.7414,0.6903,0.6815,0.6968,0.6781,0.6974,0.7295,0.7349,0.7526,0.7874,0.8273,0.8627,0.8846,0.8667,0.8846,0.9419,0.9506,0.9554,0.9689,0.9515,0.9305,0.8951,0.8464,0.8021,0.7801,0.7228,0.6473,0.6207,0.5805,0.5184,0.4605,0.3807,0.323,0.292,0.292,0.292,0.292,0.292,0.292,0.292,0.292,0.292,0.292,0.292,0.292,0.292,0.292,0.292,0.292,0.292,0.292,0.292,0.292,0.292,0.2921,0.2953,0.2967,0.2969,0.2968,0.2983,0.3025,0.3072,0.3079,0.3112,0.3151,0.3195,0.3225,0.318,0.318,0.3171,0.3148,0.3134,0.312,0.3118,0.3136,0.3117,0.3102,0.3056,0.3041,0.2986,0.2968,0.2947,0.2933,0.2929,0.292,0.292,0.292,0.292,0.292,0.292,0.292,0.292,0.292,0.283,0.2785,0.2649,0.2585,0.2451,0.2311,0.2309,0.2209,0.2016,0.2029,0.2175,0.2309,0.2401,0.2242,0.2053,0.1877,0.1696,0.1562,0.1473,0.1477,0.1476,0.8432,0.7996,0.7474,0.7379,0.755,0.7461,0.7625,0.798,0.7988,0.8142,0.844,0.8934,0.9462,0.9772,0.9462,0.9462,0.9946,0.9994,0.982,0.9602,0.934,0.9038,0.8552,0.7841,0.7397,0.7132,0.6384,0.5719,0.5186,0.4696,0.4383,0.4247,0.3583,0.3139,0.2963,0.292,0.292,0.292,0.292,0.292,0.292,0.292,0.292,0.292,0.292,0.292,0.292,0.292,0.292,0.292,0.292,0.292,0.292,0.2938,0.2947,0.296,0.2996,0.304,0.3044,0.3048,0.3057,0.3097,0.3105,0.3095,0.3204,0.318,0.318,0.318,0.318,0.318,0.3172,0.3141,0.3137,0.3132,0.3122,0.3134,0.3105,0.3106,0.3104,0.3064,0.3012,0.3019,0.2994,0.2961,0.2942,0.2924,0.292,0.292,0.292,0.292,0.292,0.2875,0.2784,0.2739,0.2694,0.2604,0.2515,0.2379,0.22,0.2108,0.2056,0.1973,0.1836,0.1903,0.2019,0.2012,0.1948,0.1875,0.1799,0.1748,0.1652,0.1556,0.1467,0.1472,0.1485,0.8665,0.8603,0.8108,0.7955,0.7953,0.7416,0.7754,0.8534,0.8572,0.9017,0.9584,0.9859,0.9864,0.9951,0.9907,0.9859,0.9994,0.9994,0.982,0.9563,0.9345,0.8679,0.8061,0.7441,0.6912,0.6201,0.545,0.4964,0.4563,0.3896,0.3539,0.3226,0.3227,0.3096,0.2963,0.292,0.292,0.292,0.292,0.292,0.292,0.292,0.292,0.292,0.292,0.292,0.292,0.292,0.292,0.292,0.292,0.2929,0.2938,0.2965,0.2982,0.3011,0.3011,0.3057,0.3079,0.3064,0.3098,0.3115,0.311,0.3125,0.3173,0.318,0.318,0.318,0.318,0.318,0.318,0.3225,0.316,0.3156,0.315,0.3194,0.3162,0.3132,0.3079,0.3069,0.3079,0.307,0.3048,0.3016,0.2974,0.2956,0.2921,0.292,0.292,0.292,0.292,0.283,0.2649,0.256,0.2515,0.2424,0.2244,0.2109,0.1974,0.1885,0.1838,0.1713,0.1649,0.1607,0.1669,0.1618,0.1524,0.1483,0.153,0.1659,0.1653,0.1514,0.1461,0.1461,0.1482,0.8703,0.8684,0.8617,0.8625,0.8603,0.8544,0.8778,0.9221,0.9391,0.9607,0.9994,0.9994,0.9994,0.9994,0.9994,0.9994,0.9994,0.982,0.9646,0.9205,0.8719,0.8101,0.7441,0.6647,0.5719,0.5317,0.461,0.403,0.3717,0.3361,0.3184,0.305,0.3051,0.2963,0.292,0.292,0.292,0.292,0.292,0.292,0.292,0.292,0.292,0.292,0.292,0.292,0.292,0.292,0.292,0.292,0.292,0.2936,0.2964,0.2996,0.3026,0.3062,0.3072,0.3115,0.3135,0.3123,0.3121,0.3159,0.3185,0.3204,0.3229,0.318,0.318,0.318,0.318,0.318,0.318,0.318,0.3176,0.318,0.318,0.318,0.3164,0.3126,0.3108,0.3098,0.31,0.3091,0.308,0.3073,0.3027,0.2986,0.2949,0.292,0.292,0.2875,0.2875,0.2785,0.256,0.2424,0.2379,0.22,0.1975,0.1842,0.1753,0.1714,0.1632,0.1624,0.155,0.1455,0.1362,0.1367,0.1272,0.1171,0.1258,0.1391,0.1524,0.152,0.1465,0.1362,0.1239,0.8703,0.8732,0.893,0.8985,0.9009,0.9242,0.9404,0.9606,0.979,0.9952,0.999,0.9994,0.9994,0.9994,0.9994,0.9994,0.9951,0.9733,0.9519,0.9126,0.8636,0.7929,0.7132,0.6337,0.5542,0.4875,0.4076,0.3497,0.3184,0.3138,0.3051,0.2963,0.292,0.292,0.292,0.292,0.292,0.292,0.292,0.292,0.292,0.292,0.292,0.292,0.292,0.292,0.292,0.292,0.292,0.292,0.2925,0.2906,0.2989,0.3027,0.3065,0.3072,0.3125,0.3114,0.3117,0.3122,0.3137,0.321,0.3169,0.3176,0.318,0.318,0.318,0.318,0.318,0.318,0.318,0.318,0.318,0.318,0.318,0.318,0.3173,0.3149,0.3137,0.3125,0.3135,0.3116,0.3102,0.3094,0.3022,0.2967,0.2949,0.2879,0.292,0.2875,0.283,0.2694,0.2515,0.2379,0.2289,0.1989,0.1728,0.1674,0.1586,0.1553,0.1523,0.1462,0.1383,0.1328,0.1236,0.1154,0.1006,0.0899,0.0986,0.1166,0.1157,0.1007,0.0955,0.0812,0.0587,0.8703,0.8727,0.894,0.9034,0.9028,0.9206,0.9413,0.9597,0.9649,0.9795,0.9985,0.9994,0.9994,0.9994,0.9994,0.9994,0.9864,0.9689,0.9432,0.9126,0.864,0.8153,0.7489,0.6561,0.5586,0.4739,0.4074,0.3497,0.2962,0.2963,0.292,0.292,0.292,0.292,0.292,0.292,0.292,0.292,0.292,0.292,0.292,0.292,0.292,0.292,0.292,0.292,0.292,0.2933,0.2936,0.2936,0.2935,0.2924,0.2933,0.2971,0.3018,0.2987,0.3089,0.3118,0.3175,0.3176,0.3176,0.3177,0.318,0.318,0.318,0.318,0.318,0.318,0.318,0.318,0.318,0.318,0.318,0.318,0.318,0.318,0.3173,0.3171,0.3157,0.31,0.3165,0.3169,0.3149,0.3065,0.298,0.2906,0.2918,0.2884,0.2835,0.2739,0.2649,0.2515,0.2335,0.2167,0.2038,0.1741,0.1518,0.1463,0.1419,0.1385,0.1352,0.1326,0.1287,0.1145,0.0964,0.078,0.0676,0.0572,0.019,-0.0282,0.0275,0.0271,0.027,0.0135,-0.027,0.8703,0.8737,0.9077,0.9183,0.9252,0.9409,0.9545,0.9625,0.9786,0.9933,0.998,0.9994,0.9994,0.9994,0.9994,0.9907,0.9733,0.9519,0.9257,0.8995,0.842,0.7885,0.7309,0.6691,0.5805,0.4964,0.4297,0.363,0.3139,0.2963,0.292,0.292,0.292,0.292,0.292,0.292,0.292,0.292,0.292,0.292,0.292,0.292,0.292,0.292,0.292,0.2921,0.2928,0.2951,0.2969,0.2975,0.2976,0.288,0.2799,0.2742,0.271,0.2624,0.2672,0.2672,0.2675,0.2674,0.2826,0.2978,0.318,0.318,0.318,0.318,0.318,0.318,0.313,0.313,0.318,0.318,0.318,0.318,0.318,0.318,0.3177,0.3179,0.3173,0.3122,0.3079,0.2876,0.2765,0.2795,0.273,0.2683,0.2665,0.2643,0.2623,0.2475,0.2334,0.2244,0.2113,0.1948,0.1782,0.1523,0.1443,0.1394,0.1303,0.1171,0.1183,0.1197,0.1056,0.0916,0.0684,0.0395,-0.0342,-0.1015,-0.1679,-0.1895,-0.1669,-0.118,-0.1036,-0.1212,-0.1431,0.8703,0.8751,0.9148,0.9322,0.937,0.963,0.971,0.9776,0.9937,0.9994,0.9994,0.9994,0.9994,0.9994,0.9994,0.982,0.9602,0.9388,0.917,0.8819,0.8288,0.8025,0.7625,0.6779,0.6027,0.5275,0.4431,0.3719,0.3183,0.3006,0.2918,0.292,0.292,0.292,0.292,0.292,0.292,0.292,0.292,0.292,0.292,0.292,0.292,0.292,0.2877,0.2883,0.2953,0.2982,0.3015,0.2982,0.2957,0.2751,0.2465,0.2241,0.2152,0.2148,0.1714,0.1613,0.1513,0.2017,0.2068,0.1866,0.2573,0.3079,0.313,0.3079,0.3079,0.3029,0.2978,0.3029,0.3029,0.3029,0.3029,0.3029,0.3079,0.3079,0.3029,0.3029,0.2978,0.2927,0.2827,0.2574,0.242,0.2451,0.2469,0.2386,0.2352,0.2387,0.2371,0.2261,0.2116,0.2025,0.1932,0.1805,0.1646,0.144,0.1358,0.1367,0.1189,0.1007,0.0964,0.0975,0.0829,0.0537,-0.0049,-0.0797,-0.1978,-0.2797,-0.3458,-0.39,-0.4024,-0.343,-0.2677,-0.2655,-0.2871,0.8703,0.8765,0.9148,0.9268,0.9333,0.9719,0.9961,0.9985,0.9994,0.9994,0.9994,0.9994,0.9994,0.9994,0.9994,0.982,0.9559,0.9345,0.9126,0.8911,0.8516,0.8432,0.794,0.7139,0.6296,0.5497,0.4652,0.3808,0.3227,0.3006,0.292,0.292,0.292,0.292,0.292,0.292,0.292,0.292,0.292,0.292,0.292,0.292,0.292,0.2922,0.2931,0.2819,0.2803,0.2789,0.2775,0.2749,0.2769,0.222,0.1754,0.1421,0.1438,0.1152,0.0403,0.0202,0.0151,0.0857,0.0806,0.0605,0.1512,0.2421,0.2675,0.2371,0.2321,0.2371,0.2371,0.2573,0.2725,0.2675,0.2675,0.2775,0.2826,0.2826,0.2775,0.2725,0.2675,0.2574,0.2473,0.2322,0.2221,0.2207,0.1994,0.2126,0.2097,0.2066,0.2061,0.2051,0.1952,0.1809,0.1714,0.1663,0.1459,0.1258,0.1183,0.1145,0.0931,0.0743,0.0745,0.0445,0.0,-0.0495,-0.1051,-0.1956,-0.3289,-0.4415,-0.529,-0.5608,-0.5676,-0.5241,-0.4334,-0.4311,-0.448,0.8703,0.8732,0.8996,0.9075,0.9131,0.9517,0.9814,0.9985,0.9994,0.9994,0.9994,0.9994,0.9994,0.9994,0.9994,0.9733,0.9519,0.9262,0.9003,0.8832,0.8612,0.8252,0.7804,0.7268,0.6428,0.5497,0.4607,0.3851,0.3317,0.3006,0.292,0.292,0.292,0.292,0.292,0.292,0.292,0.292,0.292,0.292,0.2875,0.283,0.2831,0.2794,0.2777,0.2574,0.223,0.2188,0.1974,0.1357,0.1166,0.0736,0.0249,-0.0099,-0.0247,-0.0653,-0.1008,-0.1109,-0.1058,-0.0857,-0.0756,-0.0906,-0.0302,0.0201,0.0655,0.0958,0.1058,0.1361,0.1513,0.1563,0.1866,0.2017,0.2017,0.2118,0.2169,0.2118,0.2068,0.2017,0.1967,0.1866,0.1765,0.1615,0.1615,0.1563,0.1404,0.1648,0.1733,0.1614,0.1729,0.173,0.1739,0.1597,0.1499,0.1449,0.124,0.1032,0.1001,0.0921,0.0397,0.0,-0.0099,-0.0495,-0.0995,-0.1744,-0.2642,-0.3653,-0.4816,-0.5775,-0.6666,-0.6837,-0.6891,-0.6545,-0.6219,-0.617,-0.622,0.8703,0.8732,0.8935,0.9028,0.9195,0.946,0.9724,0.9828,0.9956,0.9994,0.9994,0.9994,0.9994,0.9994,0.9864,0.9646,0.9301,0.913,0.8911,0.87,0.8568,0.812,0.7713,0.7044,0.616,0.5228,0.4385,0.3673,0.3227,0.3006,0.292,0.292,0.292,0.292,0.292,0.292,0.292,0.292,0.292,0.2875,0.283,0.2607,0.2478,0.2409,0.2302,0.1813,0.1372,0.1362,0.0883,0.0346,0.0248,-0.0348,-0.1007,-0.1646,-0.2184,-0.2518,-0.2571,-0.2621,-0.2571,-0.2571,-0.2417,-0.2316,-0.2265,-0.2064,-0.1409,-0.0907,-0.0302,0.0201,0.0302,0.0454,0.0857,0.121,0.1311,0.1361,0.1311,0.1261,0.121,0.121,0.1109,0.1008,0.0908,0.0706,0.0656,0.0707,0.0656,0.0502,0.0451,0.0398,0.0783,0.1243,0.1355,0.1337,0.1284,0.1188,0.0929,0.0377,0.0048,-0.0438,-0.129,-0.15,-0.1339,-0.1776,-0.2613,-0.3549,-0.4538,-0.544,-0.6287,-0.7124,-0.7886,-0.8045,-0.8381,-0.8516,-0.8328,-0.8035,-0.8128,0.8703,0.8718,0.8916,0.9091,0.9313,0.9446,0.9559,0.9625,0.9876,0.9975,0.9985,0.9994,0.9994,0.9994,0.982,0.9563,0.9301,0.913,0.8915,0.8568,0.8344,0.794,0.718,0.6467,0.5539,0.4696,0.3985,0.3361,0.3184,0.3008,0.292,0.2875,0.292,0.283,0.2649,0.2649,0.2515,0.2289,0.2379,0.2424,0.2515,0.2205,0.1722,0.152,0.1211,0.0753,0.0581,0.0394,0.0198,0.0,-0.0453,-0.1259,-0.2266,-0.3122,-0.3676,-0.3927,-0.3828,-0.383,-0.378,-0.378,-0.383,-0.388,-0.4031,-0.3778,-0.3122,-0.2366,-0.1662,-0.1108,-0.1008,-0.0705,-0.0302,-0.0151,-0.0101,0.0,0.0,-0.005,-0.005,-0.005,-0.0101,-0.0202,-0.0252,-0.0403,-0.0403,-0.0403,-0.0403,-0.0655,-0.0755,-0.0753,-0.0547,0.0146,0.0335,0.0469,0.0233,-0.0093,-0.0327,-0.0852,-0.1247,-0.1853,-0.2627,-0.2874,-0.2547,-0.327,-0.4339,-0.5414,-0.6537,-0.6952,-0.7657,-0.8494,-0.9102,-0.9368,-0.9817,-1.0513,-1.0489,-1.0219,-0.9976,0.8703,0.8708,0.8755,0.8902,0.9051,0.9108,0.9324,0.9597,0.9649,0.9809,0.9971,0.999,0.9994,0.9994,0.9864,0.965,0.9349,0.913,0.8959,0.8428,0.8072,0.7404,0.6605,0.5761,0.483,0.4074,0.3451,0.3094,0.3006,0.292,0.2875,0.2875,0.2785,0.2604,0.2064,0.2064,0.1885,0.157,0.1525,0.1708,0.1846,0.1847,0.1585,0.1156,0.0657,0.0239,-0.0049,-0.0448,-0.1151,-0.1865,-0.232,-0.2976,-0.3831,-0.4135,-0.4386,-0.4583,-0.4533,-0.4533,-0.4533,-0.4533,-0.4483,-0.4533,-0.4533,-0.4583,-0.428,-0.3676,-0.3123,-0.2619,-0.2216,-0.1864,-0.1613,-0.1562,-0.1462,-0.1411,-0.131,-0.1361,-0.1361,-0.1412,-0.1412,-0.1462,-0.1462,-0.1513,-0.1513,-0.1562,-0.1562,-0.1612,-0.1662,-0.171,-0.2011,-0.1688,-0.1574,-0.1496,-0.1567,-0.1798,-0.1851,-0.2144,-0.2556,-0.2904,-0.3521,-0.3704,-0.3818,-0.4864,-0.6053,-0.7426,-0.8501,-0.8714,-0.9037,-0.9747,-1.0248,-1.0641,-1.1318,-1.2105,-1.2813,-1.2753,-1.2261,0.8703,0.8703,0.8703,0.877,0.8888,0.8982,0.9169,0.9442,0.9559,0.971,0.9828,0.9942,0.999,0.9946,0.9864,0.9689,0.9301,0.917,0.8644,0.8069,0.758,0.6782,0.5941,0.5142,0.4385,0.3585,0.323,0.3008,0.2875,0.2875,0.283,0.247,0.2379,0.2064,0.1391,0.1256,0.1121,0.0762,0.0628,0.0721,0.0951,0.0819,0.0689,0.0281,-0.0143,-0.0536,-0.094,-0.1406,-0.2063,-0.2875,-0.333,-0.3831,-0.4334,-0.4535,-0.4636,-0.4734,-0.4784,-0.4782,-0.4782,-0.4782,-0.4782,-0.4782,-0.4784,-0.4734,-0.4734,-0.418,-0.4029,-0.3577,-0.3478,-0.3176,-0.2973,-0.2873,-0.2873,-0.2822,-0.2772,-0.2822,-0.2822,-0.2822,-0.2822,-0.2822,-0.2873,-0.2975,-0.3025,-0.3126,-0.3124,-0.3323,-0.3271,-0.3171,-0.3371,-0.3472,-0.3447,-0.3416,-0.345,-0.3036,-0.2702,-0.3191,-0.3933,-0.4277,-0.4645,-0.5546,-0.6308,-0.687,-0.7818,-0.8987,-0.9798,-0.9953,-1.0379,-1.1078,-1.1723,-1.2218,-1.2918,-1.3717,-1.4434,-1.5052,-1.4685,0.8703,0.8703,0.8703,0.8708,0.8727,0.8897,0.9091,0.9263,0.9465,0.9555,0.9602,0.9895,0.9971,0.987,0.974,0.9497,0.9253,0.8903,0.8288,0.7669,0.7177,0.6248,0.5408,0.4607,0.3851,0.3363,0.3051,0.2829,0.2604,0.256,0.2289,0.1795,0.1525,0.1301,0.0762,0.0538,0.0404,0.0224,0.0045,-0.0091,-0.0229,-0.0463,-0.0422,-0.0716,-0.1217,-0.1736,-0.2008,-0.2373,-0.2775,-0.333,-0.3934,-0.4384,-0.4634,-0.4734,-0.4734,-0.4782,-0.4782,-0.4782,-0.4782,-0.4782,-0.4782,-0.4782,-0.4782,-0.4782,-0.4782,-0.4734,-0.4585,-0.4535,-0.4437,-0.4336,-0.4083,-0.3982,-0.3982,-0.4033,-0.3982,-0.4033,-0.4033,-0.4083,-0.4083,-0.4083,-0.4183,-0.4234,-0.4336,-0.4438,-0.4638,-0.4834,-0.4935,-0.4983,-0.4983,-0.5081,-0.5064,-0.5137,-0.523,-0.4663,-0.4074,-0.4559,-0.5498,-0.5984,-0.656,-0.7736,-0.8616,-0.8748,-0.9261,-1.0255,-1.089,-1.1196,-1.1745,-1.2429,-1.3052,-1.3795,-1.4413,-1.5191,-1.6011,-1.6585,-1.683,0.8703,0.8703,0.8703,0.8703,0.8713,0.8751,0.8888,0.9051,0.9258,0.9348,0.9474,0.9757,0.9875,0.9658,0.9658,0.9434,0.9034,0.864,0.8105,0.7529,0.6337,0.5497,0.4786,0.403,0.3406,0.3051,0.2829,0.2558,0.2244,0.2064,0.1615,0.0987,0.0942,0.0583,-0.0045,-0.0269,-0.0359,-0.0538,-0.0765,-0.0952,-0.0875,-0.0933,-0.09,-0.1253,-0.1715,-0.1889,-0.216,-0.2725,-0.3128,-0.363,-0.4234,-0.4636,-0.4734,-0.4782,-0.4782,-0.4782,-0.4782,-0.4782,-0.4782,-0.4782,-0.4782,-0.4782,-0.4782,-0.4782,-0.4834,-0.4935,-0.4836,-0.4887,-0.4786,-0.4736,-0.4583,-0.4533,-0.4533,-0.4533,-0.4583,-0.4686,-0.4786,-0.4836,-0.4887,-0.4985,-0.5085,-0.5135,-0.5186,-0.5288,-0.5391,-0.5539,-0.5636,-0.5737,-0.6034,-0.6337,-0.6592,-0.6813,-0.6927,-0.6804,-0.6448,-0.6509,-0.7177,-0.7709,-0.8239,-0.9059,-0.9683,-1.0127,-1.0757,-1.1833,-1.2267,-1.2543,-1.3149,-1.3962,-1.4776,-1.5489,-1.5951,-1.6609,-1.7504,-1.8101,-1.8292]},{"header":{"parameterUnit":"m.s-1","parameterCategory":1,"la1":31.0,"la2":29.5877,"lo1":-88.7671,"lo2":-86.6584,"dy":0.0162,"dx":0.0185,"nx":115,"ny":88,"refTime":"2025-12-10T12:00:00:Z","depth":0,"parameterNumber":3,"parameterNumberName":"V-component_of_WINDS"},"data":[0.0,0.0,0.0,0.0,0.0,0.0,0.0,0.0,0.0,0.0,0.0,0.0,0.0,0.0,0.0,0.0,0.0,0.0,0.0,0.0,0.0,0.0,0.0,0.0,0.0,0.0,0.0,0.0,0.0,0.0,0.0,0.0,0.0,0.0,0.0,0.0,0.0,0.0,0.0,0.0,0.0,0.0,0.0,0.0,0.0,0.0,0.0,0.0,0.0,0.0,0.0,0.0,0.0,0.0,0.0,0.0,0.0,0.0,0.0,0.0,0.0,0.0,0.0,0.0,0.0,0.0,0.0,0.0,0.0,0.0,0.0,0.0,0.0,0.0,0.0,0.0,0.0,0.0,0.0,0.0,0.0,0.0,0.0,0.0,0.0,0.0,0.0,0.0,0.0,0.0,0.0,0.0,0.0,0.0,0.0,0.0,0.0,0.0,0.0,0.0,0.0,0.0,0.0,0.0,0.0,0.0,0.0,0.0,0.0,0.0,0.0,0.0,0.0,0.0,0.0,0.0,0.0,0.0,0.0,0.0,0.0,0.0,0.0,0.0,0.0,0.0,0.0,0.0,0.0,0.0,0.0,0.0,0.0,0.0,0.0,0.0,0.0,0.0,0.0,0.0,0.0,0.0,0.0,0.0,0.0,0.0,0.0,0.0,0.0,0.0,0.0,0.0,0.0,0.0,0.0,0.0,0.0,0.0,0.0,0.0,0.0,0.0,0.0,0.0,0.0,0.0,0.0,0.0,0.0,0.0,0.0,0.0,0.0,0.0,0.0,0.0,0.0,0.0,0.0,0.0,0.0,0.0,0.0,0.0,0.0,0.0,0.0,0.0,0.0,0.0,0.0,0.0,0.0,0.0,0.0,0.0,0.0,0.0,0.0,0.0,0.0,0.0,0.0,0.0,0.0,0.0,0.0,0.0,0.0,0.0,0.0,0.0,0.0,0.0,0.0,0.0,0.0,0.0,0.0,0.0,0.0,0.0,0.0,0.0,0.0,0.0,0.0,0.0,0.0,0.0,0.0,0.0,0.0,0.0,0.0,0.0,0.0,0.0,0.0,0.0,0.0,0.0,0.0,0.0,0.0,0.0,0.0,0.0,0.0,0.0,0.0,0.0,0.0,0.0,0.0,0.0,0.0,0.0,0.0,0.0,0.0,0.0,0.0,0.0,0.0,0.0,0.0,0.0,0.0,0.0,0.0,0.0,0.0,0.0,0.0,0.0,0.0,0.0,0.0,0.0,0.0,0.0,0.0,0.0,0.0,0.0,0.0,0.0,0.0,0.0,0.0,0.0,0.0,0.0,0.0,0.0,0.0,0.0,0.0,0.0,0.0,0.0,0.0,0.0,0.0,0.0,0.0,0.0,0.0,0.0,0.0,0.0,0.0,0.0,0.0,0.0,0.0,0.0,0.0,0.0,0.0,0.0,0.0,0.0,0.0,0.0,0.0,0.0,0.0,0.0,0.0,0.0,0.0,0.0,0.0,0.0,0.0,0.0,0.0,0.0,0.0,0.0,0.0,0.0,0.0,0.0,0.0,0.0,0.0,0.0,0.0,0.0,0.0,0.0,0.0,0.0,0.0,0.0,0.0,0.0,0.0,0.0,0.0,0.0,0.0,0.0,0.0,0.0,0.0,0.0,0.0,0.0,0.0,0.0,0.0,0.0,0.0,0.0,0.0,0.0,0.0,0.0,0.0,0.0,0.0,0.0,0.0,0.0,0.0,0.0,0.0,0.0,0.0,0.0,0.0,0.0,0.0,0.0,0.0,0.0,0.0,0.0,0.0,0.0,0.0,0.0,0.0,0.0,0.0,0.0,0.0,0.0,0.0,0.0,0.0,0.0,0.0,0.0,0.0,0.0,0.0,0.0,0.0,0.0,0.0,0.0,0.0,0.0,0.0,0.0,0.0,0.0,0.0,0.0,0.0,0.0,0.0,0.0,0.0,0.0,0.0,0.0,0.0,0.0,0.0,0.0,0.0,0.0,0.0,0.0,0.0,0.0,0.0,0.0,0.0,0.0,0.0,0.0,0.0,0.0,0.0,0.0,0.0,0.0,0.0,0.0,0.0,0.0,0.0,0.0,0.0,0.0,0.0,0.0,0.0,0.0,0.0,0.0,0.0,0.0,0.0,0.0,0.0,0.0,0.0,0.0,0.0,0.0,0.0,0.0,0.0,0.0,0.0,0.0,0.0,0.0,0.0,0.0,0.0,0.0,0.0,0.0,0.0,0.0,0.0,0.0,0.0,0.0,0.0,0.0,0.0,0.0,0.0,0.0,0.0,0.0,0.0,0.0,0.0,0.0,0.0,0.0,0.0,0.0,0.0,0.0,0.0,0.0,0.0,0.0,0.0,0.0,0.0,0.0,0.0,0.0,0.0,0.0,0.0,0.0,0.0,0.0,0.0,0.0,0.0,0.0,0.0,0.0,0.0,0.0,0.0,0.0,0.0,0.0,0.0,0.0,0.0,0.0,0.0,0.0,0.0,0.0,0.0,0.0,0.0,0.0,0.0,0.0,0.0,0.0,0.0,0.0,0.0,0.0,0.0,0.0,0.0,0.0,0.0,0.0,0.0,0.0,0.0,0.0,0.0,0.0,0.0,0.0,0.0,0.0,0.0,0.0,0.0,0.0,0.0,0.0,0.0,0.0,0.0,0.0,0.0,0.0,0.0,0.0,0.0,0.0,0.0,0.0,0.0,0.0,0.0,0.0,0.0,0.0,0.0,0.0,0.0,0.0,0.0,0.0,0.0,0.0,0.0,0.0,0.0,0.0,0.0,0.0,0.0,0.0,0.0,0.0,0.0,0.0,0.0,0.0,0.0,0.0,0.0,0.0,0.0,0.0,0.0,0.0,0.0,0.0,0.0,0.0,0.0,0.0,0.0,0.0,0.0,0.0,0.0,0.0,0.0,0.0,0.0,0.0,0.0,0.0,0.0,0.0,0.0,0.0,0.0,0.0,0.0,0.0,0.0,0.0,0.0,0.0,0.0,0.0,0.0,0.0,0.0,0.0,0.0,0.0,0.0,0.0,0.0,0.0,0.0,0.0,0.0,0.0,0.0,0.0,0.0,0.0,0.0,0.0,0.0,0.0,0.0,0.0,0.0,0.0,0.0,0.0,0.0,0.0,0.0,0.0,0.0,0.0,0.0,0.0,0.0,0.0,0.0,0.0,0.0,0.0,0.0,0.0,0.0,0.0,0.0,0.0,0.0,0.0,0.0,0.0,0.0,0.0,0.0,0.0,0.0,0.0,0.0,0.0,0.0,0.0,0.0,0.0,0.0,0.0,0.0,0.0,0.0,0.0,0.0,0.0,0.0,0.0,0.0,0.0,0.0,0.0,0.0,0.0,0.0,0.0,0.0,0.0,0.0,0.0,0.0,0.0,0.0,0.0,0.0,0.0,0.0,0.0,0.0,0.0,0.0,0.0,0.0,0.0,0.0,0.0,0.0,0.0,0.0,0.0,0.0,0.0,0.0,0.0,0.0,0.0,0.0,0.0,0.0,0.0,0.0,0.0,0.0,0.0,0.0,0.0,0.0,0.0,0.0,0.0,0.0,0.0,0.0,0.0,0.0,0.0,0.0,0.0,0.0,0.0,0.0,0.0,0.0,0.0,0.0,0.0,0.0,0.0,0.0,0.0,0.0,0.0,0.0,0.0,0.0,0.0,0.0,0.0,0.0,0.0,0.0,0.0,0.0,0.0,0.0,0.0,0.0,0.0,0.0,0.0,0.0,0.0,0.0,0.0,0.0,0.0,0.0,0.0,0.0,0.0,0.0,0.0,0.0,0.0,0.0,0.0,0.0,0.0,0.0,0.0,0.0,0.0,0.0,0.0,0.0,0.0,0.0,0.0,0.0,0.0,0.0,0.0,0.0,0.0,0.0,0.0,0.0,0.0,0.0,0.0,0.0,0.0,0.0,0.0,0.0,0.0,0.0,0.0,0.0,0.0,0.0,0.0,0.0,0.0,0.0,0.0,0.0,0.0,0.0,0.0,0.0,0.0,0.0,0.0,0.0,0.0,0.0,0.0,0.0,0.0,0.0,0.0,0.0,0.0,0.0,0.0,0.0,0.0,0.0,0.0,0.0,0.0,0.0,0.0,0.0,0.0,0.0,0.0,0.0,0.0,0.0,0.0,0.0,0.0,0.0,0.0,0.0,0.0,0.0,0.0,0.0,0.0,0.0,0.0,0.0,0.0,0.0,0.0,0.0,0.0,0.0,0.0,0.0,0.0,0.0,0.0,0.0,0.0,0.0,0.0,0.0,0.0,0.0,0.0,2.4657,0.0,0.0,0.0,0.0,0.0,0.0,0.0,0.0,0.0,0.0,0.0,0.0,0.0,0.0,0.0,0.0,0.0,0.0,0.0,0.0,0.0,0.0,0.0,0.0,0.0,0.0,0.0,0.0,0.0,0.0,0.0,0.0,0.0,0.0,0.0,0.0,0.0,0.0,0.0,0.0,0.0,0.0,0.0,0.0,0.0,0.0,0.0,0.0,0.0,0.0,0.0,0.0,0.0,0.0,0.0,0.0,0.0,0.0,0.0,0.0,0.0,0.0,0.0,0.0,0.0,0.0,0.0,0.0,0.0,0.0,0.0,0.0,0.0,0.0,0.0,0.0,0.0,0.0,0.0,0.0,0.0,0.0,0.0,0.0,0.0,0.0,0.0,0.0,0.0,0.0,0.0,0.0,0.0,0.0,0.0,0.0,0.0,0.0,0.0,0.0,0.0,0.0,0.0,0.0,0.0,0.0,0.0,0.0,0.0,0.0,2.8493,2.7964,2.7387,2.6537,2.5292,0.0,0.0,0.0,0.0,0.0,0.0,0.0,0.0,0.0,0.0,0.0,0.0,0.0,0.0,0.0,0.0,0.0,0.0,0.0,0.0,0.0,0.0,0.0,0.0,0.0,0.0,0.0,0.0,0.0,0.0,0.0,0.0,0.0,0.0,0.0,0.0,0.0,0.0,0.0,0.0,0.0,0.0,0.0,0.0,0.0,0.0,0.0,0.0,0.0,0.0,0.0,0.0,0.0,0.0,0.0,0.0,0.0,0.0,0.0,0.0,0.0,0.0,0.0,0.0,0.0,0.0,0.0,0.0,0.0,0.0,0.0,0.0,0.0,0.0,0.0,0.0,0.0,0.0,0.0,0.0,0.0,0.0,0.0,0.0,0.0,0.0,0.0,0.0,0.0,0.0,0.0,0.0,0.0,0.0,0.0,0.0,0.0,0.0,0.0,0.0,0.0,0.0,0.0,0.0,0.0,0.0,0.0,0.0,0.0,0.0,0.0,0.0,2.7777,2.6793,2.5486,0.0,0.0,0.0,0.0,0.0,0.0,0.0,0.0,0.0,0.0,0.0,0.0,0.0,0.0,0.0,0.0,0.0,0.0,0.0,0.0,0.0,0.0,0.0,0.0,0.0,0.0,0.0,0.0,0.0,0.0,0.0,0.0,0.0,0.0,0.0,0.0,0.0,0.0,0.0,0.0,0.0,0.0,0.0,0.0,0.0,0.0,0.0,0.0,0.0,0.0,0.0,0.0,0.0,0.0,0.0,0.0,0.0,0.0,0.0,0.0,0.0,0.0,0.0,0.0,0.0,0.0,0.0,0.0,0.0,0.0,0.0,0.0,0.0,0.0,0.0,0.0,0.0,0.0,0.0,0.0,0.0,0.0,0.0,0.0,0.0,0.0,0.0,0.0,0.0,0.0,0.0,0.0,0.0,0.0,0.0,0.0,0.0,0.0,0.0,0.0,0.0,0.0,0.0,0.0,0.0,0.0,0.0,0.0,0.0,0.0,2.8562,2.851,2.8342,0.0,2.4754,0.0,0.0,0.0,0.0,0.0,0.0,0.0,0.0,0.0,0.0,0.0,0.0,0.0,0.0,0.0,0.0,0.0,0.0,0.0,0.0,0.0,0.0,0.0,0.0,0.0,0.0,0.0,0.0,0.0,0.0,0.0,0.0,0.0,0.0,0.0,0.0,0.0,0.0,0.0,0.0,0.0,0.0,0.0,0.0,0.0,0.0,0.0,0.0,0.0,0.0,0.0,0.0,0.0,0.0,0.0,0.0,0.0,0.0,0.0,0.0,0.0,0.0,0.0,0.0,0.0,0.0,0.0,0.0,0.0,0.0,0.0,0.0,0.0,0.0,0.0,0.0,0.0,0.0,0.0,0.0,0.0,0.0,0.0,0.0,0.0,0.0,0.0,0.0,0.0,0.0,0.0,0.0,0.0,0.0,0.0,0.0,0.0,0.0,0.0,0.0,0.0,0.0,0.0,0.0,0.0,0.0,0.0,0.0,0.0,0.0,2.8536,2.851,2.743,2.605,0.0,0.0,0.0,0.0,0.0,0.0,0.0,0.0,0.0,0.0,0.0,0.0,0.0,0.0,0.0,0.0,0.0,0.0,0.0,0.0,0.0,0.0,0.0,0.0,0.0,0.0,0.0,0.0,0.0,0.0,0.0,0.0,0.0,0.0,0.0,0.0,0.0,0.0,0.0,0.0,0.0,0.0,0.0,0.0,0.0,0.0,0.0,0.0,0.0,0.0,0.0,0.0,0.0,0.0,0.0,0.0,0.0,0.0,0.0,0.0,0.0,0.0,0.0,0.0,0.0,0.0,0.0,0.0,0.0,0.0,0.0,0.0,0.0,0.0,0.0,0.0,0.0,0.0,0.0,0.0,0.0,0.0,0.0,0.0,0.0,0.0,0.0,0.0,0.0,0.0,0.0,0.0,0.0,0.0,0.0,0.0,0.0,0.0,0.0,0.0,0.0,0.0,0.0,0.0,0.0,0.0,0.0,0.0,0.0,0.0,2.8612,0.0,2.8054,2.6965,2.5491,2.3549,0.0,0.0,0.0,0.0,0.0,0.0,0.0,0.0,0.0,0.0,0.0,0.0,0.0,0.0,0.0,0.0,0.0,0.0,0.0,0.0,0.0,0.0,0.0,0.0,0.0,0.0,0.0,0.0,0.0,0.0,0.0,0.0,0.0,0.0,0.0,0.0,0.0,0.0,0.0,0.0,0.0,0.0,0.0,0.0,0.0,0.0,0.0,0.0,0.0,0.0,0.0,0.0,0.0,0.0,0.0,0.0,0.0,0.0,0.0,0.0,0.0,0.0,0.0,0.0,0.0,0.0,0.0,0.0,0.0,0.0,0.0,0.0,0.0,0.0,0.0,0.0,0.0,0.0,0.0,0.0,0.0,0.0,0.0,0.0,0.0,0.0,0.0,0.0,0.0,0.0,0.0,0.0,0.0,0.0,0.0,0.0,0.0,0.0,0.0,0.0,0.0,0.0,0.0,0.0,0.0,0.0,0.0,0.0,0.0,2.8594,2.8042,2.7147,2.7553,2.5948,0.0,0.0,0.0,0.0,0.0,0.0,0.0,0.0,0.0,0.0,0.0,0.0,0.0,0.0,0.0,0.0,0.0,0.0,0.0,0.0,0.0,0.0,0.0,0.0,0.0,0.0,0.0,0.0,0.0,0.0,0.0,0.0,0.0,0.0,0.0,0.0,0.0,0.0,0.0,0.0,0.0,0.0,0.0,0.0,0.0,0.0,0.0,0.0,0.0,0.0,0.0,0.0,0.0,0.0,0.0,0.0,0.0,0.0,0.0,0.0,0.0,0.0,0.0,0.0,0.0,0.0,0.0,0.0,0.0,0.0,0.0,0.0,0.0,0.0,0.0,0.0,0.0,0.0,0.0,0.0,0.0,0.0,0.0,0.0,0.0,0.0,0.0,0.0,0.0,0.0,0.0,0.0,0.0,0.0,0.0,0.0,0.0,0.0,0.0,0.0,0.0,0.0,0.0,0.0,0.0,0.0,0.0,0.0,0.0,2.8804,2.8523,2.8143,2.764,2.6812,2.5094,0.0,0.0,0.0,0.0,0.0,0.0,0.0,0.0,0.0,0.0,0.0,0.0,0.0,0.0,0.0,0.0,0.0,0.0,0.0,0.0,0.0,0.0,0.0,0.0,0.0,0.0,0.0,0.0,0.0,0.0,0.0,0.0,0.0,0.0,0.0,0.0,0.0,0.0,0.0,0.0,0.0,0.0,0.0,0.0,0.0,0.0,0.0,0.0,0.0,0.0,0.0,0.0,0.0,0.0,0.0,0.0,0.0,0.0,0.0,0.0,0.0,0.0,0.0,0.0,0.0,0.0,0.0,0.0,0.0,0.0,0.0,0.0,0.0,0.0,0.0,0.0,0.0,0.0,0.0,0.0,0.0,0.0,0.0,0.0,0.0,0.0,0.0,0.0,0.0,0.0,0.0,0.0,0.0,0.0,0.0,0.0,0.0,0.0,0.0,0.0,0.0,0.0,0.0,0.0,0.0,0.0,0.0,0.0,0.0,2.87,0.0,2.7969,0.0,2.6319,2.4553,0.0,0.0,0.0,0.0,0.0,0.0,0.0,0.0,0.0,0.0,0.0,0.0,0.0,0.0,0.0,0.0,0.0,0.0,0.0,0.0,0.0,0.0,0.0,0.0,0.0,0.0,0.0,0.0,0.0,0.0,0.0,0.0,0.0,0.0,0.0,0.0,0.0,0.0,0.0,0.0,0.0,0.0,0.0,0.0,0.0,0.0,0.0,0.0,0.0,0.0,0.0,0.0,0.0,0.0,0.0,0.0,0.0,0.0,0.0,0.0,0.0,0.0,0.0,0.0,0.0,0.0,0.0,0.0,0.0,0.0,0.0,0.0,0.0,0.0,0.0,0.0,0.0,0.0,0.0,0.0,0.0,0.0,0.0,0.0,0.0,0.0,0.0,0.0,0.0,0.0,0.0,0.0,0.0,0.0,0.0,0.0,0.0,0.0,0.0,0.0,0.0,0.0,0.0,0.0,0.0,0.0,0.0,0.0,2.8712,2.8523,2.8349,2.7584,2.5925,2.6188,2.4496,0.0,0.0,0.0,0.0,0.0,0.0,0.0,0.0,0.0,0.0,0.0,0.0,0.0,0.0,0.0,0.0,0.0,0.0,0.0,0.0,0.0,0.0,0.0,0.0,0.0,0.0,0.0,0.0,0.0,0.0,0.0,0.0,0.0,0.0,0.0,0.0,0.0,0.0,0.0,0.0,0.0,0.0,0.0,0.0,0.0,0.0,0.0,0.0,0.0,0.0,0.0,0.0,0.0,0.0,0.0,0.0,0.0,0.0,0.0,0.0,0.0,0.0,0.0,0.0,0.0,0.0,0.0,0.0,0.0,0.0,0.0,0.0,0.0,0.0,0.0,0.0,0.0,0.0,0.0,0.0,0.0,0.0,0.0,0.0,0.0,0.0,0.0,0.0,0.0,0.0,0.0,0.0,0.0,0.0,0.0,0.0,0.0,0.0,0.0,0.0,0.0,0.0,0.0,0.0,0.0,0.0,0.0,0.0,0.0,2.8445,2.838,2.8027,2.7315,2.6177,2.4642,0.0,0.0,0.0,0.0,0.0,0.0,0.0,0.0,0.0,0.0,0.0,0.0,0.0,0.0,0.0,0.0,0.0,0.0,0.0,0.0,0.0,0.0,0.0,0.0,0.0,0.0,0.0,0.0,0.0,0.0,0.0,0.0,0.0,0.0,0.0,0.0,0.0,0.0,0.0,0.0,0.0,0.0,0.0,0.0,0.0,0.0,0.0,0.0,0.0,0.0,0.0,0.0,0.0,0.0,0.0,0.0,0.0,0.0,0.0,0.0,0.0,0.0,0.0,0.0,0.0,0.0,0.0,0.0,0.0,0.0,0.0,0.0,0.0,0.0,0.0,0.0,0.0,0.0,0.0,0.0,0.0,0.0,0.0,0.0,0.0,0.0,0.0,0.0,0.0,0.0,0.0,0.0,0.0,0.0,0.0,0.0,0.0,0.0,0.0,0.0,0.0,0.0,0.0,0.0,0.0,0.0,0.0,0.0,0.0,2.8233,2.8399,2.8092,2.7308,2.5903,2.4434,2.2955,0.0,0.0,0.0,0.0,0.0,0.0,0.0,0.0,0.0,0.0,0.0,0.0,0.0,0.0,0.0,0.0,0.0,0.0,0.0,0.0,0.0,0.0,0.0,0.0,0.0,0.0,0.0,0.0,0.0,0.0,0.0,0.0,0.0,0.0,0.0,0.0,0.0,0.0,0.0,0.0,0.0,0.0,0.0,0.0,0.0,0.0,0.0,0.0,0.0,0.0,0.0,0.0,0.0,0.0,0.0,0.0,0.0,0.0,0.0,0.0,0.0,0.0,0.0,0.0,0.0,0.0,0.0,0.0,0.0,0.0,0.0,0.0,0.0,0.0,0.0,0.0,0.0,0.0,0.0,0.0,0.0,0.0,0.0,0.0,0.0,0.0,0.0,0.0,0.0,0.0,0.0,0.0,0.0,0.0,0.0,0.0,0.0,0.0,0.0,0.0,0.0,0.0,0.0,0.0,0.0,0.0,0.0,0.0,2.7913,2.831,2.7755,2.6255,2.5442,2.4014,0.0,0.0,0.0,0.0,0.0,0.0,0.0,0.0,0.0,0.0,0.0,0.0,0.0,0.0,0.0,0.0,0.0,0.0,0.0,0.0,0.0,0.0,0.0,0.0,0.0,0.0,0.0,0.0,0.0,0.0,0.0,0.0,0.0,0.0,0.0,0.0,0.0,0.0,0.0,0.0,0.0,0.0,0.0,0.0,0.0,0.0,0.0,0.0,0.0,0.0,0.0,0.0,0.0,0.0,0.0,0.0,0.0,0.0,0.0,0.0,0.0,0.0,0.0,0.0,0.0,0.0,0.0,0.0,0.0,0.0,0.0,0.0,0.0,0.0,0.0,0.0,0.0,0.0,0.0,0.0,0.0,0.0,0.0,0.0,0.0,0.0,0.0,0.0,0.0,0.0,0.0,0.0,0.0,0.0,0.0,0.0,0.0,0.0,0.0,0.0,0.0,0.0,0.0,0.0,0.0,0.0,0.0,0.0,0.0,2.8099,2.7608,2.7226,2.6953,2.5178,2.4181,0.0,0.0,0.0,0.0,0.0,0.0,0.0,0.0,0.0,0.0,0.0,0.0,0.0,0.0,0.0,0.0,0.0,0.0,0.0,0.0,0.0,0.0,0.0,0.0,0.0,0.0,0.0,0.0,0.0,0.0,0.0,0.0,0.0,0.0,0.0,0.0,0.0,0.0,0.0,0.0,0.0,0.0,0.0,0.0,0.0,0.0,0.0,0.0,0.0,0.0,0.0,0.0,0.0,0.0,0.0,0.0,0.0,0.0,0.0,0.0,0.0,0.0,0.0,0.0,0.0,0.0,0.0,0.0,0.0,0.0,0.0,0.0,0.0,0.0,0.0,0.0,0.0,0.0,0.0,0.0,0.0,0.0,0.0,0.0,0.0,0.0,0.0,0.0,0.0,0.0,0.0,0.0,0.0,0.0,0.0,0.0,0.0,0.0,0.0,0.0,0.0,0.0,0.0,0.0,0.0,0.0,0.0,0.0,2.7736,2.792,2.6689,2.62,2.656,2.5403,2.4515,0.0,0.0,0.0,0.0,0.0,0.0,0.0,0.0,0.0,0.0,0.0,0.0,0.0,0.0,0.0,0.0,0.0,0.0,0.0,0.0,0.0,0.0,0.0,0.0,0.0,0.0,0.0,0.0,0.0,0.0,0.0,0.0,0.0,0.0,0.0,0.0,0.0,0.0,0.0,0.0,0.0,0.0,0.0,0.0,0.0,0.0,0.0,0.0,0.0,0.0,0.0,0.0,0.0,0.0,0.0,0.0,0.0,0.0,0.0,0.0,0.0,0.0,0.0,0.0,0.0,0.0,0.0,0.0,0.0,0.0,0.0,0.0,0.0,0.0,0.0,0.0,0.0,0.0,0.0,0.0,0.0,0.0,0.0,0.0,0.0,0.0,0.0,0.0,0.0,0.0,0.0,0.0,0.0,0.0,0.0,0.0,0.0,0.0,0.0,0.0,0.0,0.0,0.0,0.0,0.0,0.0,0.0,0.0,2.7196,2.7329,2.5706,2.4987,2.5346,2.5576,2.4813,0.0,0.0,0.0,0.0,0.0,0.0,0.0,0.0,0.0,0.0,0.0,0.0,0.0,0.0,0.0,0.0,0.0,0.0,0.0,0.0,0.0,0.0,0.0,0.0,0.0,0.0,0.0,0.0,0.0,0.0,0.0,0.0,0.0,0.0,0.0,0.0,0.0,0.0,0.0,0.0,0.0,0.0,0.0,0.0,0.0,0.0,0.0,0.0,0.0,0.0,0.0,0.0,0.0,0.0,0.0,0.0,0.0,0.0,0.0,0.0,0.0,0.0,0.0,0.0,0.0,0.0,0.0,0.0,0.0,0.0,0.0,0.0,0.0,0.0,0.0,0.0,0.0,0.0,0.0,0.0,0.0,0.0,0.0,0.0,0.0,0.0,0.0,0.0,0.0,0.0,0.0,0.0,0.0,0.0,0.0,0.0,0.0,0.0,0.0,0.0,0.0,0.0,0.0,0.0,0.0,0.0,0.0,0.0,2.6821,2.5754,2.5266,2.465,2.3811,2.4037,2.4038,0.0,0.0,0.0,0.0,0.0,0.0,0.0,0.0,0.0,0.0,0.0,0.0,0.0,0.0,0.0,0.0,0.0,0.0,0.0,0.0,0.0,0.0,0.0,0.0,0.0,0.0,0.0,0.0,0.0,0.0,0.0,0.0,0.0,0.0,0.0,0.0,0.0,0.0,0.0,0.0,0.0,0.0,0.0,0.0,0.0,0.0,0.0,0.0,1.5248,0.0,0.0,0.0,0.0,0.0,0.0,0.0,0.0,0.0,0.0,0.0,0.0,0.0,0.0,0.0,0.0,0.0,0.0,0.0,0.0,0.0,0.0,0.0,0.0,0.0,0.0,0.0,0.0,0.0,0.0,0.0,0.0,0.0,0.0,0.0,0.0,0.0,0.0,0.0,0.0,0.0,0.0,0.0,0.0,0.0,0.0,0.0,0.0,0.0,0.0,0.0,0.0,0.0,0.0,0.0,0.0,0.0,0.0,0.0,2.6313,2.5241,2.4354,2.3733,2.3325,2.3335,2.3414,0.0,0.0,0.0,0.0,0.0,0.0,0.0,0.0,0.0,0.0,0.0,0.0,0.0,0.0,0.0,0.0,0.0,0.0,0.0,0.0,0.0,0.0,0.0,0.0,0.0,0.0,0.0,0.0,0.0,0.0,0.0,0.0,0.0,0.0,0.0,0.0,0.0,0.0,0.0,0.0,0.0,0.0,0.0,0.0,0.0,0.0,0.0,0.0,0.0,0.0,0.0,0.0,0.0,0.0,0.0,0.0,0.0,0.0,0.0,0.0,0.0,0.0,0.0,0.0,0.0,0.0,0.0,0.0,0.0,0.0,0.0,0.0,0.0,0.0,0.0,0.0,0.0,0.0,0.0,0.0,0.0,0.0,0.0,0.0,0.0,0.0,0.0,0.0,0.0,0.0,0.0,0.0,0.0,0.0,0.0,0.0,0.0,0.0,0.0,0.0,0.0,0.0,0.0,0.0,0.0,0.0,0.0,2.7082,2.5793,2.481,2.3358,2.2783,2.3102,2.3033,2.3002,2.2986,0.0,0.0,0.0,0.0,0.0,0.0,0.0,0.0,0.0,0.0,0.0,0.0,0.0,0.0,0.0,0.0,0.0,0.0,0.0,0.0,0.0,0.0,0.0,0.0,0.0,0.0,0.0,0.0,0.0,0.0,0.0,0.0,0.0,0.0,0.0,0.0,0.0,0.0,1.7206,1.7799,0.0,0.0,0.0,0.0,0.0,0.0,0.0,0.0,1.7537,0.0,0.0,0.0,0.0,0.0,0.0,0.0,0.0,0.0,0.0,0.0,0.0,0.0,0.0,0.0,0.0,0.0,0.0,0.0,0.0,0.0,0.0,0.0,0.0,0.0,0.0,0.0,0.0,0.0,0.0,0.0,0.0,0.0,0.0,0.0,0.0,0.0,0.0,0.0,0.0,0.0,0.0,0.0,0.0,0.0,0.0,0.0,0.0,0.0,0.0,0.0,0.0,0.0,0.0,0.0,0.0,2.8025,2.7045,2.5435,2.3179,2.2834,2.256,2.2332,2.275,2.2975,2.289,0.0,0.0,0.0,0.0,0.0,0.0,0.0,0.0,0.0,0.0,0.0,0.0,0.0,0.0,0.0,0.0,0.0,0.0,0.0,0.0,0.0,0.0,0.0,0.0,0.0,0.0,0.0,0.0,0.0,0.0,0.0,0.0,0.0,0.0,0.0,0.0,0.0,0.0,0.0,1.8737,1.8753,0.0,0.0,0.0,0.0,0.0,0.0,0.0,0.0,1.9108,0.0,0.0,0.0,0.0,0.0,0.0,0.0,0.0,0.0,0.0,0.0,0.0,0.0,0.0,0.0,0.0,0.0,0.0,0.0,0.0,0.0,0.0,0.0,0.0,0.0,0.0,0.0,0.0,0.0,0.0,0.0,0.0,0.0,0.0,0.0,0.0,0.0,0.0,0.0,0.0,0.0,0.0,0.0,0.0,0.0,0.0,0.0,0.0,0.0,0.0,0.0,0.0,0.0,0.0,0.0,2.7776,2.6198,2.4476,2.2781,2.1856,2.1659,2.214,2.2285,2.2415,0.0,0.0,0.0,0.0,0.0,0.0,0.0,0.0,0.0,0.0,0.0,0.0,0.0,0.0,0.0,0.0,0.0,0.0,0.0,0.0,0.0,0.0,0.0,0.0,0.0,0.0,0.0,0.0,0.0,0.0,0.0,0.0,0.0,0.0,0.0,0.0,0.0,0.0,0.0,0.0,1.986,1.9984,1.9727,0.0,0.0,0.0,0.0,0.0,0.0,2.0229,2.0668,0.0,0.0,0.0,0.0,0.0,0.0,0.0,0.0,0.0,0.0,0.0,0.0,0.0,0.0,0.0,0.0,0.0,0.0,0.0,0.0,0.0,0.0,0.0,0.0,0.0,0.0,0.0,0.0,0.0,0.0,0.0,0.0,0.0,0.0,0.0,0.0,0.0,0.0,0.0,0.0,0.0,0.0,0.0,0.0,0.0,0.0,0.0,0.0,0.0,0.0,0.0,0.0,0.0,0.0,0.0,2.7769,2.5413,2.3691,2.279,2.1284,2.1017,2.2175,2.2289,2.2322,0.0,0.0,0.0,0.0,0.0,0.0,0.0,0.0,0.0,0.0,0.0,0.0,0.0,0.0,0.0,0.0,0.0,0.0,0.0,0.0,0.0,0.0,0.0,0.0,0.0,0.0,0.0,0.0,0.0,0.0,0.0,0.0,0.0,0.0,0.0,0.0,0.0,0.0,0.0,0.0,0.0,2.1253,2.0647,2.0397,0.0,0.0,0.0,0.0,2.0698,2.1407,0.0,0.0,0.0,0.0,0.0,0.0,0.0,0.0,0.0,0.0,0.0,0.0,0.0,0.0,0.0,0.0,0.0,0.0,0.0,0.0,0.0,0.0,0.0,0.0,0.0,0.0,0.0,0.0,0.0,0.0,0.0,0.0,0.0,0.0,0.0,0.0,0.0,0.0,0.0,0.0,0.0,0.0,0.0,0.0,0.0,0.0,0.0,0.0,0.0,0.0,0.0,0.0,0.0,0.0,0.0,0.0,2.775,2.5447,2.3736,2.2816,2.1898,2.1704,2.2292,2.3472,2.3645,0.0,0.0,0.0,0.0,0.0,0.0,0.0,0.0,0.0,0.0,0.0,0.0,0.0,0.0,0.0,0.0,0.0,0.0,0.0,0.0,0.0,0.0,0.0,0.0,0.0,0.0,0.0,0.0,0.0,0.0,0.0,0.0,0.0,0.0,0.0,0.0,0.0,0.0,0.0,0.0,0.0,2.2324,2.1237,2.1112,2.11,0.0,0.0,2.1333,2.3524,2.2818,0.0,0.0,0.0,0.0,0.0,0.0,0.0,0.0,0.0,0.0,0.0,0.0,0.0,0.0,0.0,0.0,0.0,0.0,0.0,0.0,0.0,0.0,0.0,0.0,0.0,0.0,0.0,0.0,0.0,0.0,0.0,0.0,0.0,0.0,0.0,0.0,0.0,0.0,0.0,0.0,0.0,0.0,0.0,0.0,0.0,0.0,0.0,0.0,0.0,0.0,0.0,0.0,0.0,0.0,0.0,2.6232,2.7097,2.5224,2.376,2.2893,2.2473,2.2297,2.2369,2.3735,2.398,0.0,0.0,0.0,0.0,0.0,0.0,0.0,0.0,0.0,0.0,0.0,0.0,0.0,0.0,0.0,0.0,0.0,0.0,0.0,0.0,0.0,0.0,0.0,0.0,0.0,0.0,0.0,0.0,0.0,0.0,0.0,0.0,0.0,0.0,0.0,0.0,0.0,0.0,0.0,0.0,0.0,0.0,2.2245,2.1975,0.0,0.0,0.0,2.2948,2.3746,0.0,0.0,0.0,0.0,0.0,0.0,0.0,0.0,0.0,0.0,0.0,0.0,0.0,0.0,0.0,0.0,0.0,0.0,0.0,0.0,0.0,0.0,0.0,0.0,0.0,0.0,0.0,0.0,0.0,0.0,0.0,0.0,0.0,0.0,0.0,0.0,0.0,0.0,0.0,0.0,0.0,0.0,0.0,0.0,0.0,0.0,0.0,0.0,0.0,0.0,0.0,0.0,0.0,0.0,0.0,0.0,0.0,2.668,2.5058,2.3906,2.3257,2.3161,2.3011,2.2777,2.4162,0.0,0.0,0.0,0.0,0.0,0.0,0.0,0.0,0.0,0.0,0.0,0.0,0.0,0.0,0.0,0.0,0.0,0.0,0.0,0.0,0.0,0.0,0.0,0.0,0.0,0.0,0.0,1.6216,0.0,0.0,0.0,0.0,0.0,0.0,0.0,0.0,0.0,0.0,0.0,0.0,0.0,0.0,2.3199,2.3038,2.2746,2.2964,0.0,0.0,2.3981,2.3998,2.4889,2.5219,0.0,0.0,0.0,0.0,0.0,0.0,0.0,0.0,0.0,0.0,0.0,0.0,0.0,0.0,0.0,0.0,0.0,0.0,0.0,0.0,0.0,0.0,0.0,0.0,0.0,0.0,0.0,0.0,0.0,0.0,0.0,0.0,0.0,0.0,0.0,0.0,0.0,0.0,0.0,0.0,0.0,0.0,0.0,0.0,0.0,0.0,0.0,0.0,0.0,0.0,0.0,0.0,0.0,0.0,0.0,2.6703,2.5156,2.4258,2.4115,2.4124,2.397,2.376,2.5266,2.5283,0.0,0.0,0.0,0.0,0.0,0.0,0.0,0.0,0.0,0.0,0.0,0.0,0.0,0.0,0.0,0.0,0.0,0.0,0.0,0.0,0.0,0.0,0.0,0.0,0.0,0.0,0.0,0.0,0.0,0.0,0.0,0.0,0.0,0.0,0.0,0.0,0.0,0.0,0.0,0.0,0.0,2.3985,2.3451,2.3442,2.3651,0.0,0.0,2.3886,2.5161,2.4569,2.4286,2.5201,0.0,0.0,0.0,0.0,0.0,0.0,0.0,0.0,0.0,0.0,0.0,0.0,0.0,0.0,0.0,0.0,0.0,0.0,0.0,0.0,0.0,0.0,0.0,0.0,0.0,0.0,0.0,0.0,0.0,0.0,0.0,0.0,0.0,0.0,0.0,0.0,0.0,0.0,0.0,0.0,0.0,0.0,0.0,0.0,0.0,0.0,0.0,0.0,0.0,0.0,0.0,0.0,0.0,2.6339,2.6668,2.6076,2.5236,2.4152,2.4633,2.4585,2.3869,2.5265,2.5407,0.0,0.0,0.0,0.0,0.0,0.0,0.0,0.0,0.0,0.0,0.0,0.0,0.0,0.0,0.0,0.0,0.0,0.0,0.0,0.0,0.0,0.0,0.0,0.0,0.0,0.0,0.0,0.0,1.9764,2.0342,2.0798,0.0,0.0,0.0,0.0,0.0,0.0,0.0,0.0,0.0,0.0,2.4271,2.3867,2.3873,0.0,0.0,2.4725,2.4852,2.6075,2.5524,2.5126,2.5544,2.5036,0.0,0.0,0.0,0.0,0.0,0.0,0.0,0.0,0.0,0.0,0.0,0.0,0.0,0.0,0.0,0.0,0.0,0.0,0.0,0.0,0.0,0.0,0.0,0.0,0.0,0.0,0.0,0.0,0.0,0.0,0.0,0.0,0.0,0.0,0.0,0.0,0.0,0.0,0.0,0.0,0.0,0.0,0.0,0.0,0.0,0.0,0.0,0.0,0.0,0.0,0.0,0.0,2.6993,2.6653,2.6691,2.5987,2.4503,2.5061,2.5038,2.4356,2.5215,2.5306,0.0,0.0,0.0,0.0,0.0,0.0,0.0,0.0,0.0,0.0,0.0,0.0,0.0,0.0,0.0,0.0,0.0,0.0,0.0,0.0,0.0,0.0,0.0,0.0,0.0,0.0,0.0,0.0,2.0794,2.1419,2.2063,0.0,0.0,0.0,0.0,0.0,0.0,0.0,0.0,0.0,0.0,2.4997,2.5015,2.5011,2.5379,2.6363,2.6225,2.6299,2.7037,2.6719,2.6433,2.6463,0.0,0.0,0.0,0.0,0.0,0.0,0.0,0.0,0.0,0.0,0.0,0.0,0.0,0.0,0.0,0.0,0.0,0.0,0.0,0.0,0.0,0.0,0.0,0.0,0.0,0.0,0.0,0.0,0.0,0.0,2.9283,0.0,0.0,0.0,0.0,0.0,0.0,0.0,0.0,0.0,0.0,0.0,0.0,0.0,0.0,0.0,0.0,0.0,0.0,0.0,0.0,0.0,0.0,2.7586,2.6828,2.6841,2.6375,2.547,2.5403,2.5326,2.5159,2.5217,2.5063,2.4763,0.0,0.0,0.0,0.0,0.0,0.0,0.0,0.0,0.0,0.0,0.0,0.0,0.0,0.0,0.0,0.0,0.0,0.0,0.0,0.0,0.0,0.0,0.0,0.0,0.0,0.0,2.184,2.2198,2.2618,0.0,0.0,0.0,0.0,0.0,0.0,0.0,0.0,0.0,0.0,2.6105,2.6334,2.7013,2.7131,2.7377,2.8163,2.8188,2.813,2.8144,2.8082,2.8099,0.0,0.0,0.0,0.0,0.0,0.0,0.0,0.0,0.0,0.0,0.0,0.0,0.0,0.0,0.0,0.0,0.0,0.0,0.0,0.0,0.0,0.0,0.0,0.0,0.0,0.0,0.0,3.107,3.1025,0.0,0.0,0.0,0.0,0.0,0.0,0.0,0.0,0.0,0.0,0.0,3.2711,3.3173,0.0,0.0,0.0,0.0,0.0,0.0,0.0,0.0,0.0,0.0,0.0,0.0,2.8418,2.7572,2.7594,2.6881,2.5426,2.5385,2.5337,2.5212,2.5149,2.4833,2.4218,0.0,0.0,0.0,0.0,0.0,0.0,0.0,0.0,0.0,0.0,0.0,0.0,0.0,0.0,0.0,0.0,0.0,0.0,0.0,0.0,0.0,0.0,0.0,0.0,0.0,2.2476,0.0,0.0,0.0,0.0,0.0,0.0,0.0,0.0,0.0,0.0,0.0,2.7925,2.7277,2.7754,2.8179,2.8253,2.823,2.8107,0.0,0.0,0.0,0.0,0.0,0.0,0.0,0.0,0.0,0.0,0.0,0.0,0.0,0.0,3.5189,3.291,3.2241,3.21,3.2268,0.0,0.0,0.0,0.0,0.0,0.0,0.0,0.0,0.0,0.0,0.0,0.0,0.0,0.0,3.2289,0.0,3.1418,0.0,0.0,0.0,0.0,0.0,0.0,0.0,0.0,3.3951,3.4295,3.3827,3.4478,3.4339,0.0,3.3258,3.1994,0.0,0.0,0.0,0.0,0.0,0.0,0.0,0.0,2.9199,2.8059,2.8023,2.7175,2.5464,2.535,2.5317,2.5212,2.5141,2.4846,2.4235,2.4118,2.385,0.0,0.0,0.0,0.0,0.0,0.0,0.0,0.0,0.0,0.0,0.0,0.0,0.0,0.0,0.0,0.0,0.0,0.0,0.0,0.0,0.0,0.0,0.0,2.3315,0.0,0.0,0.0,0.0,0.0,0.0,0.0,0.0,0.0,2.7575,2.8515,2.9166,2.886,2.9098,2.9445,2.9832,0.0,0.0,0.0,0.0,0.0,0.0,0.0,3.0227,3.0765,3.0472,3.0197,3.0214,3.2301,3.4336,3.5339,0.0,0.0,3.4961,3.4479,3.4531,3.4684,3.5147,3.5301,3.4673,3.521,3.554,0.0,0.0,0.0,0.0,0.0,0.0,0.0,0.0,3.328,3.2871,0.0,3.2125,0.0,0.0,0.0,0.0,0.0,3.3681,0.0,0.0,3.5548,3.5709,3.567,3.5676,3.525,3.4534,3.5222,3.4759,3.3103,3.0665,0.0,0.0,0.0,0.0,0.0,0.0,2.9869,2.8258,2.8137,2.7261,2.5557,2.5382,2.5268,2.5217,2.5212,2.508,2.4811,2.4537,2.4272,2.3998,2.3576,0.0,0.0,0.0,0.0,0.0,0.0,0.0,0.0,0.0,0.0,0.0,0.0,0.0,0.0,0.0,0.0,0.0,0.0,0.0,0.0,2.4271,0.0,0.0,0.0,0.0,0.0,0.0,0.0,0.0,0.0,0.0,2.9739,2.9637,2.9927,3.0807,0.0,0.0,0.0,0.0,3.1159,3.2323,3.253,3.2531,3.2561,3.2548,3.2631,3.2929,0.0,0.0,3.3118,3.4429,3.5487,3.5639,3.722,3.8394,3.7846,3.7229,3.7028,3.7326,3.7364,3.7274,3.688,3.7219,3.7588,3.5702,0.0,0.0,0.0,0.0,3.3928,3.4258,3.5113,3.4456,3.4143,3.4002,3.345,0.0,0.0,0.0,0.0,0.0,0.0,3.4923,3.4614,3.5333,3.5708,3.5708,3.5763,3.5617,3.5387,3.5071,3.4675,3.4162,3.2861,3.1724,3.0768,0.0,0.0,0.0,0.0,2.9862,2.831,2.8188,2.7329,2.559,2.5432,2.5339,2.5282,2.5262,2.5122,2.4811,2.4734,2.4481,2.4008,2.3865,0.0,0.0,0.0,0.0,0.0,0.0,0.0,0.0,0.0,0.0,0.0,0.0,0.0,0.0,0.0,0.0,0.0,0.0,0.0,2.4944,2.5743,2.6325,0.0,0.0,0.0,0.0,0.0,0.0,0.0,0.0,0.0,3.1825,3.2123,3.2224,0.0,0.0,3.2282,3.2158,3.1926,3.15,3.073,3.106,0.0,3.1416,3.1873,3.2463,3.309,3.3255,3.3553,3.4393,3.4954,3.5547,3.6355,3.7,3.7328,3.7271,3.7923,3.8426,3.8594,3.8604,3.8401,3.7822,3.7856,3.7757,3.6564,3.6549,3.5202,3.4709,3.4832,3.4699,3.5012,3.5599,3.5438,3.5211,3.4934,3.4488,3.3875,3.3192,3.3799,0.0,0.0,0.0,3.5325,3.4863,3.5437,3.5708,3.5713,3.5764,3.5801,3.5768,3.5303,3.508,3.5114,3.4617,3.3912,3.3012,0.0,0.0,3.1157,3.089,3.0087,2.8808,2.8369,2.7489,2.6118,2.5628,2.538,2.5332,2.5327,2.5168,2.4861,2.4854,2.4678,2.4211,2.4153,2.4047,0.0,0.0,0.0,0.0,0.0,0.0,0.0,0.0,0.0,0.0,0.0,2.3773,0.0,0.0,0.0,0.0,2.4923,2.6012,2.7006,2.7682,0.0,0.0,0.0,0.0,0.0,0.0,0.0,3.3118,3.2948,3.2977,3.345,3.3778,3.3609,3.2709,3.2483,3.2323,3.2156,0.0,3.1335,3.0613,3.0872,3.1271,3.1629,3.2046,3.2657,3.3597,3.376,3.4152,3.5134,3.536,3.5764,3.6615,3.6907,3.6907,3.6907,3.7634,3.8346,3.8662,3.8979,3.895,3.8212,3.8064,3.7847,3.7088,3.7563,3.6834,3.6071,3.5373,3.6094,3.5941,3.5265,3.6029,3.5948,3.5242,3.523,3.4822,3.4166,3.4268,0.0,3.4461,3.5316,3.5722,3.5784,3.5684,3.5597,3.5621,3.5597,3.5597,3.5603,3.5602,3.568,3.5778,3.57,3.539,3.4764,3.3062,3.2151,3.197,3.1208,3.0417,2.9589,2.8755,2.7826,2.6807,2.5878,2.5382,2.5398,2.5398,2.5252,2.4929,2.4961,2.4844,2.4528,2.4393,2.433,2.4312,0.0,0.0,0.0,0.0,0.0,0.0,0.0,0.0,0.0,0.0,0.0,0.0,0.0,0.0,0.0,2.7707,0.0,2.9766,2.9839,0.0,0.0,0.0,3.0669,3.0801,3.2342,3.3714,3.4529,0.0,0.0,3.4615,3.4567,3.4175,3.322,3.1838,3.1165,3.1808,3.1227,3.0886,3.1239,3.1344,3.1646,3.2304,3.2613,3.3111,3.4125,3.4397,3.4673,3.5345,3.5556,3.5911,3.6483,3.6695,3.6658,3.6714,3.6751,3.7032,3.7748,3.8551,3.8887,3.7991,3.7804,3.7573,3.6665,3.6317,3.6718,3.6614,3.6144,3.5699,3.54,3.5208,3.5438,3.5448,3.5359,3.54,3.5419,3.5389,3.5412,3.5426,3.545,3.5676,3.5782,3.5747,3.5103,3.4792,3.4761,3.4188,3.3884,3.3888,3.3939,3.4316,3.4914,3.433,3.4584,3.5539,3.3943,3.2793,3.2147,3.1307,3.0468,2.9609,2.9374,2.8462,2.6838,2.5892,2.5385,2.5387,2.5382,2.5264,2.4994,2.4987,2.4879,2.4596,2.4557,2.4541,2.4513,2.4365,0.0,0.0,0.0,0.0,0.0,0.0,0.0,0.0,0.0,2.6129,2.4958,0.0,2.6903,0.0,2.8952,3.0262,3.0987,3.1115,0.0,0.0,3.2311,3.2773,3.354,3.4025,3.4411,3.4802,3.4749,3.4718,3.4821,3.4202,3.3423,3.2506,3.2608,3.2362,3.13,3.0935,3.0589,3.0211,3.0104,3.0269,3.1201,3.23,3.3373,3.4262,3.445,3.4559,3.4735,3.4836,3.4925,3.512,3.5158,3.5158,3.5177,3.5664,3.6171,3.6421,3.6987,3.7256,3.6451,3.63,3.608,3.6211,3.5836,3.6278,3.6357,3.6157,3.5668,3.5461,3.5461,3.5461,3.5498,3.559,3.562,3.5694,3.5795,3.5795,3.5795,3.5795,3.5795,3.56,3.5197,3.4711,3.4326,3.3961,3.3517,3.3287,3.33,3.3379,3.3836,3.4629,3.4221,3.4673,3.5946,3.4639,3.3745,3.328,3.2069,3.1015,3.0175,2.9765,2.8657,2.6905,2.6294,2.601,2.5987,2.5983,2.6044,2.6198,2.618,2.6056,2.5863,2.5826,2.5793,2.5768,2.5682,2.5576,0.0,0.0,0.0,0.0,0.0,0.0,0.0,0.0,0.0,0.0,0.0,2.7697,2.8378,3.0346,3.1774,3.2177,3.2583,3.2925,3.3205,3.3563,3.3883,3.4146,3.4495,3.4802,3.4972,3.4926,3.4908,3.4962,3.4527,3.3894,3.3033,3.3271,3.2741,3.0827,3.0592,3.0554,2.9786,2.9917,3.0384,3.1208,3.2424,3.3566,3.4297,3.4517,3.4539,3.4539,3.458,3.4612,3.4612,3.4612,3.4612,3.4631,3.4958,3.5337,3.549,3.5752,3.5964,3.591,3.5958,3.5786,3.5795,3.5795,3.5795,3.5795,3.5795,3.5795,3.5795,3.5795,3.5795,3.5795,3.5795,3.5795,3.5795,3.5795,3.5795,3.5795,3.5795,3.5795,3.5395,3.4672,3.4458,3.4034,3.3465,3.3251,3.3204,3.3306,3.3376,3.3848,3.4687,3.4588,3.5041,3.5925,3.5124,3.4696,3.4642,3.3176,3.1929,3.0916,2.9977,2.8746,2.7266,2.7045,2.6951,2.6863,2.6874,2.7133,2.77,2.7661,2.756,2.7407,2.7341,2.7288,2.7219,2.7211,2.716,0.0,2.7008,0.0,0.0,0.0,0.0,0.0,0.0,0.0,0.0,2.8905,2.9,2.9678,3.1916,3.331,3.3325,3.3975,3.4173,3.3696,3.4244,3.443,3.3911,3.448,3.4999,3.5119,3.5127,3.5119,3.5154,3.5146,3.4832,3.4002,3.3734,3.2866,3.076,3.0735,3.0865,3.0086,3.0593,3.1315,3.2113,3.2883,3.3652,3.4395,3.4602,3.4612,3.4602,3.4612,3.4612,3.4612,3.4612,3.4612,3.4612,3.4634,3.4737,3.4917,3.504,3.5258,3.5761,3.6007,3.5976,3.5795,3.5795,3.5795,3.5795,3.5795,3.5795,3.5795,3.5795,3.5795,3.5795,3.5795,3.5795,3.5795,3.5795,3.5795,3.5795,3.5795,3.5795,3.5737,3.5602,3.4175,3.3831,3.4261,3.2971,3.269,3.3359,3.3377,3.3839,3.4687,3.3983,3.4452,3.5956,3.5136,3.4708,3.469,0.0,0.0,0.0,2.996,2.9319,2.8934,2.8226,2.7802,2.7759,2.7806,0.0,2.7785,2.7764,2.7686,2.7495,2.7418,0.0,0.0,0.0,0.0,0.0,0.0,0.0,0.0,0.0,0.0,0.0,3.1456,3.0824,2.9629,3.1285,3.2502,3.2642,3.3816,3.4565,3.4546,3.4679,3.4794,3.4782,3.4914,3.4956,3.4913,3.5044,3.522,3.5399,3.5325,3.5304,3.5399,3.5345,3.4942,3.418,3.3922,3.3406,3.2294,3.2008,3.1873,3.1701,3.1721,3.2152,3.3025,3.3223,3.3523,3.4376,3.4612,3.4556,3.4518,3.4575,3.4594,3.4575,3.4612,3.4612,3.4623,3.473,3.487,3.4889,3.5127,3.5308,3.5299,3.5329,3.5297,3.5852,0.0,3.5856,3.5856,0.0,3.5859,3.5859,3.5856,3.583,3.5826,3.585,3.5849,3.5856,3.584,3.5856,3.5846,3.5862,3.5849,3.5646,3.5196,3.391,3.3297,3.3293,3.2029,3.168,3.2109,3.2103,3.2565,3.336,3.2968,3.3417,3.4704,3.4275,3.4276,3.4687,3.4707,3.3656,3.1496,3.0624,2.9939,2.9455,2.9017,2.8773,2.8692,2.8725,0.0,0.0,0.0,0.0,0.0,0.0,0.0,0.0,0.0,0.0,2.9197,2.9216,2.9748,3.0827,3.095,3.1317,3.2222,3.2738,3.2409,3.1035,3.294,3.4017,3.362,3.4377,3.4917,3.4991,3.5,3.5034,3.513,3.5146,3.5201,3.5332,3.5341,3.5412,3.556,3.5548,3.5518,3.5582,3.5554,3.5345,3.4922,3.477,3.4398,3.3615,3.3207,3.2924,3.2425,3.197,3.1868,3.2203,3.2279,3.2552,3.3188,3.3383,3.3362,3.3362,3.3719,3.4001,3.4049,3.4396,3.4732,3.4763,3.4898,3.5096,3.5181,3.5324,3.5438,3.5393,3.5392,3.5391,3.5883,3.5891,3.5886,3.5889,3.5889,3.5889,3.5889,3.5886,0.0,0.0,0.0,3.59,3.5894,3.588,3.588,3.5897,3.5898,3.5887,3.5529,3.478,3.3767,3.3007,3.2461,3.1481,3.1126,3.1264,3.1269,3.1613,3.2321,3.2323,3.2673,3.3335,3.3395,3.3749,3.4413,3.4471,3.3771,3.2369,3.1516,3.0663,2.9762,2.9731,2.97,2.9627,2.9629,2.9939,3.0567,3.0549,3.0559,3.0644,3.0439,3.0432,3.065,3.0522,3.0797,3.152,3.1589,3.1928,3.2684,3.2741,3.2798,3.2931,3.3657,3.378,3.2972,3.4184,3.4688,3.4067,3.462,3.5054,3.5152,3.5168,3.5205,3.5285,3.5299,3.5354,3.5525,3.5548,3.5588,3.5704,3.5713,3.5718,3.5718,3.5713,3.5718,3.567,3.5402,3.5077,3.4228,3.369,3.3272,3.2653,3.2115,3.1642,3.1515,3.1537,3.1602,3.2316,3.2458,3.242,3.2543,3.3137,3.3646,3.3893,3.4425,3.4859,3.4969,3.5114,3.5295,3.547,3.5538,3.5579,3.5659,3.5713,3.5695,3.5889,3.5886,3.5889,3.5889,3.5889,3.5889,3.5889,3.5889,3.588,3.59,3.5883,3.5889,3.589,3.5896,3.5896,3.5892,3.589,3.5891,3.5838,3.5642,3.4041,3.3664,3.4225,3.2679,3.2308,3.2993,3.3009,3.3085,3.3204,3.3191,3.3289,3.3362,3.3391,3.3455,3.3573,3.3593,3.3455,3.3202,3.2349,3.1522,3.0629,3.0626,3.0589,3.0508,3.0512,3.0533,3.0606,3.0617,3.0911,3.1549,3.0813,3.1031,3.2395,3.1774,3.1794,3.2669,3.2771,3.3126,3.3949,3.4026,3.4334,3.4995,3.5194,3.5175,3.5004,3.5086,3.5189,3.5232,3.529,3.536,3.5432,3.5445,3.5502,3.561,3.5626,3.5683,3.5732,3.5741,3.5745,3.5778,3.5767,3.5782,3.5782,3.5782,3.5763,3.5646,3.4975,3.4317,3.3519,3.3013,3.2778,3.2634,3.2527,3.2424,3.2153,3.2363,3.2271,3.2516,3.3042,3.3334,3.3405,3.4102,3.4669,3.4879,3.4996,3.5128,3.5151,3.5306,3.5445,3.5525,3.5607,3.5669,3.5713,3.5723,3.5718,3.5964,3.594,3.5947,3.5949,3.5949,3.5949,3.5958,3.5952,3.5934,3.5919,3.5916,3.5942,3.5958,3.5947,3.5953,3.5957,3.5954,3.5914,3.5887,3.5772,3.4147,3.359,3.3806,3.2223,3.1584,3.198,3.1999,3.1984,3.1989,3.1994,3.1993,3.2028,3.2445,3.2682,3.2721,3.3175,3.3392,3.3392,3.254,3.1906,3.1504,3.1031,3.0796,3.0762,3.1153,3.1404,3.136,3.1806,3.2007,3.19,3.1484,3.1626,3.2333,3.2053,3.2387,3.3643,3.3759,3.4124,3.4903,3.4942,3.5139,3.5566,3.5615,3.5602,3.5604,3.547,3.5392,3.5489,3.547,3.5502,3.5599,3.561,3.5648,3.5722,3.5751,3.576,3.5806,3.5795,3.5795,3.5795,3.5795,3.5795,3.5795,3.5795,3.5562,3.5138,3.4043,3.3021,3.2621,3.2019,3.1742,3.2102,3.222,3.1959,3.1621,3.1431,3.1578,3.1916,3.2318,3.2764,3.3171,3.4,3.4498,3.4599,3.4978,3.5328,3.5355,3.5518,3.5629,3.5659,3.5708,3.5765,3.5745,3.5765,3.5736,3.6003,3.6018,3.6003,3.6005,3.6005,3.6005,3.6011,3.6015,3.6015,3.5972,3.5918,3.5973,3.5976,3.5976,3.5971,3.5979,3.5981,3.5935,3.5884,3.5732,3.4182,3.3378,3.3203,3.1622,3.0786,3.0834,3.0992,3.0979,3.0829,3.0989,3.0991,3.0895,3.1478,3.181,3.1812,3.2679,3.3093,3.3074,3.2436,3.211,3.2077,3.125,3.0795,3.0834,3.1393,3.1731,3.1746,3.2361,3.2497,3.2027,3.1813,3.1891,3.2279,3.2299,3.2935,3.4245,3.4604,3.4967,3.5513,3.556,3.5607,3.5708,3.5713,3.5757,3.5778,3.5654,3.5579,3.5579,3.5562,3.5585,3.5698,3.5733,3.5737,3.5786,3.5795,3.5791,3.5795,3.5795,3.5795,3.5795,3.5795,3.5795,3.5775,3.562,3.5138,3.4225,3.3079,3.2357,3.2202,3.155,3.136,3.1891,3.2053,3.1844,3.1139,3.1192,3.1432,3.1815,3.217,3.2703,3.3281,3.3904,3.436,3.4616,3.5077,3.5508,3.5574,3.5674,3.5784,3.5778,3.5786,3.5868,3.6121,3.6397,3.6175,3.6013,3.6013,3.6013,3.6013,3.6013,3.6013,3.6013,3.6012,3.6012,3.6012,3.5974,3.6012,3.5966,3.5931,3.5908,3.5912,3.5902,3.5897,3.5894,3.5716,3.4177,3.3397,3.3281,3.1661,3.0801,3.0959,3.1624,3.1627,3.1023,3.1636,3.1588,3.0874,3.0866,3.1003,3.1051,3.1812,3.2243,3.2221,3.2154,3.2112,3.2048,3.1249,3.0799,3.0801,3.0884,3.0889,3.0931,3.0895,3.1292,3.1871,3.1273,3.1568,3.2924,3.3177,3.3565,3.4451,3.5208,3.5724,3.5778,3.5754,3.5778,3.5806,3.5786,3.5806,3.5795,3.5782,3.5773,3.576,3.5713,3.5713,3.5773,3.5782,3.5782,3.5791,3.5795,3.5795,3.5795,3.5795,3.5795,3.5795,3.5795,3.5795,3.5736,3.5177,3.4381,3.3759,3.3332,3.3021,3.2979,3.2415,3.2198,3.2757,3.2524,3.2329,3.2596,3.2926,3.283,3.3009,3.3677,3.4047,3.4357,3.4923,3.56,3.5296,3.5577,3.5717,3.5745,3.5791,3.5825,3.6008,3.6047,3.611,3.6809,3.7469,3.7426,3.601,3.601,3.601,3.601,3.601,3.601,3.5987,3.5938,3.5936,3.5931,3.5935,3.5955,3.5917,3.588,3.5884,3.5885,3.5889,3.5889,3.5889,3.5791,3.4645,3.4118,3.3963,3.2908,3.2343,3.2343,3.2715,3.2677,3.246,3.2698,3.2684,3.2376,3.2333,3.2082,3.1638,3.1915,3.2114,3.2079,3.1579,3.1571,3.1934,3.1264,3.0801,3.0853,3.1298,3.1536,3.1538,3.1952,3.2177,3.2011,3.1661,3.1769,3.249,3.3018,3.3667,3.452,3.5379,3.585,3.5869,3.5869,3.5843,3.5856,3.5841,3.583,3.5795,3.5803,3.5795,3.5791,3.5769,3.5769,3.5791,3.5795,3.5795,3.5795,3.5795,3.5795,3.5795,3.5795,3.5795,3.5795,3.5795,3.5795,3.5678,3.5041,3.44,3.3973,3.3662,3.3351,3.3293,3.2982,3.3177,3.374,3.365,3.3371,3.3375,3.3254,3.3468,3.3879,3.4233,3.4559,3.5215,3.5471,3.5791,3.5801,3.5868,3.5853,3.5786,3.5853,3.5892,3.6319,3.71,3.7469,3.78,3.8154,3.7955,3.5978,3.5978,3.5978,3.5979,3.5978,3.5978,3.5929,3.591,3.589,3.5897,3.5892,3.5889,3.5885,3.5884,3.5883,3.5889,3.5889,3.5889,3.5889,3.5791,3.4993,3.4603,3.4528,3.3768,3.3378,3.3417,3.3612,3.3709,3.369,3.3475,3.3378,3.3378,3.3378,3.3086,3.2521,3.245,3.2454,3.2379,3.1609,3.1455,3.1948,3.1486,3.105,3.0878,3.1418,3.1726,3.1694,3.2277,3.2299,3.1665,3.1642,3.1757,3.2026,3.2827,3.3793,3.4848,3.5538,3.5889,3.5889,3.5889,3.5886,3.5894,3.5882,3.5889,3.5833,3.5834,3.5823,3.5815,3.5807,3.5803,3.5795,3.5795,3.5795,3.5795,3.5795,3.5795,3.5795,3.5795,3.5795,3.5795,3.5795,3.5678,3.5449,3.508,3.4808,3.4462,3.3992,3.3779,3.3876,3.3876,3.3915,3.4711,3.4847,3.4633,3.4109,3.4105,3.4303,3.4575,3.4925,3.5134,3.5698,3.5775,3.5795,3.5806,3.5969,3.6203,3.6397,3.6377,3.663,3.7372,3.811,3.8674,3.8751,3.8911,3.9105,3.5894,3.5897,3.5897,3.5921,3.5897,3.5919,3.5916,3.5897,3.5894,3.5892,3.5889,3.5889,3.5892,3.5894,3.5892,3.5889,3.5889,3.5889,3.5889,3.5811,3.5032,3.4622,3.4547,3.3787,3.3456,3.367,3.4274,3.4547,3.4528,3.3826,3.3378,3.3456,3.3534,3.3436,3.3339,3.3339,3.3339,3.3166,3.2472,3.2067,3.2127,3.2081,3.167,3.1043,3.0877,3.0994,3.0932,3.0878,3.0839,3.0776,3.0921,3.1223,3.2013,3.2869,3.4094,3.5577,3.5853,3.5911,3.5894,3.5899,3.5897,3.5894,3.588,3.5892,3.5875,3.588,3.5908,3.5944,3.5953,3.5912,3.597,3.5904,3.5814,3.5795,3.5795,3.5795,3.5795,3.5795,3.5795,3.5795,3.5795,3.5562,3.4828,3.527,3.5236,3.4828,3.4497,3.4672,3.5173,3.4886,3.4886,3.5367,3.5659,3.5698,3.5659,3.529,3.5406,3.5542,3.5465,3.5659,3.5736,3.5795,3.5834,3.6047,3.6634,3.7003,3.7178,3.7528,3.8013,3.8576,3.9101,3.9528,3.9625,4.0305,4.0422,3.5889,3.5889,3.5889,3.5889,3.5889,3.5889,3.5889,3.5889,3.5889,3.5889,3.5889,3.5889,3.5889,3.5889,3.5889,3.5889,3.5889,3.5889,3.5889,3.5869,3.5577,3.5441,3.5404,3.5112,3.4995,3.5054,3.5288,3.5421,3.5402,3.5109,3.5015,3.4995,3.4993,3.4742,3.4274,3.4177,3.3943,3.3417,3.3069,3.2935,3.2935,3.2939,3.2773,3.2454,3.1915,3.1618,3.1621,3.1615,3.1597,3.1523,3.203,3.2535,3.2924,3.3715,3.472,3.5779,3.5974,3.5962,3.5957,3.5979,3.5963,3.591,3.5889,3.5924,3.5882,3.5914,3.6123,3.6583,3.6715,3.6883,3.7174,3.6527,3.5795,3.5795,3.5814,3.5881,3.5795,3.5795,3.5795,3.5795,3.5795,3.5639,3.5473,3.56,3.5659,3.541,3.5333,3.5465,3.5639,3.5484,3.5426,3.5678,3.5795,3.5795,3.5795,3.5775,3.5775,3.5775,3.5775,3.5775,3.5834,3.6358,3.6533,3.6789,3.7372,3.7935,3.8149,3.8615,3.912,3.9353,3.9897,4.0208,4.048,4.0733,4.0849,3.5889,3.5889,3.5889,3.5889,3.5889,3.5889,3.5889,3.5889,3.5889,3.5889,3.5889,3.5889,3.5883,3.5897,3.59,3.59,3.5897,3.5886,3.5889,3.5889,3.5889,3.5889,3.5889,3.5889,3.5889,3.5869,3.5889,3.6025,3.6259,3.6025,3.6045,3.6298,3.6064,3.5616,3.5093,3.5015,3.472,3.4255,3.3943,3.3807,3.3787,3.3787,3.3787,3.3714,3.3198,3.2772,3.2528,3.2498,3.248,3.2507,3.2992,3.3457,3.3841,3.4643,3.5372,3.5923,3.6002,3.6009,3.6015,3.6016,3.5976,3.5955,3.619,3.6328,3.6328,3.6562,3.703,3.7477,3.7632,3.7922,3.8106,3.7381,3.6667,3.6661,3.6658,3.6658,3.6638,3.6424,3.6151,3.5898,3.5843,3.583,3.5829,3.5822,3.5811,3.5811,3.5799,3.5795,3.5795,3.5795,3.5795,3.5795,3.5795,3.5795,3.5814,3.5834,3.5853,3.5872,3.5931,3.5931,3.6261,3.6828,3.7333,3.7605,3.8091,3.8712,3.9256,3.9703,3.9936,4.0053,4.0305,4.0635,4.0771,4.083,4.0888,3.5886,3.5883,3.5889,3.5883,3.588,3.588,3.5886,3.588,3.5883,3.5897,3.5878,3.5883,3.5885,3.5908,3.5992,3.5973,3.6005,3.6119,3.6036,3.5906,3.5886,3.5886,3.5889,3.5889,3.5967,3.6045,3.5986,3.6434,3.7155,3.6571,3.6512,3.6883,3.6356,3.5967,3.5869,3.5772,3.5811,3.5558,3.4954,3.4606,3.4603,3.4603,3.4625,3.4622,3.4533,3.42,3.3508,3.3364,3.3335,3.332,3.3417,3.3805,3.468,3.5534,3.6024,3.6111,3.6093,3.6113,3.6129,3.6205,3.6283,3.6338,3.6808,3.7217,3.7295,3.7825,3.8316,3.8475,3.8515,3.8574,3.8669,3.8587,3.8424,3.8438,3.8193,3.8174,3.8138,3.7693,3.6912,3.6298,3.6198,3.5999,3.5975,3.6184,3.6258,3.6199,3.6126,3.6168,3.6241,3.6241,3.5969,3.5989,3.6241,3.6474,3.6164,3.5872,3.5911,3.595,3.6047,3.6144,3.677,3.7353,3.8013,3.8382,3.9101,3.9703,4.0014,4.0422,4.0499,4.0635,4.0869,4.0893,4.0888,4.0888,4.0888,3.5815,3.5838,3.5838,3.5834,3.5838,3.5815,3.5834,3.5834,3.5838,3.5834,3.5818,3.5834,3.583,3.5998,3.6429,3.6721,3.6771,3.723,3.6965,3.608,3.5921,3.5943,3.5933,3.5925,3.622,3.6805,3.7409,3.7818,3.7993,3.7798,3.7584,3.7194,3.6941,3.6476,3.6006,3.5889,3.5889,3.585,3.5636,3.5499,3.5499,3.548,3.5499,3.5499,3.548,3.5371,3.511,3.4515,3.424,3.4261,3.4791,3.5246,3.5663,3.6386,3.6816,3.6893,3.7419,3.7728,3.7713,3.7708,3.7663,3.7745,3.7953,3.8088,3.8107,3.8385,3.8822,3.9259,3.9398,3.96,4.0154,4.0292,3.9781,3.8639,3.8517,3.8579,3.8561,3.8285,3.8008,3.7773,3.7695,3.7692,3.7665,3.765,3.7503,3.7472,3.7467,3.7471,3.7512,3.7396,3.759,3.7586,3.7586,3.7342,3.7171,3.7055,3.7074,3.693,3.6833,3.6925,3.7469,3.8013,3.8635,3.927,3.9989,4.0421,4.077,4.0911,4.0909,4.0911,4.0915,4.0911,4.0893,4.0906,4.0913,3.5795,3.5795,3.5795,3.5795,3.5795,3.5795,3.5795,3.5795,3.5795,3.5795,3.5834,3.6144,3.6267,3.6433,3.7156,3.7529,3.7617,3.8069,3.7747,3.6892,3.6821,3.6832,3.6829,3.6854,3.7116,3.7662,3.8246,3.8675,3.8967,3.8656,3.8363,3.8168,3.7837,3.7448,3.6844,3.6532,3.6395,3.6337,3.6064,3.5889,3.5889,3.5889,3.5889,3.5889,3.5889,3.5889,3.5869,3.5365,3.5083,3.5201,3.5642,3.6046,3.6431,3.6924,3.7335,3.774,3.8146,3.8489,3.8523,3.8422,3.851,3.8544,3.8792,3.8967,3.9045,3.9201,3.9772,4.0168,4.029,4.0527,4.095,4.1089,4.0556,3.9647,3.9531,3.9316,3.9121,3.8984,3.875,3.8554,3.8437,3.8515,3.8513,3.8521,3.8479,3.8454,3.842,3.8381,3.8388,3.833,3.8427,3.8439,3.8237,3.814,3.828,3.8295,3.8291,3.8069,3.7808,3.8018,3.8402,3.8887,3.9455,3.9972,4.063,4.0666,4.0942,4.0951,4.0938,4.0932,4.0937,4.0945,4.0944,4.0932,4.0938,3.5806,3.5806,3.5786,3.5782,3.5778,3.5801,3.5855,3.5899,3.5914,3.5991,3.6185,3.6826,3.7138,3.7279,3.7987,3.836,3.8378,3.8546,3.862,3.8496,3.849,3.8447,3.8155,3.8267,3.8458,3.8558,3.8753,3.9159,3.9802,3.924,3.9006,3.9451,3.887,3.85,3.8149,3.7623,3.7272,3.7175,3.6551,3.622,3.622,3.6162,3.6162,3.6201,3.624,3.6259,3.6279,3.622,3.6084,3.5992,3.6059,3.6481,3.7113,3.7307,3.787,3.8553,3.8612,3.8812,3.8725,3.8934,3.8895,3.8987,3.951,3.9883,3.9941,4.0409,4.0799,4.0935,4.0974,4.1039,4.1089,4.1114,4.1008,4.1072,4.0799,4.0506,4.0008,3.9876,3.963,3.9019,3.8697,3.8705,3.8911,3.8886,3.8864,3.8827,3.8844,3.8883,3.8884,3.9007,3.8695,3.877,3.9073,3.9154,3.9352,3.9349,3.9369,3.9324,3.901,3.9041,3.9217,3.9622,4.0046,4.0591,4.0889,4.0955,4.0986,4.0986,4.097,4.0966,4.0975,4.0994,4.0989,4.0975,4.0966,3.5727,3.5713,3.5713,3.5732,3.5707,3.5727,3.6095,3.6559,3.6618,3.6952,3.7489,3.7793,3.7915,3.799,3.8794,3.9182,3.9292,3.9783,4.0132,4.0136,4.0145,3.9427,3.8762,3.9094,3.9403,3.951,3.998,4.0523,4.0718,4.0409,4.0175,3.9783,3.961,3.9143,3.8539,3.8305,3.8168,3.8168,3.7954,3.7759,3.774,3.774,3.7818,3.7818,3.7779,3.7759,3.7798,3.7818,3.7487,3.6902,3.6871,3.7269,3.809,3.8685,3.9117,3.946,4.0017,4.0385,4.0373,4.0347,4.0367,4.0406,4.0484,4.076,4.0757,4.0951,4.1107,4.1107,4.1107,4.111,4.1117,4.1117,4.11,4.1103,4.11,4.0994,4.0781,4.0762,4.0645,4.045,4.035,4.0279,4.0253,4.0255,4.0231,4.0195,4.0149,4.013,3.9981,4.0001,3.9882,4.0185,4.043,4.039,4.0409,4.0408,4.0427,4.0506,4.028,4.0004,4.007,4.0179,4.0545,4.0957,4.0943,4.0975,4.0991,4.1007,4.0995,4.1008,4.1004,4.1007,4.0999,4.1008,4.101,3.5704,3.5723,3.6071,3.6207,3.6245,3.6593,3.7019,3.7386,3.7458,3.7715,3.8212,3.8624,3.874,3.8837,3.9636,4.0042,4.012,4.0565,4.0758,4.0784,4.075,4.0266,3.9749,4.0062,4.0263,4.0338,4.0835,4.1049,4.1088,4.1107,4.0796,4.0464,4.0331,4.0078,3.9685,3.9201,3.9045,3.8987,3.8753,3.8519,3.8519,3.8519,3.85,3.85,3.8519,3.8519,3.85,3.85,3.8246,3.7837,3.7779,3.8149,3.8967,3.9493,3.9961,4.0292,4.0835,4.1091,4.1107,4.1107,4.1107,4.1088,4.1107,4.1107,4.1088,4.1107,4.1107,4.1107,4.1107,4.1107,4.1107,4.1107,4.1107,4.1114,4.1106,4.1114,4.1117,4.1075,4.1095,4.1117,4.1117,4.1117,4.1117,4.1111,4.1072,4.0986,4.084,4.0858,4.0855,4.0994,4.0994,4.0995,4.1015,4.0859,4.076,4.076,4.072,4.0876,4.0858,4.0696,4.0666,4.0623,4.0806,4.1027,4.0991,4.0994,4.1033,4.1034,4.1054,4.1052,4.1035,4.1034,4.1034,4.103,4.103,3.5704,3.5787,3.6555,3.6903,3.7,3.7806,3.8141,3.8309,3.8334,3.8431,3.874,3.9327,3.9617,3.9675,4.0332,4.0758,4.0758,4.0758,4.0759,4.0759,4.0752,4.0593,4.0576,4.0691,4.0817,4.0855,4.1036,4.1048,4.1038,4.1064,4.1078,4.0938,4.0961,4.1049,4.0679,4.0234,3.9961,3.9825,3.9376,3.9104,3.9084,3.9084,3.9123,3.9104,3.9104,3.9065,3.9006,3.8928,3.887,3.8792,3.8694,3.9081,3.9802,3.9958,4.027,4.0835,4.1049,4.1107,4.1107,4.1107,4.1107,4.1107,4.1107,4.1107,4.1107,4.1107,4.1107,4.1107,4.1107,4.1107,4.1107,4.1107,4.1107,4.111,4.111,4.111,4.1107,4.1107,4.1107,4.1107,4.1107,4.1107,4.11,4.1103,4.1111,4.1074,4.1056,4.1044,4.1028,4.1027,4.1029,4.1032,4.1069,4.1104,4.105,4.1013,4.0974,4.0994,4.0988,4.0914,4.0918,4.0917,4.0996,4.1074,4.1051,4.1063,4.107,4.1099,4.1076,4.1085,4.1063,4.1077,4.1108,4.1086,4.107,3.5704,3.5762,3.6574,3.6903,3.7038,3.7825,3.8605,3.921,3.921,3.9553,4.0133,4.0429,4.0487,4.0487,4.07,4.0797,4.079,4.0784,4.0733,4.0586,4.0566,4.0566,4.063,4.0809,4.0887,4.0891,4.0984,4.0937,4.0864,4.0943,4.0992,4.0952,4.1018,4.1059,4.101,4.0877,4.0815,4.0796,4.0562,4.0409,4.037,4.037,4.039,4.039,4.0429,4.0484,4.0523,4.0542,4.0542,4.0386,3.9961,3.9899,4.0542,4.0737,4.0854,4.101,4.1107,4.1107,4.1107,4.1107,4.1107,4.1107,4.1107,4.1107,4.1107,4.1107,4.1107,4.1107,4.1107,4.1127,4.1205,4.1146,4.1224,4.1263,4.1205,4.1146,4.1107,4.1107,4.1107,4.1107,4.1107,4.1107,4.1107,4.1117,4.1112,4.1114,4.1103,4.1091,4.1079,4.1085,4.1076,4.1067,4.1081,4.1113,4.1097,4.1065,4.107,4.1054,4.1062,4.1055,4.1058,4.1062,4.1077,4.1087,4.1094,4.1115,4.1106,4.1113,4.1103,4.1107,4.1113,4.1097,4.1103,4.1106,4.1109,3.5916,3.6342,3.7149,3.7754,3.8218,3.903,3.9688,4.0062,4.01,4.0371,4.0719,4.0797,4.0797,4.0797,4.0797,4.0797,4.0778,4.07,4.0579,4.045,4.0427,4.0434,4.05,4.0643,4.074,4.0779,4.0835,4.0809,4.0784,4.0835,4.0921,4.0917,4.0961,4.1036,4.1088,4.1107,4.1068,4.1068,4.1107,4.1107,4.1107,4.1107,4.1107,4.1107,4.1107,4.1107,4.1049,4.1068,4.1088,4.099,4.0679,4.0581,4.0971,4.1107,4.1107,4.1107,4.1107,4.1107,4.1107,4.1107,4.1107,4.1107,4.1107,4.1107,4.1107,4.1107,4.1107,4.1107,4.1149,4.1208,4.1633,4.2159,4.2101,4.1731,4.1653,4.1516,4.1205,4.1107,4.1107,4.1107,4.1107,4.1107,4.1107,4.1107,4.111,4.1103,4.1103,4.1092,4.1089,4.1095,4.1089,4.1095,4.1106,4.11,4.11,4.1109,4.1098,4.1083,4.1083,4.1098,4.1093,4.1091,4.1103,4.11,4.1106,4.1114,4.1109,4.1098,4.1111,4.1098,4.1107,4.1117,4.1104,4.1108,4.1109,3.6168,3.6975,3.7825,3.8702,3.9578,4.0371,4.0719,4.0758,4.0797,4.0739,4.0797,4.0797,4.0797,4.0797,4.0797,4.079,4.0707,4.06,4.0439,4.0283,4.0274,4.0311,4.0389,4.0454,4.054,4.0718,4.0705,4.0699,4.0699,4.0773,4.0839,4.0893,4.0972,4.1029,4.1085,4.1107,4.1107,4.1107,4.1107,4.1107,4.1107,4.1107,4.1107,4.1107,4.1107,4.1107,4.1107,4.1107,4.1107,4.1107,4.1107,4.1107,4.1107,4.1107,4.1107,4.1107,4.1107,4.1107,4.1107,4.1107,4.1107,4.1107,4.1107,4.1107,4.1107,4.1302,4.1419,4.1458,4.1578,4.1926,4.2471,4.2939,4.3036,4.2646,4.2413,4.1965,4.1458,4.1205,4.1107,4.1107,4.1107,4.1107,4.1107,4.1107,4.1107,4.1107,4.1107,4.1107,4.1107,4.1107,4.1107,4.1107,4.1107,4.1107,4.1107,4.1068,4.1071,4.0857,4.0896,4.0802,4.0802,4.0649,4.0596,4.1048,4.1106,4.1097,4.11,4.1112,4.1103,4.1111,4.1105,4.1117,4.1103,4.1108,4.1129,3.6168,3.698,3.7825,3.8702,3.9559,4.0429,4.0797,4.0797,4.0797,4.0797,4.0797,4.079,4.0784,4.079,4.081,4.0707,4.0552,4.0446,4.0342,4.0157,4.0139,4.0177,4.0206,4.0243,4.0323,4.0442,4.054,4.0545,4.0539,4.0647,4.0761,4.079,4.0926,4.1034,4.1081,4.1107,4.1107,4.1107,4.1107,4.1107,4.1107,4.1107,4.1107,4.1107,4.1107,4.1107,4.1107,4.1107,4.1107,4.1107,4.1107,4.1107,4.1107,4.1107,4.1107,4.1107,4.1107,4.1107,4.1107,4.1107,4.1107,4.1107,4.1185,4.1169,4.1286,4.1731,4.2062,4.2315,4.2705,4.3211,4.3367,4.364,4.3562,4.325,4.2783,4.2257,4.1926,4.1653,4.1205,4.1127,4.1127,4.1107,4.1107,4.1107,4.1107,4.1107,4.1107,4.1107,4.1107,4.1107,4.1107,4.1107,4.1107,4.1107,4.1107,4.1049,4.0955,4.0506,4.037,4.0097,4.0039,3.9902,4.0039,4.0571,4.0941,4.1036,4.1039,4.0989,4.1081,4.1033,4.1066,4.1078,4.1103,4.1129,4.1226,3.6079,3.6935,3.7827,3.8702,3.9559,4.0429,4.0797,4.0797,4.0797,4.0797,4.0778,4.0707,4.0707,4.0733,4.0605,4.0462,4.0326,4.0283,4.0186,4.003,4.002,4.0059,4.0106,4.0137,4.0215,4.0344,4.0419,4.0433,4.0377,4.0571,4.0675,4.0761,4.0888,4.1034,4.1081,4.1107,4.1107,4.1107,4.1107,4.1107,4.1107,4.1107,4.1107,4.1107,4.1107,4.1107,4.1107,4.1107,4.1107,4.1107,4.1107,4.1107,4.1107,4.1107,4.1107,4.1107,4.1107,4.1107,4.1107,4.1107,4.1107,4.1149,4.1438,4.1711,4.1926,4.2432,4.2958,4.3192,4.3741,4.4267,4.4267,4.4286,4.4049,4.364,4.3192,4.2627,4.2101,4.2159,4.1809,4.1305,4.1127,4.1107,4.1107,4.1107,4.1107,4.1107,4.1107,4.1107,4.1107,4.1107,4.1107,4.1107,4.1107,4.1107,4.1107,4.1068,4.0854,4.0386,4.0078,3.9808,3.9847,3.9944,3.998,4.0234,4.0523,4.1133,4.0529,4.0324,4.0649,4.0935,4.0754,4.0686,4.0968,4.1148,4.1324,3.5977,3.6856,3.7765,3.8658,3.9534,4.0423,4.0759,4.0746,4.072,4.07,4.068,4.0564,4.0564,4.0612,4.0454,4.0239,4.0101,4.011,4.004,3.9946,3.9986,4.0027,4.0098,4.0166,4.0244,4.0301,4.0363,4.0353,4.0417,4.0537,4.0642,4.0759,4.0902,4.1015,4.1081,4.1107,4.1107,4.1107,4.1107,4.1107,4.1107,4.1107,4.1107,4.1107,4.1107,4.1107,4.1107,4.1107,4.1107,4.1107,4.1107,4.1107,4.1107,4.1107,4.1107,4.1107,4.1107,4.1107,4.1107,4.1107,4.1107,4.1127,4.1867,4.2179,4.2568,4.3094,4.3952,4.4185,4.4676,4.5166,4.5166,4.5166,4.4851,4.4423,4.401,4.3504,4.2825,4.2513,4.2296,4.1828,4.1341,4.1107,4.1107,4.1107,4.1107,4.1107,4.1107,4.1107,4.1107,4.1107,4.1107,4.1107,4.1107,4.1107,4.1107,4.1107,4.0796,4.0328,4.0123,3.9953,4.0106,4.0321,4.0204,4.0031,4.1087,4.1482,4.058,4.009,4.0808,4.1037,4.0483,4.0588,4.1339,4.1576,4.1635,3.5837,3.6692,3.7627,3.8516,3.9359,4.0308,4.0674,4.0552,4.0533,4.0466,4.0383,4.0342,4.0334,4.0353,4.0334,4.0212,4.0129,4.0061,4.002,3.9933,3.9975,4.0057,4.0117,4.0147,4.0253,4.0337,4.0368,4.04,4.0469,4.0566,4.0662,4.0789,4.0911,4.1034,4.1104,4.1107,4.1107,4.1107,4.1107,4.1107,4.1107,4.1107,4.1107,4.1107,4.1107,4.1107,4.1107,4.1107,4.1107,4.1107,4.1107,4.1107,4.1107,4.1107,4.1107,4.1107,4.1107,4.1107,4.1185,4.1244,4.1361,4.1536,4.2101,4.2257,4.302,4.3955,4.5007,4.5864,4.5965,4.5907,4.5868,4.5926,4.5907,4.5478,4.4851,4.4598,4.4111,4.3234,4.2961,4.2179,4.1653,4.1302,4.1127,4.1127,4.1107,4.1107,4.1107,4.1107,4.1107,4.1107,4.1107,4.1107,4.1107,4.1107,4.1114,4.111,4.0919,4.0393,4.0304,4.0196,4.0351,4.0432,3.9858,3.9997,4.1186,4.1629,4.0686,4.0552,4.1245,4.1393,4.1172,4.153,4.2121,4.2123,4.1947,3.5331,3.5843,3.6799,3.7689,3.8535,3.9461,4.0062,4.0342,4.0391,4.0359,4.0273,4.0212,4.0158,4.011,4.0129,4.011,4.0,3.9979,3.9988,3.9975,4.0017,4.0106,4.0167,4.0252,4.0323,4.0366,4.0473,4.0581,4.0622,4.0662,4.0746,4.0815,4.0937,4.1045,4.1107,4.1107,4.1107,4.1107,4.1107,4.1107,4.1107,4.1107,4.1107,4.1107,4.1107,4.1107,4.1107,4.1107,4.1107,4.1107,4.1107,4.1107,4.1107,4.1107,4.1107,4.1127,4.1575,4.177,4.1809,4.1789,4.2003,4.2588,4.325,4.4033,4.4501,4.5066,4.5689,4.6118,4.6199,4.6199,4.6063,4.5732,4.5537,4.5322,4.5303,4.4851,4.4579,4.4364,4.3702,4.2822,4.2042,4.1789,4.1497,4.1302,4.1244,4.1107,4.1107,4.1107,4.1107,4.1107,4.1107,4.1107,4.1107,4.1107,4.1114,4.1117,4.1106,4.0797,4.0805,4.0696,4.0657,4.0467,4.0145,4.0398,4.1505,4.1459,4.071,4.1072,4.1785,4.195,4.1997,4.21,4.2181,4.2298,4.2259,3.4954,3.5157,3.613,3.6886,3.7529,3.8383,3.9227,3.9893,3.9931,4.002,4.0138,4.0091,3.9989,3.9935,3.9989,3.9989,3.9892,3.99,3.9943,3.9996,4.0058,4.0147,4.0234,4.0339,4.0403,4.045,4.0595,4.0694,4.0765,4.0824,4.084,4.0834,4.0957,4.1032,4.1085,4.1107,4.1107,4.1107,4.1107,4.1107,4.1107,4.1107,4.1107,4.1107,4.1107,4.1107,4.1107,4.1107,4.1107,4.1107,4.1107,4.1107,4.1107,4.1361,4.1497,4.1672,4.2179,4.2802,4.2861,4.2919,4.3036,4.3601,4.4403,4.4972,4.5825,4.6199,4.6199,4.6199,4.6199,4.6199,4.6082,4.5634,4.5576,4.5498,4.5361,4.4812,4.4403,4.4423,4.4384,4.3819,4.3078,4.251,4.2159,4.1692,4.1419,4.1166,4.1107,4.1107,4.1107,4.1107,4.1107,4.111,4.1097,4.11,4.1103,4.1109,4.1114,4.1103,4.1113,4.1079,4.0944,4.1066,4.1033,4.1499,4.2041,4.1885,4.1497,4.1892,4.2266,4.2151,4.2038,4.1944,4.2006,4.2142,4.2533,3.4917,3.4993,3.6013,3.6447,3.6627,3.7496,3.8325,3.9099,3.9071,3.9451,3.992,3.9914,3.9933,3.9911,3.9922,3.9914,3.99,3.99,3.9943,4.0026,4.0077,4.0187,4.0295,4.0394,4.0488,4.0584,4.0711,4.0793,4.084,4.0928,4.0961,4.0986,4.1006,4.1055,4.1085,4.1107,4.1107,4.1107,4.1107,4.1107,4.1107,4.1107,4.1107,4.1107,4.1107,4.1107,4.1107,4.1107,4.1107,4.1107,4.1107,4.1244,4.1361,4.175,4.1984,4.2393,4.3059,4.3721,4.4033,4.3819,4.362,4.3854,4.4481,4.54,4.6102,4.6199,4.6199,4.6199,4.6199,4.6199,4.6199,4.6118,4.5907,4.5848,4.5771,4.567,4.5222,4.4793,4.4738,4.4582,4.4033,4.3231,4.2919,4.2471,4.1867,4.1614,4.1127,4.1107,4.1107,4.1107,4.1107,4.1114,4.1106,4.1112,4.1114,4.11,4.1111,4.1098,4.1105,4.1109,4.1072,4.1312,4.1979,4.2079,4.2467,4.2371,4.2316,4.2454,4.2472,4.2233,4.2077,4.2043,4.1849,4.183,4.2435,3.4908,3.4993,3.5894,3.6274,3.6359,3.7195,3.8023,3.8782,3.9304,3.9634,3.99,3.99,3.99,3.99,3.99,3.99,3.99,3.9943,3.9986,4.007,4.0158,4.0267,4.0394,4.0533,4.0694,4.0729,4.0854,4.0915,4.0945,4.0995,4.1029,4.1039,4.1059,4.1085,4.1107,4.1107,4.1107,4.1107,4.1107,4.1107,4.1107,4.1107,4.1107,4.1107,4.1107,4.1107,4.1107,4.1107,4.1107,4.1107,4.1107,4.1341,4.1731,4.2179,4.2607,4.3114,4.3936,4.454,4.4832,4.4656,4.4637,4.5183,4.5553,4.5825,4.6176,4.6199,4.6199,4.6199,4.6199,4.6199,4.6199,4.6199,4.6141,4.6199,4.6199,4.6199,4.5965,4.542,4.5147,4.5011,4.4325,4.3523,4.3367,4.327,4.2627,4.2042,4.1516,4.1107,4.1107,4.111,4.111,4.1117,4.1112,4.11,4.1103,4.1113,4.1124,4.115,4.1174,4.1332,4.155,4.2527,4.3038,4.3022,4.3025,4.3201,4.3184,4.2933,4.2716,4.2477,4.2316,4.2199,4.1947,4.1599,4.2071,3.4908,3.5022,3.5817,3.6206,3.6301,3.7068,3.7893,3.8709,3.9267,3.973,3.9881,3.99,3.99,3.99,3.99,3.99,3.9911,3.9965,4.0036,4.0128,4.0196,4.0321,4.045,4.0582,4.0718,4.0804,4.093,4.1003,4.1029,4.1013,4.1059,4.1085,4.1107,4.1107,4.1107,4.1107,4.1107,4.1107,4.1107,4.1107,4.1107,4.1107,4.1107,4.1107,4.1107,4.1107,4.1107,4.1107,4.1107,4.1107,4.1185,4.1559,4.2081,4.2627,4.3153,4.3936,4.4695,4.5244,4.5283,4.5361,4.5576,4.5903,4.6043,4.6141,4.6199,4.6199,4.6199,4.6199,4.6199,4.6199,4.6199,4.6199,4.6199,4.6199,4.6199,4.6199,4.6102,4.5751,4.5576,4.54,4.4832,4.4559,4.4364,4.4247,4.3215,4.2435,4.1516,4.1169,4.1107,4.111,4.1114,4.1103,4.1114,4.1103,4.1108,4.1417,4.1663,4.145,4.1532,4.1846,4.2297,4.3217,4.3689,4.3456,4.3576,4.4067,4.3895,4.3369,4.3035,4.2738,4.2406,4.1941,4.1688,4.1359,4.1422,3.4908,3.5003,3.5855,3.6234,3.6377,3.7097,3.7931,3.8671,3.8879,3.9286,3.9862,3.99,3.99,3.99,3.99,3.99,3.9933,3.9975,4.0057,4.0128,4.0215,4.0297,4.0406,4.0566,4.0712,4.08,4.0911,4.1003,4.1065,4.1085,4.1107,4.1107,4.1107,4.1107,4.1107,4.1107,4.1107,4.1107,4.1107,4.1107,4.1107,4.1107,4.1107,4.1107,4.1107,4.1107,4.1107,4.1302,4.1341,4.1341,4.1322,4.1812,4.2614,4.316,4.3841,4.4822,4.5599,4.6027,4.6121,4.6141,4.6141,4.616,4.6199,4.6199,4.6199,4.6199,4.6199,4.6199,4.6199,4.6199,4.6199,4.6199,4.6199,4.6199,4.6199,4.6199,4.6102,4.6063,4.5868,4.5774,4.5985,4.6043,4.5751,4.5248,4.4001,4.2909,4.1734,4.1247,4.1192,4.11,4.1106,4.1114,4.1125,4.1349,4.1493,4.1976,4.216,4.1908,4.1949,4.2321,4.2732,4.3398,4.3692,4.3735,4.4189,4.47,4.4272,4.3688,4.3437,4.3104,4.1991,4.1464,4.1249,4.1172,4.1229,3.4908,3.504,3.6405,3.7002,3.7106,3.7912,3.8462,3.8784,3.9248,3.9654,3.9843,3.99,3.99,3.99,3.99,3.9922,3.9965,4.0036,4.0098,4.0157,4.0262,4.033,4.0419,4.0526,4.0662,4.0793,4.0888,4.0972,4.1032,4.1085,4.1107,4.1107,4.1107,4.1107,4.1107,4.1107,4.1107,4.1107,4.1107,4.1107,4.1107,4.1107,4.1107,4.1107,4.1107,4.1127,4.1224,4.1555,4.1809,4.1887,4.1906,4.252,4.3425,4.4036,4.4312,4.5334,4.6173,4.6173,4.6212,4.6192,4.6203,4.6213,4.6199,4.6199,4.6199,4.6199,4.6199,4.6199,4.6203,4.6203,4.6199,4.6199,4.6199,4.6199,4.6199,4.6199,4.616,4.618,4.6102,4.6086,4.6206,4.62,4.603,4.5696,4.4643,4.3863,4.2808,4.1713,4.1401,4.1195,4.1106,4.1111,4.1176,4.1497,4.1857,4.2297,4.2671,4.2594,4.2656,4.2914,4.3363,4.387,4.4011,4.4209,4.478,4.5252,4.4764,4.4305,4.3952,4.3396,4.2487,4.1604,4.1276,4.1134,4.0991,3.4908,3.5097,3.6689,3.739,3.758,3.8622,3.9126,3.921,3.9673,3.99,3.99,3.99,3.99,3.99,3.99,3.9943,3.9996,4.0067,4.0118,4.0196,4.0289,4.0342,4.04,4.0511,4.063,4.0754,4.0874,4.0964,4.1009,4.1062,4.1088,4.1107,4.1107,4.1107,4.1107,4.1107,4.1107,4.1107,4.1107,4.1107,4.1107,4.1107,4.1107,4.1107,4.1149,4.1227,4.1575,4.1984,4.2452,4.265,4.2965,4.3428,4.4267,4.4631,4.4792,4.577,4.6199,4.6202,4.6206,4.6206,4.6204,4.6212,4.6198,4.6206,4.6203,4.6206,4.6206,4.6209,4.6213,4.6209,4.6209,4.6209,4.6209,4.6209,4.6206,4.6206,4.6209,4.6209,4.6213,4.6196,4.6222,4.6217,4.6167,4.5813,4.5226,4.4604,4.396,4.2863,4.1749,4.1423,4.1235,4.122,4.1166,4.1347,4.1882,4.2573,4.2908,4.3201,4.3577,4.3973,4.4169,4.4696,4.4699,4.4762,4.5312,4.5637,4.5308,4.4932,4.4553,4.4027,4.327,4.24,4.1535,4.1203,4.1052,3.4908,3.5154,3.6689,3.7344,3.7609,3.8982,3.9767,3.9862,3.99,3.99,3.99,3.99,3.99,3.99,3.99,3.9943,4.0007,4.0077,4.0128,4.0196,4.0281,4.0319,4.0379,4.0489,4.0609,4.0724,4.0829,4.0956,4.1006,4.1062,4.1107,4.1107,4.1107,4.1107,4.1107,4.1107,4.1107,4.1107,4.1107,4.1107,4.1107,4.1107,4.1107,4.1146,4.1263,4.1623,4.2055,4.2545,4.3055,4.3389,4.3701,4.4202,4.4633,4.4899,4.5446,4.5923,4.619,4.621,4.6211,4.6203,4.6184,4.6187,4.6186,4.6187,4.6212,4.6209,4.6211,4.6209,4.6209,4.6198,4.6209,4.6212,4.6212,4.6206,4.6203,4.6203,4.6206,4.6209,4.6212,4.6217,4.6223,4.6231,4.6236,4.5943,4.5679,4.5302,4.4677,4.4014,4.29,4.1746,4.1575,4.1425,4.1332,4.1177,4.1791,4.2716,4.3382,4.3735,4.4912,4.5424,4.5541,4.5291,4.5254,4.5368,4.5867,4.5954,4.5604,4.5332,4.512,4.4472,4.3479,4.2687,4.167,4.1456,4.132,3.4908,3.5022,3.6083,3.6566,3.6794,3.8348,3.9361,3.9862,3.99,3.99,3.99,3.99,3.99,3.99,3.99,3.9965,4.0036,4.0117,4.0195,4.0253,4.0301,4.0336,4.0386,4.0446,4.0588,4.0724,4.0835,4.0932,4.0999,4.1062,4.1107,4.1107,4.1107,4.1107,4.1107,4.1107,4.1107,4.1107,4.1107,4.1107,4.111,4.1114,4.1133,4.1253,4.1665,4.2089,4.2559,4.3558,4.4116,4.4413,4.4535,4.4955,4.5722,4.5332,4.5273,4.605,4.62,4.6198,4.6199,4.6203,4.6185,4.6143,4.6132,4.6152,4.6167,4.6201,4.6199,4.6191,4.6206,4.6204,4.6212,4.6206,4.6206,4.6201,4.6199,4.6201,4.6204,4.6206,4.6208,4.6212,4.6216,4.6241,4.6241,4.6204,4.5955,4.5751,4.5377,4.4815,4.4009,4.2836,4.1937,4.1805,4.1614,4.1498,4.2091,4.2976,4.3699,4.4424,4.5447,4.6035,4.5586,4.5388,4.5595,4.567,4.5646,4.5772,4.5822,4.5396,4.4602,4.4102,4.3204,4.2526,4.1924,4.1596,4.1312,3.4908,3.5022,3.5836,3.6377,3.6879,3.8121,3.9001,3.9418,3.9748,3.99,3.99,3.99,3.99,3.99,3.9933,3.9986,4.0087,4.0147,4.0196,4.0282,4.031,4.0363,4.0383,4.0466,4.061,4.074,4.0859,4.0949,4.1006,4.1062,4.1107,4.1107,4.1107,4.1107,4.1107,4.1107,4.1107,4.1107,4.1107,4.111,4.1114,4.1148,4.1254,4.1629,4.2164,4.2598,4.3357,4.4588,4.4952,4.5311,4.5409,4.5624,4.6141,4.5693,4.5475,4.6123,4.6159,4.6156,4.6159,4.6159,4.6128,4.6114,4.6097,4.6126,4.6131,4.6163,4.6171,4.6171,4.619,4.6209,4.6203,4.6215,4.6212,4.621,4.6212,4.6213,4.6215,4.6215,4.6198,4.62,4.6221,4.6225,4.6245,4.6264,4.6226,4.6052,4.5916,4.5643,4.4856,4.383,4.2811,4.2244,4.2031,4.1878,4.2568,4.3182,4.3828,4.4568,4.547,4.5815,4.5449,4.5199,4.5139,4.5095,4.5065,4.5122,4.5091,4.4353,4.3609,4.3143,4.2621,4.1857,4.1397,4.1336,4.1098,3.4908,3.4965,3.5761,3.6462,3.7353,3.8064,3.8519,3.8784,3.9426,3.9824,3.9862,3.99,3.99,3.99,3.9943,4.0026,4.0087,4.0147,4.0215,4.031,4.0337,4.0379,4.0462,4.0542,4.0699,4.0824,4.092,4.0995,4.1029,4.1081,4.1107,4.111,4.1107,4.1114,4.1106,4.1106,4.1114,4.1108,4.1103,4.11,4.1114,4.121,4.1507,4.2199,4.2678,4.3157,4.4391,4.5096,4.5371,4.5898,4.617,4.6155,4.6116,4.6086,4.6064,4.6044,4.6072,4.6091,4.6095,4.6095,4.6091,4.6087,4.6074,4.6076,4.6086,4.6111,4.6142,4.6158,4.618,4.6186,4.619,4.6191,4.6211,4.6211,4.6211,4.6211,4.6211,4.6211,4.6211,4.621,4.621,4.6229,4.6229,4.6229,4.6229,4.6187,4.6127,4.6029,4.5622,4.4687,4.3924,4.2986,4.2656,4.2558,4.2811,4.3409,4.3947,4.4688,4.5393,4.5358,4.485,4.4665,4.4555,4.4496,4.4404,4.4203,4.3987,4.3196,4.2593,4.2255,4.1692,4.1018,4.0742,4.0609,4.077,3.4908,3.4927,3.5116,3.5704,3.6472,3.6699,3.7571,3.8671,3.8879,3.9342,3.9805,3.9881,3.99,3.99,3.9933,4.0005,4.0096,4.0147,4.0205,4.03,4.0353,4.0441,4.0559,4.0668,4.0809,4.0911,4.0988,4.1036,4.1062,4.1107,4.111,4.111,4.1117,4.1109,4.11,4.11,4.1109,4.1103,4.1104,4.1175,4.1248,4.1267,4.1493,4.2367,4.3003,4.3886,4.4922,4.5603,4.5864,4.6193,4.6192,4.6174,4.6111,4.6104,4.6081,4.6022,4.6027,4.6027,4.6027,4.6027,4.6032,4.6027,4.6027,4.6022,4.6032,4.6064,4.6105,4.6117,4.6138,4.6154,4.6183,4.6184,4.6207,4.6189,4.6192,4.6191,4.6191,4.6209,4.6209,4.6207,4.6207,4.6206,4.6206,4.6184,4.6184,4.6163,4.6142,4.6081,4.6069,4.5496,4.507,4.4232,4.3507,4.3361,4.3476,4.3639,4.4164,4.4299,4.4744,4.4573,4.4191,4.397,4.3763,4.3789,4.3732,4.3312,4.2746,4.2009,4.1487,4.1146,4.0641,3.9904,3.9435,3.925,3.9794,3.4908,3.4908,3.4908,3.5173,3.5647,3.6026,3.6946,3.8045,3.8519,3.8944,3.9418,3.9692,3.9881,3.9892,3.9933,3.9975,4.0087,4.0118,4.0234,4.0334,4.0408,4.053,4.0662,4.0771,4.0859,4.0976,4.1045,4.1081,4.111,4.111,4.1114,4.1117,4.1103,4.11,4.1109,4.1114,4.1098,4.1106,4.1108,4.1283,4.1512,4.173,4.2123,4.2948,4.3828,4.4684,4.5361,4.6033,4.6087,4.618,4.6169,4.6111,4.6066,4.6047,4.6037,4.6007,4.6002,4.5982,4.5982,4.5982,4.5982,4.5982,4.6002,4.6007,4.6007,4.6041,4.6054,4.6092,4.6119,4.6141,4.6135,4.6141,4.6141,4.6144,4.6147,4.6144,4.6144,4.6144,4.6144,4.6144,4.6141,4.6154,4.6151,4.6144,4.6125,4.6072,4.6056,4.6063,4.6049,4.6041,4.571,4.5301,4.4456,4.4114,4.4175,4.424,4.4396,4.4423,4.419,4.3594,4.3174,4.3069,4.2966,4.2737,4.2438,4.2061,4.1435,4.0808,4.0221,3.9808,3.9319,3.8737,3.835,3.8091,3.8506,3.4908,3.4908,3.4908,3.4927,3.5003,3.5685,3.6462,3.7325,3.814,3.85,3.869,3.9502,3.9805,3.977,3.9802,3.9941,4.0078,4.0158,4.0289,4.0392,4.0442,4.0596,4.0736,4.0835,4.0932,4.1015,4.1059,4.1094,4.1109,4.1112,4.1108,4.1113,4.1104,4.1112,4.1106,4.111,4.1111,4.1113,4.123,4.1601,4.1991,4.2458,4.2967,4.3744,4.4612,4.5436,4.5991,4.6248,4.6206,4.6169,4.6122,4.6061,4.6017,4.6007,4.6007,4.5982,4.5982,4.5982,4.5982,4.5982,4.5982,4.5982,4.5982,4.5982,4.5982,4.6007,4.6042,4.6047,4.6076,4.6085,4.6089,4.6098,4.6098,4.6093,4.6098,4.6093,4.6093,4.6089,4.6089,4.6089,4.608,4.6075,4.6085,4.6095,4.6056,4.5997,4.5986,4.5961,4.5961,4.5931,4.5775,4.5531,4.5029,4.4836,4.4874,4.4788,4.4781,4.397,4.3571,4.2783,4.2116,4.1829,4.1559,4.1324,4.1,4.0715,4.0296,3.9722,3.9151,3.8688,3.8421,3.8077,3.7719,3.747,3.7361,3.4908,3.4908,3.4908,3.4908,3.4946,3.5097,3.5647,3.6472,3.7306,3.7666,3.7997,3.9134,3.9608,3.8917,3.8917,3.9294,4.0128,4.0215,4.0286,4.0378,4.0582,4.0724,4.0814,4.0915,4.0991,4.1059,4.1094,4.1092,4.1111,4.11,4.1101,4.1101,4.1102,4.1109,4.1113,4.1112,4.1112,4.111,4.1243,4.1551,4.2217,4.2763,4.3428,4.4162,4.4909,4.5547,4.6023,4.6209,4.6183,4.6127,4.6075,4.6037,4.6007,4.5982,4.5982,4.5982,4.5982,4.5982,4.5982,4.5982,4.5982,4.5982,4.5982,4.5982,4.5997,4.5986,4.6016,4.6011,4.6021,4.6026,4.6022,4.6027,4.6027,4.6027,4.6022,4.6032,4.6021,4.6016,4.6011,4.598,4.5969,4.5964,4.5958,4.5966,4.5974,4.5937,4.5905,4.5893,4.5835,4.5814,4.5817,4.5587,4.5333,4.5529,4.5522,4.5237,4.4998,4.3998,4.2887,4.1943,4.1121,4.0431,4.0146,4.0107,3.9813,3.9481,3.9016,3.8753,3.8366,3.7978,3.7808,3.7524,3.7114,3.6805,3.6689]}]]